     2.11           OBSERVATION DATA    G (GPS)             RINEX VERSION / TYPE
teqc 2010Oct21 OPUS Account 20111027 20:41:07UTC            PGM / RUN BY / DATE
U 1525                                                      MARKER NAME
3029                                                        MARKER NUMBER
CSMIDDLETON NGS                                             OBSERVER / AGENCY
4820152812 TRIMBLE R7 2.32                                  REC # / TYPE / VERS
60244996 TRM41249.00 NONE                                   ANT # / TYPE
  -759591.0898 -5555909.6476  3028931.2736                  APPROX POSITION XYZ
        2.0030        0.0000        0.0000                  ANTENNA: DELTA H/E/N
     1     1                                                WAVELENGTH FACT L1/2
     5    L1    L2    C1    P1    P2                        # / TYPES OF OBSERV
    15                                                      LEAP SECONDS
  2011     8    20    13    39    0.0000000     GPS         TIME OF FIRST OBS
                                                            END OF HEADER
 11  8 20 13 39  0.0000000  0  8G03G06G13G16G20G23G31G32
   -303570.34057   -227940.65654  23169368.5784                   23169367.6884
   -155863.15256   -116962.63754  23186583.2664                   23186582.3554
   -271736.87957   -199348.69554  23424339.6024                   23424337.2894
    176872.21158    132554.52356  20087525.8754                   20087522.2034
    432499.38358    323712.03956  20843799.9304                   20843796.3164
   -180822.76258   -135687.28956  21528931.3834                   21528926.1094
    794465.39557    599588.32854  23562721.9224                   23562719.0784
    656877.54757    492072.41456  21095829.7194                   21095827.3364
 11  8 20 13 39 30.0000000  0  8G03G06G13G16G20G23G31G32
   -347198.91047   -261936.92644  23161066.4384                   23161065.0704
   -177717.71547   -133992.16444  23182424.5164                   23182422.8874
   -311123.43447   -230039.52343  23416845.2504                   23416842.5634
    204714.66048    154249.91846  20092824.2814                   20092820.5554
    496933.56348    373920.46546  20856061.4534                   20856057.9104
   -206425.57848   -155637.54746  21524059.5634                   21524054.2114
    908875.00447    688738.59044  23584493.0944                   23584490.7464
    753252.64847    567169.85246  21114169.1804                   21114166.9384
 11  8 20 13 40  0.0000000  0  8G03G06G13G16G20G23G31G32
   -390742.45347   -295866.92244  23152780.2734                   23152778.3984
   -199367.74647   -150862.26644  23178304.7424                   23178303.4184
   -350499.33647   -260722.02743  23409351.9384                   23409349.8634
    233210.44548    176454.45346  20098246.7894                   20098243.1564
    561968.10548    424596.73046  20868437.1724                   20868433.9804
   -231866.48848   -175461.60246  21519218.1024                   21519212.8984
   1023271.09847    777878.32444  23606262.0944                   23606259.2704
    850115.64548    642647.50846  21132601.2424                   21132599.3524
 11  8 20 13 40 30.0000000  0  8G03G06G13G16G20G23G31G32
   -434236.85947   -329758.65244  23144503.7034                   23144502.3364
   -220848.94547   -167600.87944  23174217.0634                   23174216.1884
   -389901.71947   -291425.19943  23401854.5234                   23401851.6294
    262320.68048    199137.73846  20103786.4534                   20103782.8204
    627563.36748    475709.88746  20880919.6254                   20880916.1914
   -257182.33648   -195188.24246  21514400.9304                   21514395.7304
   1137614.48447    866976.97344  23628021.3134                   23628017.7114
    947426.35948    718473.98846  21151119.1804                   21151116.8244
 11  8 20 13 41  0.0000000  0  8G03G06G13G16G20G23G31G32
   -477547.58647   -363507.27244  23136261.8054                   23136260.7154
   -242026.98446   -184103.24243  23170187.2344                   23170185.2624
   -429198.17246   -322045.80143  23394375.8834                   23394373.2464
    292176.85248    222402.28146  20109467.6644                   20109464.2584
    693849.58648    527361.44946  20893533.3524                   20893529.8834
   -282239.52048   -214713.32046  21509632.7194                   21509627.3554
   1252036.35547    956136.79344  23649795.0164                   23649792.1024
   1045314.30948    794750.27346  21169747.0474                   21169744.8054
 11  8 20 13 41 30.0000000  0  8G03G06G13G16G20G23G31G32
   -520710.22747   -397140.47344  23128048.1174                   23128046.6524
   -262937.23446   -200396.99244  23166207.7504                   23166205.5634
   -468425.79746   -352612.77743  23386910.4844                   23386908.3284
    322741.03948    246218.52346  20115283.8984                   20115280.4224
    760787.53548    579520.85246  20906271.4774                   20906267.9304
   -307074.93448   -234065.61346  21504906.4924                   21504901.1524
   1366498.02747   1045327.62544  23671575.7344                   23671573.4964
   1143739.61748    871445.27346  21188476.6174                   21188474.3284
 11  8 20 13 42  0.0000000  0  8G03G06G13G16G20G23G31G32
   -563751.39547   -430679.03144  23119857.5554                   23119855.5984
   -283606.91447   -216503.22744  23162274.6954                   23162273.0784
   -507613.85247   -383148.88743  23379453.6564                   23379451.7704
    353982.66848    270562.64546  20121228.8754                   20121224.9344
    828345.97348    632163.76646  20919127.4384                   20919123.6804
   -331716.52748   -253266.86746  21500217.4534                   21500212.0704
   1480968.82047   1134525.57845  23693359.0394                   23693356.7974
   1242670.25048    948534.03546  21207302.3444                   21207299.9884
 11  8 20 13 42 30.0000000  0  8G03G06G13G16G20G23G31G32
   -606681.61747   -464131.09444  23111688.0634                   23111687.1604
   -304046.55946   -232430.21544  23158385.0554                   23158383.3164
   -546774.50846   -413663.69943  23372001.4224                   23371999.5634
    385888.37148    295424.22746  20127300.6254                   20127296.4144
    896510.56348    685278.98446  20932098.6564                   20932095.0634
   -356175.71948   -272325.99646  21495562.7034                   21495557.7584
   1595434.90647   1223719.83244  23715141.2194                   23715138.9024
   1342091.14848   1026004.82046  21226221.9304                   21226219.4614
 11  8 20 13 43  0.0000000  0  8G03G06G13G16G20G23G31G32
   -649503.50447   -497498.77344  23103539.5234                   23103538.9264
   -324258.38347   -248179.66844  23154538.3834                   23154537.5824
   -585911.95746   -444160.41443  23364554.6024                   23364551.5164
    418453.07848    320799.30546  20133497.2504                   20133493.4654
    965274.35948    738861.14846  20945184.0314                   20945180.2664
   -380456.00048   -291245.70346  21490942.5004                   21490937.5634
   1709890.35547   1312905.82045  23736922.1644                   23736919.2154
   1441994.95748   1103851.89846  21245233.0704                   21245230.4414
 11  8 20 13 43 30.0000000  0  8G03G06G13G16G20G23G31G32
   -692216.92247   -530781.95344  23095411.5864                   23095410.1884
   -344242.67247   -263751.83644  23150736.0554                   23150734.0864
   -625028.14847   -474640.55543  23357110.9144                   23357108.1254
    451673.68048    346685.48446  20139819.1334                   20139815.6844
   1034633.13748    792906.91846  20958382.2034                   20958378.6644
   -404558.85548   -310027.15646  21486355.5474                   21486350.5314
   1824332.13347   1402081.15245  23758699.9844                   23758696.7114
   1542377.12548   1182071.72746  21264335.1174                   21264332.4924
 11  8 20 13 44  0.0000000  0  8G03G06G13G16G20G23G31G32
   -734820.03947   -563979.16444  23087304.2734                   23087302.1454
   -363997.91447   -279145.52744  23146977.0164                   23146975.3754
   -664123.28947   -505104.29344  23349671.1334                   23349668.7814
    485548.54348    373081.46146  20146265.0474                   20146261.5314
   1104584.44148    847414.38746  20971693.7584                   20971690.1604
   -428483.41848   -328669.69146  21481803.2424                   21481798.1724
   1938758.39147   1491244.39145  23780474.1334                   23780471.6134
   1643234.25848   1260661.66446  21283527.7974                   21283524.9144
 11  8 20 13 44 30.0000000  0  8G03G06G13G16G20G23G31G32
   -777316.02347   -597092.89544  23079217.7734                   23079215.7504
   -383527.40647   -294363.30144  23143260.9454                   23143258.8524
   -703202.05146   -535555.27744  23342234.7974                   23342232.3134
    520071.24648    399982.25846  20152834.5944                   20152830.6644
   1175120.62148    902377.59846  20985116.2034                   20985112.4104
   -452234.10548   -347176.73046  21477283.5234                   21477278.1884
   2053162.42647   1580390.30944  23802244.5314                   23802241.4614
   1744558.34848   1339615.45746  21302808.9924                   21302806.4654
 11  8 20 13 45  0.0000000  0  8G03G06G13G16G20G23G31G32
   -819710.63747   -630127.65244  23071149.8284                   23071148.7194
   -402836.94547   -309409.69944  23139585.6484                   23139584.5474
   -742272.34047   -565999.64843  23334800.0864                   23334797.0744
    555232.85248    427380.90646  20159525.8524                   20159521.8834
   1246231.55548    957788.69146  20998648.2504                   20998644.8874
   -475817.88348   -365553.71145  21472795.5084                   21472790.3094
   2167535.11747   1669511.80544  23824009.3834                   23824006.4964
   1846338.66848   1418924.77046  21322176.8984                   21322174.5944
 11  8 20 13 45 30.0000000  0  8G03G06G13G16G20G23G31G32
   -861997.47347   -663078.41444  23063102.4064                   23063101.2854
   -421920.37947   -324279.89144  23135954.4384                   23135953.1844
   -781329.51647   -596433.80944  23327367.6174                   23327364.8754
    591036.78148    455280.05946  20166339.0474                   20166335.5474
   1317919.41048   1013649.32046  21012289.9454                   21012286.1954
   -499229.23048   -383796.32846  21468340.7114                   21468335.5944
   2281879.61747   1758611.33244  23845767.7664                   23845765.4344
   1948576.67248   1498590.70346  21341632.2504                   21341629.9654
 11  8 20 13 46  0.0000000  0  8G03G06G13G16G20G23G31G32
   -904168.44547   -695938.90244  23055078.3284                   23055076.5084
   -440769.73447   -338967.67244  23132367.3284                   23132365.6954
   -820367.40246   -626852.94543  23319939.1414                   23319935.9884
    627487.47748    483683.18446  20173275.2344                   20173271.3714
   1390187.78948   1069962.31346  21026042.4454                   21026038.6334
   -522461.19548   -401899.17246  21463920.0314                   21463914.2664
   2396200.50847   1847692.46544  23867522.6644                   23867520.2704
   2051275.43048   1578615.67246  21361175.6024                   21361173.3984
 11  8 20 13 46 30.0000000  0  8G03G06G13G16G20G23G31G32
   -946225.84047   -728710.86344  23047075.1094                   23047073.3284
   -459387.34446   -353474.86344  23128824.2424                   23128823.2584
   -859390.10946   -657260.26244  23312513.1724                   23312510.7074
    664579.76648    512586.25446  20180333.7344                   20180330.2424
   1463030.23048   1126722.62946  21039903.7814                   21039900.2894
   -545517.00448   -419864.73846  21459532.3284                   21459526.8914
   2510492.40247   1936751.02344  23889271.3914                   23889268.8834
   2154427.98048   1658994.25046  21380804.6564                   21380802.3484
 11  8 20 13 47  0.0000000  0  8G03G06G13G16G20G23G31G32
   -988167.32847   -761392.54344  23039093.6334                   23039092.1564
   -477771.34047   -367800.02744  23125326.0554                   23125325.0314
   -898397.31246   -687655.48444  23305090.0474                   23305087.8404
    702312.10948    541988.06347  20187513.7814                   20187510.1914
   1536444.07048   1183928.18446  21053874.0084                   21053870.5084
   -568395.75848   -437692.34445  21455178.4694                   21455173.1684
   2624753.55147   2025785.59044  23911014.9534                   23911012.4774
   2258031.19148   1739723.97746  21400519.8134                   21400517.3404
 11  8 20 13 47 30.0000000  0  8G03G06G13G16G20G23G31G32
  -1029995.37547   -793985.82044  23031134.3134                   23031133.0744
   -495924.19147   -381945.08244  23121871.9844                   23121870.4774
   -937392.94547   -718041.69944  23297669.0394                   23297667.0044
    740678.88748    571884.24646  20194814.5314                   20194810.8054
   1610422.81348   1241573.92646  21067951.5634                   21067948.0234
   -591100.96948   -455384.71946  21450858.1094                   21450853.3674
   2738978.35947   2114791.86744  23932751.5314                   23932748.7894
   2362077.71148   1820799.15646  21420318.7974                   21420316.6134
 11  8 20 13 48  0.0000000  0  8G03G06G13G16G20G23G31G32
  -1071709.35947   -826490.20744  23023195.7814                   23023194.7584
   -513845.44547   -395909.65644  23118461.5554                   23118459.5944
   -976378.37146   -748419.95743  23290250.8594                   23290248.3984
    779677.47748    602272.74646  20202236.2584                   20202232.7194
   1684962.35248   1299656.65246  21082135.8984                   21082132.2704
   -613633.19948   -472942.30946  21446570.4064                   21446565.0434
   2853164.15247   2203767.73444  23954480.0084                   23954478.4924
   2466563.29747   1902216.46546  21440202.0474                   21440199.7424
 11  8 20 13 48 30.0000000  0  8G03G06G13G16G20G23G31G32
  -1113301.16447   -858899.37944  23015281.5944                   23015279.6174
   -531527.20347   -409687.62944  23115097.1024                   23115095.3984
  -1015347.40647   -778785.43744  23282835.1094                   23282832.7274
    819312.15248    633156.89547  20209778.3834                   20209774.5824
   1760066.35248   1358179.21546  21096428.1644                   21096424.3164
   -635985.34848   -490359.57846  21442316.9694                   21442311.9414
   2967315.54747   2292716.82844  23976203.2504                   23976200.1214
   2571490.82448   1983978.12546  21460169.2504                   21460166.7934
 11  8 20 13 49  0.0000000  0  8G03G06G13G16G20G23G31G32
  -1154772.80147   -891214.93044  23007389.4774                   23007387.9574
   -548971.80946   -423280.78144  23111777.0554                   23111775.8794
  -1054303.85247   -809141.09044  23275422.1804                   23275419.7464
    859577.75448    664532.68046  20217440.5554                   20217437.0124
   1835728.22348   1417136.48846  21110825.9924                   21110822.2814
   -658160.41048   -507638.85946  21438096.9924                   21438092.1374
   3081427.39147   2381635.07444  23997917.1724                   23997913.9804
   2676853.23448   2066078.67246  21480218.9144                   21480216.4774
 11  8 20 13 49 30.0000000  0  8G03G06G13G16G20G23G31G32
  -1196117.20747   -923431.33644  22999522.5944                   22999520.9264
   -566172.72747   -436684.05944  23108503.4774                   23108501.9964
  -1093242.78947   -839483.14844  23268012.8444                   23268009.7894
    900477.57048    696402.66046  20225223.5634                   20225219.8524
   1911950.02348   1476530.07046  21125330.2114                   21125327.0784
   -680152.96948   -524775.92246  21433912.1174                   21433906.6994
   3195502.82847   2470524.96943  24019625.0004                   24019622.7274
   2782652.04348   2148519.26246  21500351.7424                   21500349.5784
 11  8 20 13 50  0.0000000  0  8G03G06G13G16G20G23G31G32
  -1237338.43747   -955551.78544  22991678.6564                   22991676.5234
   -583133.97347   -449900.60544  23105276.2194                   23105274.4804
  -1132169.76647   -869815.83244  23260604.6564                   23260601.7814
    942003.60248    728760.59446  20233125.9534                   20233122.0394
   1988723.28948   1536353.36346  21139940.1334                   21139936.4224
   -701967.87548   -541774.56246  21429761.2194                   21429755.5124
   3309534.68047   2559380.89144  24041325.3284                   24041322.8134
   2888878.34448   2231292.96546  21520566.0554                   21520563.7344
 11  8 20 13 50 30.0000000  0  8G03G06G13G16G20G23G31G32
  -1278428.29747   -987569.83644  22983858.7664                   22983856.9614
   -599847.30547   -462923.94944  23102095.5554                   23102094.3324
  -1171078.28147   -900134.16444  23253200.9534                   23253198.1604
    984160.98448    761610.50446  20241147.9614                   20241143.7234
   2066051.45748   1596609.05546  21154654.8834                   21154651.5634
   -723597.80148   -558629.05146  21425644.6334                   21425639.7424
   3423527.77347   2648206.62143  24063017.1024                   24063014.6484
   2995535.39548   2314402.31346  21540862.4844                   21540859.6884
 11  8 20 13 51  0.0000000  0  8G03G06G13G16G20G23G31G32
  -1319389.09047  -1019487.30544  22976064.5474                   22976062.6174
   -616315.33247   -475756.16044  23098961.8914                   23098960.4414
  -1209972.48047   -930441.31644  23245799.3914                   23245796.2504
   1026944.12548    794948.01246  20249289.6254                   20249285.5474
   2143927.69548   1657291.79746  21169474.6954                   21169470.8674
   -745046.03948   -575341.97346  21421563.2194                   21421558.1484
   3537476.77347   2736997.95344  24084701.2504                   24084698.7624
   3102615.67248   2397841.45346  21561238.9384                   21561236.3634
 11  8 20 13 51 30.0000000  0  8G03G06G13G16G20G23G31G32
  -1360216.26247  -1051300.70744  22968295.2734                   22968293.2304
   -632534.29347   -488394.29744  23095875.2974                   23095873.8444
  -1248850.14147   -960735.58644  23238401.2974                   23238398.5394
   1070353.30148    828773.33246  20257549.9224                   20257546.1024
   2222351.72748   1718401.39846  21184397.7734                   21184394.0204
   -766309.84848   -591911.18746  21417517.0704                   21417512.0204
   3651382.31647   2825755.41043  24106376.8284                   24106374.6174
   3210118.21548   2481609.63746  21581696.1564                   21581693.3364
 11  8 20 13 52  0.0000000  0  8G03G06G13G16G20G23G31G32
  -1400913.84047  -1083013.07044  22960550.5784                   22960549.0394
   -648507.93047   -500841.26644  23092835.5314                   23092834.3324
  -1287716.26247   -991020.87144  23231005.5004                   23231002.4964
   1114380.96948    863080.60546  20265928.0004                   20265924.0124
   2301315.30148   1779931.42246  21199424.1174                   21199420.4924
   -787393.78148   -608340.22346  21413504.7424                   21413499.7154
   3765237.34847   2914473.54343  24128041.8984                   24128040.0664
   3318034.07448   2565699.88346  21602231.8204                   21602229.2734
 11  8 20 13 52 30.0000000  0  8G03G06G13G16G20G23G31G32
  -1441475.31247  -1114619.41444  22952832.0234                   22952830.3634
   -664230.05947   -513092.27044  23089844.1954                   23089842.3834
  -1326566.39846  -1021293.67243  23223612.0554                   23223609.7114
   1159029.95748    897872.01647  20274424.6724                   20274420.9104
   2380819.52748   1841882.73846  21214553.2664                   21214550.1414
   -808292.44548   -624624.89846  21409528.1564                   21409523.1214
   3879044.86746   3003154.68443  24149699.2344                   24149696.4264
   3426364.57848   2650113.21546  21622846.1644                   21622844.0044
 11  8 20 13 53  0.0000000  0  8G03G06G13G16G20G23G31G32
  -1481896.31247  -1146116.29744  22945140.2734                   22945137.7584
   -679696.77347   -525144.23444  23086900.8054                   23086899.4884
  -1365397.94547  -1051552.01244  23216223.0474                   23216220.4614
   1204301.22348    933148.32446  20283039.5004                   20283035.5354
   2460864.19548   1904255.17646  21229785.7814                   21229782.2504
   -829002.37948   -640762.52046  21405587.0634                   21405581.6724
   3992806.03546   3091799.66443  24171347.4224                   24171345.0354
   3535108.82847   2734848.95746  21643539.9924                   21643537.6724
 11  8 20 13 53 30.0000000  0  8G03G06G13G16G20G23G31G32
  -1522182.45747  -1177508.10244  22937473.9144                   22937472.2384
   -694913.77047   -537001.62944  23084005.3984                   23084002.8014
  -1404218.44546  -1081801.73444  23208836.1334                   23208833.2734
   1250184.98848    968901.90646  20291770.4844                   20291766.7034
   2541438.82048   1967040.56646  21245118.4454                   21245114.5944
   -849530.89848   -656758.76246  21401680.5864                   21401675.3794
   4106511.72346   3180401.41044  24192984.7114                   24192982.8164
   3644255.74247   2819898.45746  21664310.0164                   21664307.2974
 11  8 20 13 54  0.0000000  0  8G03G06G13G16G20G23G31G32
  -1562315.33247  -1208780.48044  22929837.1564                   22929835.3594
   -709863.09447   -548650.44144  23081160.2664                   23081157.4924
  -1443011.16847  -1112029.79744  23201453.6724                   23201450.5314
   1296696.09848   1005144.33246  20300621.7584                   20300617.4344
   2622557.06348   2030249.56346  21260554.8444                   21260551.0704
   -869860.16048   -672599.74646  21397812.1644                   21397806.6374
   4220177.19946   3268971.82444  24214614.5474                   24214612.9924
   3753818.59047   2905272.05946  21685159.4304                   21685156.4414
 11  8 20 13 54 30.0000000  0  8G03G06G13G16G20G23G31G32
  -1602300.68747  -1239937.89844  22922228.4144                   22922226.0824
   -724550.80547   -560095.41844  23078365.8444                   23078363.1644
  -1481783.78147  -1142242.21943  23194075.1644                   23194072.5984
   1343824.62948   1041867.85546  20309589.8674                   20309585.8284
   2704208.23848   2093873.82446  21276092.4224                   21276088.7774
   -889997.23848   -688290.98046  21393980.1884                   21393974.3444
   4333793.09046   3357503.62544  24236235.5314                   24236233.1454
   3863786.16447   2990961.04346  21706085.0314                   21706082.8134
 11  8 20 13 55  0.0000000  0  8G03G06G13G16G20G23G31G32
  -1642141.32847  -1270982.55544  22914646.6414                   22914645.0234
   -738980.20347   -571339.11344  23075619.4774                   23075618.3594
  -1520540.84047  -1172442.52344  23186700.0084                   23186697.2624
   1391563.73848   1079067.16846  20318674.3134                   20318670.3164
   2786384.43447   2157907.18846  21291729.5234                   21291726.2464
   -909946.31648   -703835.71546  21390183.9774                   21390178.7304
   4447353.30147   3445992.00444  24257845.4064                   24257843.2544
   3974150.12547   3076958.89846  21727086.8284                   21727084.2624
 11  8 20 13 55 30.0000000  0  8G03G06G13G16G20G23G31G32
  -1681827.38347  -1301906.76244  22907094.7424                   22907093.4024
   -753141.21947   -582373.68444  23072925.4144                   23072923.0004
  -1559273.70347  -1202623.97744  23179329.7034                   23179326.3634
   1439920.07047   1116747.42246  20327875.8444                   20327872.5664
   2869091.04348   2222353.87546  21307468.6804                   21307465.0204
   -929697.70748   -719226.41046  21386425.8754                   21386420.0004
   4560864.53547   3534442.23444  24279446.0944                   24279443.2074
   4084915.70348   3163269.69146  21748164.6644                   21748162.1214
 11  8 20 13 56  0.0000000  0  8G03G06G13G16G20G23G31G32
  -3296780.11747  -2560311.49644  22599779.3914                   22599777.8094
  -2342455.22347  -1820800.17244  22770488.4144                   22770486.4414
  -3173406.01647  -2460389.41844  22872171.1804                   22872167.5704
    -86529.18747    -72693.56646  20037402.5474                   20037399.0274
   1376905.34048   1059611.73846  21023514.6724                   21023511.9344
  -2524673.87948  -1962064.99646  21082911.6724                   21082906.2154
   3098906.92247   2395254.41844  24001244.6954                   24001241.8054
   2620660.56648   2022291.61346  21469526.0554                   21469524.0044
 11  8 20 13 56 30.0000000  0  8G03G06G13G16G20G23G31G32
  -3336148.19547  -2590987.90244  22592288.1254                   22592286.1684
  -2356072.66847  -1831411.18044  22767897.5474                   22767895.3054
  -3212087.84846  -2490531.10544  22864809.2814                   22864806.7704
    -36942.37547    -34054.49246  20046838.5234                   20046834.4734
   1460665.60948   1124879.44946  21039454.0164                   21039450.6724
  -2544025.90248  -1977144.49246  21079229.0554                   21079223.3954
   3212318.26246   2483626.75444  24022825.8594                   24022824.0824
   2732220.86747   2109221.69145  21490755.5164                   21490753.1374
 11  8 20 13 57  0.0000000  0  8G03G06G13G16G20G23G31G32
  -3375364.47347  -2621546.05144  22584825.7664                   22584823.5944
  -2369425.77347  -1841816.21144  22765355.8134                   22765354.2464
  -3250753.83247  -2520660.43744  22857451.8914                   22857449.1254
     13246.71147      5053.87946  20056389.1564                   20056385.1134
   1544938.41048   1190546.54346  21055490.4224                   21055487.1024
  -2563186.53948  -1992074.86746  21075582.8834                   21075577.5784
   3325668.00046   2571951.16444  24044395.8204                   24044393.3594
   2844163.53147   2196449.69146  21512057.8594                   21512055.2734
 11  8 20 13 57 30.0000000  0  8G03G06G13G16G20G23G31G32
  -3414412.75047  -2651973.27744  22577394.7894                   22577392.4734
  -2382498.69547  -1852002.91844  22762868.4614                   22762866.6134
  -3289389.06647  -2550765.81644  22850099.8754                   22850096.7664
     64050.18848     44641.00047  20066056.5784                   20066053.1604
   1629734.87148   1256621.67246  21071627.3444                   21071623.5984
  -2582140.84448  -2006844.45746  21071975.8754                   21071970.7774
   3438968.79346   2660237.37543  24065956.5634                   24065954.2154
   2956499.39547   2283984.08646  21533434.4454                   21533432.0314
 11  8 20 13 58  0.0000000  0  8G03G06G13G16G20G23G31G32
  -3453297.71147  -2682273.25045  22569995.3364                   22569993.4414
  -2395296.46147  -1861975.19144  22760433.0634                   22760431.5864
  -3328000.36747  -2580852.55544  22842752.0234                   22842749.5984
    115459.21948     84699.97346  20075839.7424                   20075835.6024
   1715044.94547   1323097.01646  21087861.2034                   21087857.9454
  -2600894.55548  -2021457.74246  21068407.2584                   21068401.5944
   3552212.36746   2748479.04343  24087505.7974                   24087503.7734
   3069218.11747   2371816.82046  21554883.9774                   21554881.4104
 11  8 20 13 58 30.0000000  0  8G03G06G13G16G20G23G31G32
  -3492008.42247  -2712437.42645  22562628.3984                   22562626.6914
  -2407808.56647  -1871724.89844  22758052.4384                   22758050.3984
  -3366578.37947  -2610913.33244  22835411.2584                   22835408.0514
    167480.77748    125236.24247  20085739.0164                   20085735.3404
   1800874.90248   1389977.47746  21104193.9614                   21104190.5904
  -2619437.60548  -2035906.87946  21064878.2194                   21064873.1454
   3665406.84046   2836682.43444  24109046.1414                   24109043.3134
   3182325.44148   2459952.35945  21576407.5474                   21576405.2814
 11  8 20 13 59  0.0000000  0  8G03G06G13G16G20G23G31G32
  -3530548.98847  -2742469.02744  22555294.2664                   22555292.5514
  -2420039.58247  -1881255.55544  22755724.6724                   22755722.6914
  -3405128.99647  -2640952.77044  22828075.0084                   22828071.7704
    220106.51248    166243.29346  20095753.7974                   20095749.7734
   1887215.28948   1457255.66446  21120624.1954                   21120620.6024
  -2637775.60548  -2050196.22746  21061389.0394                   21061383.5554
   3778544.49246   2924841.60544  24130575.9694                   24130573.0634
   3295811.76248   2548383.21145  21598003.6254                   21598001.0864
 11  8 20 13 59 30.0000000  0  8G03G06G13G16G20G23G31G32
  -3568911.41047  -2772361.80144  22547994.5474                   22547992.7194
  -2431981.62547  -1890561.05544  22753452.3674                   22753450.5944
  -3443645.52346  -2670965.64544  22820745.6884                   22820742.4614
    273340.68447    207724.45346  20105883.9614                   20105879.7304
   1974069.35548   1524934.14146  21137151.9454                   21137148.5514
  -2655901.23848  -2064320.09846  21057939.8204                   21057934.3134
   3891630.32046   3012960.35543  24152094.8524                   24152092.8324
   3409679.71947   2637111.44545  21619671.5394                   21619669.0824
 11  8 20 14  0  0.0000000  0  8G03G06G13G16G20G23G31G32
  -3607097.57447  -2802117.23444  22540727.9384                   22540726.6094
  -2443637.14847  -1899643.29744  22751234.0084                   22751232.3444
  -3482131.84446  -2700954.98044  22813421.0864                   22813418.6764
    327176.82848    249674.68846  20116128.1484                   20116124.2624
   2061429.69548   1593007.08646  21153776.0084                   21153772.6724
  -2673817.62148  -2078280.91846  21054530.3674                   21054525.2154
   4004658.64146   3101034.32843  24173604.2584                   24173601.1214
   3523921.67647   2726131.10245  21641411.2584                   21641408.8674
 11  8 20 14  0 30.0000000  0  8G03G06G13G16G20G23G31G32
  -3645104.48447  -2831733.00444  22533494.8754                   22533494.5704
  -2455003.48047  -1908500.16844  22749071.2344                   22749069.3284
  -3520586.17247  -2730919.37544  22806104.3284                   22806101.5864
    381614.02748    292093.27346  20126487.2424                   20126483.2304
   2149294.38748   1661473.05146  21170496.1414                   21170492.6564
  -2691522.37948  -2092076.84046  21051160.9844                   21051155.5634
   4117629.66846   3189063.61343  24195101.5394                   24195098.5044
   3638535.37548   2815440.43446  21663221.8204                   21663219.2274
 11  8 20 14  1  0.0000000  0  8G03G06G13G16G20G23G31G32
  -3682921.33647  -2861200.65644  22526298.6334                   22526297.0634
  -2466070.40647  -1917123.74244  22746966.3284                   22746963.5984
  -3558999.96147  -2760852.17644  22798794.3284                   22798791.8094
    436658.60948    334985.13746  20136961.8054                   20136958.1054
   2237668.69548   1730336.12546  21187313.2584                   21187309.8754
  -2709006.03948  -2105700.47746  21047834.1414                   21047828.5664
   4230550.62546   3277053.91444  24216589.8054                   24216587.9694
   3753526.05948   2905043.52346  21685103.9224                   21685101.3134
 11  8 20 14  1 30.0000000  0  8G03G06G13G16G20G23G31G32
  -3720550.86347  -2890522.33644  22519138.2274                   22519136.3164
  -2476840.71547  -1925516.18444  22744915.8524                   22744913.7234
  -3597377.09447  -2790756.43444  22791491.3204                   22791488.4844
    492303.80948    378345.02746  20147551.1644                   20147547.2194
   2326544.99648   1799590.35946  21204225.5004                   21204222.8594
  -2726272.42248  -2119154.80546  21044548.6334                   21044542.9064
   4343415.68846   3365000.66444  24238067.4774                   24238065.5944
   3868885.32048   2994933.82045  21707056.2274                   21707053.3794
 11  8 20 14  2  0.0000000  0  8G03G06G13G16G20G23G31G32
  -3757993.96947  -2919698.77344  22512013.0704                   22512011.4884
  -2487316.18447  -1933678.88744  22742921.6334                   22742920.5354
  -3635720.37947  -2820634.30944  22784195.2664                   22784191.7704
    548544.25448    422168.73046  20158253.0944                   20158249.0274
   2415917.23448   1869231.03946  21221233.1174                   21221229.1214
  -2743323.53948  -2132441.39546  21041303.7894                   21041298.6094
   4456220.55146   3452900.46543  24259533.8364                   24259531.3054
   3984606.84048   3085106.38745  21729076.8834                   21729074.7734
 11  8 20 14  2 30.0000000  0  8G03G06G13G16G20G23G31G32
  -3795245.46147  -2948725.89145  22504924.5784                   22504922.8054
  -2497491.90647  -1941608.02344  22740986.0084                   22740984.3444
  -3674026.16047  -2850482.94144  22776905.4534                   22776902.5944
    605380.84848    466456.96546  20169068.9924                   20169064.9654
   2505785.18447   1939257.98046  21238334.0634                   21238330.2734
  -2760155.02348  -2145556.82846  21038101.0084                   21038095.5234
   4568966.98046   3540754.71943  24280988.0944                   24280985.4534
   4100690.21947   3175560.92645  21751167.2734                   21751164.4184
 11  8 20 14  3  0.0000000  0  8G03G06G13G16G20G23G31G32
  -3832300.45747  -2977599.90645  22497873.2814                   22497871.4494
  -2507363.23447  -1949299.94945  22739107.1414                   22739106.1094
  -3712291.00047  -2880299.68044  22769624.4144                   22769621.1724
    662814.34448    511210.32846  20179997.9694                   20179994.1644
   2596148.56348   2009670.97346  21255529.3594                   21255526.5634
  -2776763.28548  -2158498.33646  21034940.5784                   21034934.7234
   4681656.96946   3628565.02343  24302432.7584                   24302430.8404
   4217134.89848   3266296.99646  21773325.6024                   21773323.5514
 11  8 20 14  3 30.0000000  0  8G03G06G13G16G20G23G31G32
  -3869154.18747  -3006317.10245  22490860.2974                   22490858.2664
  -2516926.62147  -1956751.93044  22737287.4304                   22737286.1054
  -3750512.37547  -2910082.55544  22762350.6804                   22762347.5394
    720844.63748    556428.73446  20191041.0084                   20191036.7854
   2687006.03547   2080468.98046  21272819.3364                   21272815.7194
  -2793144.66448  -2171263.05146  21031823.1804                   21031817.5274
   4794291.24247   3716331.91443  24323866.5704                   24323864.0354
   4333939.50048   3357313.53545  21795552.8594                   21795550.5864
 11  8 20 14  4  0.0000000  0  8G03G06G13G16G20G23G31G32
  -3905808.18747  -3034878.64845  22483885.0084                   22483882.9224
  -2526183.33247  -1963964.93744  22735526.2814                   22735524.7624
  -3788692.85547  -2939833.58644  22755084.9224                   22755081.5204
    779465.80148    602107.54746  20202196.2814                   20202192.3094
   2778351.31348   2151647.08646  21290201.9694                   21290198.8554
  -2809301.32448  -2183852.65246  21028748.8984                   21028743.4694
   4906865.84446   3804052.27043  24345288.3284                   24345286.0124
   4451097.35548   3448605.32445  21817846.9064                   21817845.3364
 11  8 20 14  4 30.0000000  0  8G03G06G13G16G20G23G31G32
  -3942254.97347  -3063278.72745  22476949.6414                   22476947.1524
  -2535126.47747  -1970933.60944  22733824.7974                   22733822.7774
  -3826826.52047  -2969548.09044  22747828.8914                   22747825.4574
    838681.59848    648249.72346  20213464.6484                   20213460.8554
   2870187.09848   2223207.39846  21307677.7114                   21307674.1844
  -2825226.87948  -2196262.17646  21025718.3134                   21025712.9344
   5019384.96946   3891729.44143  24366700.1724                   24366698.0204
   4568610.60547   3540174.05146  21840209.2344                   21840207.3094
 11  8 20 14  5  0.0000000  0  8G03G06G13G16G20G23G31G32
  -3978493.28147  -3091516.35545  22470053.5634                   22470051.4224
  -2543755.22347  -1977657.28544  22732181.6954                   22732180.4694
  -3864913.96147  -2999226.61744  22740580.8754                   22740577.8594
    898488.60248    694852.57046  20224845.1024                   20224841.8524
   2962508.71148   2295146.28146  21325245.8594                   21325242.2114
  -2840921.23048  -2208491.54346  21022731.7424                   21022726.2114
   5131846.27746   3979361.56343  24388101.2504                   24388098.7274
   4686474.55948   3632016.04745  21862638.5084                   21862635.7344
 11  8 20 14  5 30.0000000  0  8G03G06G13G16G20G23G31G32
  -4014524.81647  -3119592.87144  22463197.2814                   22463194.3874
  -2552071.82047  -1984137.72745  22730599.6334                   22730597.8794
  -3902958.20347  -3028871.46944  22733341.2974                   22733338.4494
    958880.77748    741911.40646  20236337.9144                   20236333.7934
   3055309.39148   2367458.46946  21342905.1484                   21342901.8874
  -2856386.87148  -2220542.69546  21019788.4774                   21019783.4104
   5244245.18446   4066945.03943  24409489.4454                   24409487.2664
   4804682.25048   3724125.90245  21885132.4224                   21885130.1564
 11  8 20 14  6  0.0000000  0  8G03G06G13G16G20G23G31G32
  -4050341.28947  -3147501.80545  22456381.3524                   22456379.1374
  -2560068.79747  -1990369.14545  22729078.0864                   22729076.5354
  -3940952.75847  -3058477.60244  22726111.1954                   22726107.8874
   1019861.42248    789428.78147  20247941.4694                   20247937.6054
   3148591.79748   2440146.01646  21360656.4304                   21360653.0354
  -2871616.76248  -2232410.14146  21016890.4774                   21016885.0594
   5356586.28146   4154483.52743  24430867.5634                   24430865.8484
   4923235.77348   3816505.21945  21907692.7034                   21907689.7814
 11  8 20 14  6 30.0000000  0  8G03G06G13G16G20G23G31G32
  -4085945.66047  -3175245.47745  22449605.8054                   22449603.7234
  -2567749.18447  -1996353.85244  22727616.1174                   22727614.6214
  -3978901.84847  -3088048.29344  22718889.7974                   22718886.3714
   1081423.48848    837399.21546  20259656.8444                   20259652.9104
   3242347.77348   2513202.58646  21378497.4694                   21378493.8094
  -2886614.67248  -2244096.83246  21014036.4384                   21014031.2774
   5468863.95346   4241972.52743  24452233.2894                   24452231.3834
   5042126.98048   3909147.67245  21930316.7584                   21930314.5784
 11  8 20 14  7  0.0000000  0  8G03G06G13G16G20G23G31G32
  -4121328.58247  -3202816.57044  22442872.6254                   22442870.5864
  -2575104.25447  -2002085.04744  22726216.6884                   22726215.0204
  -4016797.71947  -3117577.53944  22711678.3054                   22711675.0784
   1143571.65247    885826.35246  20271483.2504                   20271479.2974
   3336581.23048   2586631.22746  21396429.4144                   21396426.1684
  -2901372.12148  -2255596.13346  21011228.4694                   21011223.0594
   5581084.10546   4329416.71143  24473588.2894                   24473585.9694
   5161359.41848   4002056.02045  21953005.9694                   21953003.7384
 11  8 20 14  7 30.0000000  0  8G03G06G13G16G20G23G31G32
  -4156485.82047  -3230211.81645  22436182.7344                   22436181.0314
  -2582130.16847  -2007559.75444  22724880.0474                   22724877.6334
  -4054637.51647  -3147063.08244  22704477.4774                   22704474.2114
   1206305.83648    934710.12946  20283421.1564                   20283416.9694
   3431290.78948   2660430.84846  21414451.9304                   21414448.8874
  -2915885.98448  -2266905.64146  21008466.4064                   21008461.1804
   5693247.88746   4416816.96943  24494932.4384                   24494930.8364
   5280931.79348   4095229.25445  21975760.1334                   21975757.2854
 11  8 20 14  8  0.0000000  0  8G03G06G13G16G20G23G31G32
  -4191417.38347  -3257431.18445  22429535.1804                   22429533.9104
  -2588827.80947  -2012778.69144  22723605.3204                   22723603.2384
  -4092423.02947  -3176506.32844  22697287.2194                   22697284.1524
   1269620.96948    984046.59046  20295469.5864                   20295465.5434
   3526471.12148   2734597.30546  21432564.5084                   21432560.9144
  -2930157.23848  -2278026.10246  21005750.6254                   21005745.4304
   5805351.93946   4504170.69243  24516264.4534                   24516262.4654
   5400838.27348   4188662.84445  21998577.1024                   21998575.1334
 11  8 20 14  8 30.0000000  0  9G03G06G13G16G20G23G31G32G19
  -4226112.35947  -3284466.25045  22422933.2584                   22422931.7624
  -2595186.72347  -2017733.68444  22722395.3444                   22722393.1414
  -4130144.61347  -3205899.75844  22690109.0164                   22690105.9614
   1333523.34048   1033840.63346  20307629.7344                   20307626.0314
   3622127.61748   2809134.79746  21450767.3284                   21450764.0664
  -2944176.26248  -2288950.02346  21003082.9224                   21003077.3984
   5917403.89146   4591483.80544  24537588.5314                   24537586.0274
   5521084.09048   4282360.83245  22021459.3834                   22021457.0394
  -1627542.20556  -1265374.63354  24645059.9534                   24645057.5434
 11  8 20 14  9  0.0000000  0 10G03G06G13G16G20G23G31G32G19G07
  -4260581.89847  -3311325.62145  22416373.5394                   22416371.9144
  -2601218.44547  -2022433.71144  22721247.2424                   22721245.5904
  -4167815.10547  -3235253.38744  22682940.4534                   22682937.9024
   1397997.50448   1084080.23846  20319898.4064                   20319894.7234
   3718243.82448   2884030.52046  21469057.3594                   21469054.2774
  -2957954.80148  -2299686.54746  21000461.1414                   21000455.1024
   6029389.70347   4678745.41844  24558898.1484                   24558896.9414
   5641652.39548   4376310.11745  22044402.6094                   22044400.0824
  -1669594.87946  -1298142.90643  24637057.9454                   24637054.7584
  -1594777.60256  -1239573.72353  24893352.2974                   24893351.5124
 11  8 20 14  9 30.0000000  0 10G03G06G13G16G20G23G31G32G19G07
  -4294811.82447  -3337998.27345  22409859.8134                   22409857.8554
  -2606909.43747  -2026868.23044  22720164.7974                   22720162.8634
  -4205421.63747  -3264557.16844  22675784.2424                   22675781.1684
   1463053.29348   1134773.04746  20332278.6094                   20332274.8754
   3814828.28948   2959291.10546  21487437.0944                   21487433.7504
  -2971479.86348  -2310225.55946  20997887.1564                   20997882.1484
   6141320.35246   4765964.00844  24580198.4454                   24580196.8554
   5762551.90248   4470517.48045  22067409.0164                   22067407.1484
  -1711767.42646  -1331004.60244  24629032.5474                   24629029.8324
  -1610026.12546  -1251455.63743  24890450.7894                   24890449.3794
 11  8 20 14 10  0.0000000  0 10G03G06G13G16G20G23G31G32G19G07
  -4328809.01647  -3364489.59445  22403390.2894                   22403389.3244
  -2612267.25847  -2031043.13745  22719145.2114                   22719143.2304
  -4242972.72747  -3293817.74644  22668638.2734                   22668635.4734
   1528678.49648   1185909.55946  20344766.3284                   20344762.6764
   3911868.06648   3034906.48846  21505903.2584                   21505900.2504
  -2984759.29748  -2320573.17646  20995360.2504                   20995355.1334
   6253185.46946   4853131.52044  24601485.2034                   24601483.5274
   5883769.53148   4564972.72745  22090476.3444                   22090474.0204
  -1754067.62146  -1363965.78543  24620983.2114                   24620980.2584
  -1625207.20746  -1263285.00843  24887561.1644                   24887560.3524
 11  8 20 14 10 30.0000000  0 10G03G06G13G16G20G23G31G32G19G07
  -4362572.22747  -3390798.58645  22396966.0004                   22396963.6844
  -2617291.02347  -2034957.75044  22718188.8834                   22718186.7234
  -4280468.28147  -3323035.06644  22661503.1564                   22661500.4304
   1594870.36748   1237487.62546  20357362.5314                   20357358.5354
   4009359.59848   3110873.88346  21524455.0004                   21524452.0234
  -2997792.52048  -2330728.94546  20992880.1174                   20992874.4024
   6364983.64846   4940246.89844  24622759.9844                   24622758.0704
   6005301.44548   4659672.88745  22113603.3524                   22113601.0474
  -1796494.33646  -1397025.52343  24612909.5314                   24612906.5744
  -1640323.05146  -1275063.55944  24884685.7974                   24884684.5124
 11  8 20 14 11  0.0000000  0 10G03G06G13G16G20G23G31G32G19G07
  -4396091.47747  -3416917.48045  22390587.1884                   22390585.6604
  -2621971.57847  -2038604.94945  22717298.0314                   22717296.3754
  -4317900.02347  -3352202.63744  22654379.9614                   22654377.4774
   1661633.43848   1289510.78546  20370067.1254                   20370063.0904
   4107306.96148   3187196.46146  21543094.0634                   21543090.9184
  -3010570.84848  -2340686.08646  20990448.6024                   20990443.1134
   6476721.20746   5027315.06644  24644022.5784                   24644020.9964
   6127151.49248   4754620.93045  22136789.9144                   22136787.8984
  -1839038.61746  -1430176.93743  24604814.1484                   24604810.9414
  -1655368.09047  -1286786.94544  24881822.5314                   24881821.5434
 11  8 20 14 11 30.0000000  0 10G03G06G13G16G20G23G31G32G19G07
  -4429372.88747  -3442851.01245  22384253.6024                   22384252.3874
  -2626315.64847  -2041989.91844  22716471.4774                   22716469.7774
  -4355275.39147  -3381326.29745  22647268.0864                   22647264.8674
   1728956.77348   1341970.51646  20382878.3914                   20382874.1564
   4205698.67248   3263865.30146  21561817.0784                   21561814.1484
  -3023101.35548  -2350450.11346  20988063.8754                   20988058.4614
   6588389.06646   5114328.92644  24665272.8284                   24665271.2384
   6249307.76248   4849807.59445  22160036.0004                   22160033.9414
  -1881707.24246  -1463425.18743  24596694.1884                   24596691.2664
  -1670352.03946  -1298462.69943  24878971.3674                   24878969.9614
 11  8 20 14 12  0.0000000  0 10G03G06G13G16G20G23G31G32G19G07
  -4462394.46947  -3468582.11345  22377970.0164                   22377968.5314
  -2630301.71547  -2045095.93445  22715712.9844                   22715711.0634
  -4392573.88347  -3410390.03944  22640170.5944                   22640167.1914
   1796857.98448   1394880.54746  20395799.3134                   20395795.4774
   4304551.13748   3340893.15246  21580628.3674                   21580624.9414
  -3035362.64848  -2360004.37946  20985730.7344                   20985725.3244
   6700006.35546   5201303.34844  24686512.7894                   24686511.5204
   6371786.68448   4945245.67245  22183342.7274                   22183341.1684
  -1924478.57846  -1496753.50843  24588554.7974                   24588551.9534
  -1685256.43446  -1310076.49243  24876135.0554                   24876133.6954
 11  8 20 14 12 30.0000000  0 10G03G06G13G16G20G23G31G32G19G07
  -4495161.39147  -3494114.77045  22371734.9144                   22371733.1414
  -2633935.54747  -2047927.46545  22715021.3134                   22715019.5314
  -4429802.08247  -3439399.01644  22633086.0634                   22633083.6024
   1865327.43048   1448233.34046  20408828.8834                   20408824.7934
   4403853.48848   3418271.57446  21599524.9924                   21599521.8404
  -3047361.06648  -2369353.80146  20983447.5634                   20983442.3634
   6811564.45746   5288231.67644  24707741.4454                   24707739.8094
   6494577.29348   5040926.62945  22206709.1884                   22206707.2814
  -1967358.50446  -1530166.44543  24580394.6954                   24580391.6254
  -1700090.44946  -1321635.43043  24873311.8674                   24873310.8444
 11  8 20 14 13  0.0000000  0 10G03G06G13G16G20G23G31G32G19G07
  -6103089.54747  -4747045.78545  22065756.0234                   22065754.2234
  -4212632.61747  -3278081.04345  22414605.3204                   22414603.4344
  -6042377.52747  -4695951.28944  22326223.2504                   22326220.6214
    358947.41848    274430.73046  20122174.3134                   20122170.4694
   2928188.64848   2268402.83246  21318715.4694                   21318712.2974
  -4634512.97348  -3606095.55546  20681422.7034                   20681417.5514
   5347649.36346   4147518.51244  24429167.7194                   24429166.0824
   5042263.28548   3909253.31645  21930343.3834                   21930341.1484
  -3585763.76646  -2791261.51543  24272422.7344                   24272419.8054
  -3290272.91046  -2560738.65243  24570710.6564                   24570709.1724
 11  8 20 14 13 30.0000000  0 10G03G06G13G16G20G23G31G32G19G07
  -6135335.25847  -4772172.30945  22059619.6174                   22059618.1524
  -4215551.92247  -3280355.80145  22414049.8444                   22414047.9304
  -6079457.28147  -4724844.60544  22319166.8134                   22319163.9144
    428550.18448    328666.64846  20135418.9844                   20135415.1254
   3028385.81348   2346478.50846  21337781.9844                   21337779.1484
  -4645976.72348  -3615028.35246  20679241.0084                   20679235.6454
   5459091.94147   4234356.81344  24450374.6414                   24450372.9614
   5165672.05148   4005415.95345  21953826.9844                   21953824.8674
  -3628850.93046  -2824835.91843  24264223.1954                   24264220.7234
  -3304965.14146  -2572187.12543  24567914.9534                   24567913.3984
 11  8 20 14 14  0.0000000  0 10G03G06G13G16G20G23G31G32G19G07
  -6167312.60547  -4797089.70745  22053534.9304                   22053532.9574
  -4218107.27747  -3282346.99245  22413563.6024                   22413561.3244
  -6116457.41047  -4753675.84044  22312125.8054                   22312122.8484
    498720.08248    383344.48046  20148772.2034                   20148768.0354
   3129029.66848   2424902.26646  21356934.0004                   21356930.5394
  -4657166.70748  -3623747.82846  20677111.6804                   20677106.4384
   5570479.94547   4321152.58244  24471570.9774                   24471569.5864
   5289388.89548   4101818.64845  21977369.6884                   21977367.4304
  -3672034.81646  -2858485.77743  24256006.0944                   24256003.3134
  -3319584.70346  -2583578.98843  24565133.0314                   24565131.0944
 11  8 20 14 14 30.0000000  0 10G03G06G13G16G20G23G31G32G19G07
  -6199019.03947  -4821796.01245  22047501.2814                   22047499.2234
  -4220296.67647  -3284053.02745  22413147.0164                   22413145.2664
  -6153376.28147  -4782443.79344  22305100.7344                   22305097.3484
    569454.87948    438462.48846  20162232.3984                   20162228.4884
   3230117.08248   2503671.65646  21376170.6174                   21376167.3714
  -4668081.40648  -3632252.79746  20675034.8444                   20675029.5704
   5681812.78546   4407905.35243  24492757.9844                   24492755.0044
   5413410.74648   4198459.01645  22000970.1094                   22000968.2114
  -3715313.28946  -2892209.28943  24247770.5704                   24247767.3634
  -3334132.62546  -2594915.05543  24562363.1254                   24562362.4494
 11  8 20 14 15  0.0000000  0 10G03G06G13G16G20G23G31G32G19G07
  -6230453.89547  -4846290.67645  22041519.3914                   22041517.4024
  -4222120.04747  -3285473.83245  22412799.6024                   22412798.0824
  -6190214.74647  -4811149.06644  22298090.5704                   22298087.8164
    640750.64848    494017.62546  20175799.8594                   20175794.9184
   3331643.22748   2582782.89146  21395490.4614                   21395486.7194
  -4678720.61348  -3640543.09846  20673010.0944                   20673004.5904
   5793087.99246   4494613.23444  24513931.6484                   24513930.3754
   5537732.54748   4295333.10545  22024628.0864                   22024625.8714
  -3758686.24646  -2926006.40243  24239516.9384                   24239513.9924
  -3348611.99246  -2606197.68442  24559609.2034                   24559607.4264
 11  8 20 14 15 30.0000000  0 10G03G06G13G16G20G23G31G32G19G07
  -6261615.52047  -4870572.44145  22035589.5234                   22035587.7344
  -4223576.66847  -3286608.85945  22412522.9384                   22412521.1214
  -6226972.28947  -4839791.29344  22291095.9924                   22291092.3364
    712603.27048    550006.67646  20189472.6174                   20189468.6374
   3433603.79748   2662232.65246  21414893.1254                   21414889.8364
  -4689084.05148  -3648618.50446  20671038.1094                   20671032.5704
   5904304.10546   4581275.03143  24535095.6334                   24535093.6484
   5662349.84848   4392437.44945  22048342.1954                   22048339.8404
  -3802152.85546  -2959876.53543  24231245.5554                   24231242.4344
  -3363025.32045  -2617428.83643  24556865.2734                   24556864.9104
 11  8 20 14 16  0.0000000  0 10G03G06G13G16G20G23G31G32G19G07
  -6292500.56648  -4894638.69145  22029712.2664                   22029710.1914
  -4224663.75847  -3287455.94145  22412315.5234                   22412314.0904
  -6263647.16047  -4868369.10244  22284116.6414                   22284113.0554
    785011.77748    606428.87546  20203251.0394                   20203247.3714
   3535996.59048   2742019.21546  21434377.7664                   21434374.4064
  -4699169.47748  -3656477.28946  20669118.7274                   20669113.4454
   6015461.27746   4667890.92643  24556248.9454                   24556246.9344
   5787260.36748   4489770.27045  22072111.5004                   22072109.2384
  -3845710.48046  -2993817.52744  24222956.9064                   24222954.4844
  -3377372.44946  -2628608.41443  24554135.6094                   24554134.2274
 11  8 20 14 16 30.0000000  0 10G03G06G13G16G20G23G31G32G19G07
  -6323103.09048  -4918484.79745  22023888.9224                   22023886.7504
  -4225376.09447  -3288011.00445  22412180.5084                   22412177.9304
  -6300234.91047  -4896879.02044  22277154.2424                   22277151.0784
    857977.26248    663285.09046  20217136.4534                   20217132.1294
   3638821.83647   2822142.76246  21453944.5784                   21453941.1524
  -4708971.55148  -3664115.27346  20667253.8674                   20667248.4804
   6126562.85546   4754463.50843  24577390.8674                   24577388.6994
   5912464.34448   4587331.77345  22095936.9384                   22095935.1094
  -3889353.25046  -3027824.89144  24214652.9144                   24214648.6564
  -3391651.31646  -2639734.79343  24551418.4144                   24551417.8674
 11  8 20 14 17  0.0000000  0 10G03G06G13G16G20G23G31G32G19G07
  -6353422.71947  -4942110.46945  22018118.6564                   22018117.8834
  -4225713.98447  -3288274.28545  22412115.8204                   22412114.1374
  -6336736.27047  -4925321.62545  22270208.2424                   22270205.9144
    931494.78948    720571.46546  20231126.3754                   20231122.1804
   3742074.14147   2902599.06346  21473592.7274                   21473589.7624
  -4718490.87548  -3671532.93746  20665441.9534                   20665436.8244
   6237605.67646   4840990.34443  24598521.2274                   24598520.1134
   6037956.25448   4685117.62945  22119817.2344                   22119815.1804
  -3933081.66046  -3061898.98844  24206331.1954                   24206328.0944
  -3405865.51246  -2650810.75443  24548713.1724                   24548712.5394
 11  8 20 14 17 30.0000000  0 10G03G06G13G16G20G23G31G32G19G07
  -6383449.95348  -4965508.30545  22012405.1884                   22012403.5434
  -4225668.69947  -3288238.99645  22412124.8524                   22412123.0434
  -6373142.78947  -4953690.35245  22263280.6414                   22263277.5164
   1005569.08248    778291.68446  20245222.3754                   20245217.9804
   3845757.46947   2983391.23046  21493323.2664                   21493319.6524
  -4727718.97348  -3678723.66046  20663686.2344                   20663680.8134
   6348596.54746   4927476.63343  24619642.0944                   24619640.2624
   6163739.83248   4783130.76245  22143753.3594                   22143751.1804
  -3976886.59846  -3096032.68444  24197994.7584                   24197991.8594
  -3420009.37546  -2661831.94543  24546021.7114                   24546020.4964
 11  8 20 14 18  0.0000000  0 10G03G06G13G16G20G23G31G32G19G07
  -6413183.85247  -4988677.55145  22006747.0084                   22006745.0354
  -4225239.93747  -3287904.90645  22412205.8284                   22412203.8594
  -6409454.77347  -4981985.39844  22256370.3444                   22256367.8054
   1080196.02348    836442.53146  20259423.3834                   20259419.2504
   3949866.78148   3064515.34045  21513134.3134                   21513130.9774
  -4736655.73448  -3685687.38346  20661985.4454                   20661980.2114
   6459532.97346   5013920.52043  24640753.2344                   24640750.9924
   6289810.08248   4881367.28145  22167743.6804                   22167742.2234
  -4020767.56246  -3130225.66444  24189644.5944                   24189642.2704
  -3434086.01246  -2672800.77043  24543343.8834                   24543342.5704
 11  8 20 14 18 30.0000000  0 10G03G06G13G16G20G23G31G32G19G07
  -6442626.45747  -5011619.81245  22001144.2504                   22001142.5744
  -4224430.51247  -3287274.18745  22412360.2114                   22412358.2584
  -6445675.89547  -5010209.64545  22249477.8444                   22249474.4574
   1155368.38348    895018.38346  20273728.1024                   20273724.2774
   4054394.19947   3145965.23846  21533025.2274                   21533022.0164
  -4745304.07448  -3692426.34446  20660339.7814                   20660334.3554
   6570410.20746   5100318.28543  24661852.0004                   24661850.9614
   6416159.33648   4979821.20345  22191787.2814                   22191785.1054
  -4064727.11346  -3164479.82043  24181279.2734                   24181275.9614
  -3448100.34846  -2683720.99643  24540676.9844                   24540675.1484
 11  8 20 14 19  0.0000000  0 10G03G06G13G16G20G23G31G32G19G07
  -6471772.30947  -5034330.86345  21995598.0704                   21995596.3484
  -4223235.63347  -3286343.10945  22412587.8364                   22412586.1174
  -6481801.80947  -5038359.69945  22242603.6414                   22242600.2154
   1231086.91448    954019.82846  20288136.4844                   20288132.8914
   4159339.69947   3227740.91446  21552995.6724                   21552992.5704
  -4753659.16048  -3698936.80946  20658749.7504                   20658744.3834
   6681230.79746   5186671.90643  24682941.3444                   24682939.4694
   6542787.09848   5078492.14145  22215883.8914                   22215881.4574
  -4108760.12946  -3198791.21143  24172900.3524                   24172896.6054
  -3462051.06246  -2694591.66843  24538021.8204                   24538020.9344
 11  8 20 14 19 30.0000000  0 10G03G06G13G16G20G23G31G32G19G07
  -6500619.72747  -5056809.35245  21990108.5634                   21990106.3164
  -4221653.93747  -3285110.59845  22412888.3284                   22412886.8674
  -6517831.45747  -5066434.74645  22235746.8754                   22235743.7704
   1307348.69948   1013444.58646  20302648.9614                   20302645.0554
   4264699.62548   3309839.53545  21573045.5784                   21573041.6604
  -4761720.10948  -3705218.07446  20657216.0004                   20657210.5234
   6791993.68446   5272980.55143  24704018.3754                   24704016.6454
   6669689.78948   5177377.30545  22240032.8284                   22240030.6724
  -4152865.28946  -3233158.82844  24164507.7584                   24164503.9804
  -3475940.14846  -2705414.32843  24535378.0864                   24535377.4024
 11  8 20 14 20  0.0000000  0 10G03G06G13G16G20G23G31G32G19G07
  -6529159.46148  -5079048.09445  21984677.3134                   21984675.4224
  -4219677.39547  -3283570.45745  22413264.9064                   22413262.9224
  -6553757.47347  -5094429.03545  22228910.7974                   22228907.8244
   1384157.27748   1073295.42646  20317265.0314                   20317260.9184
   4370476.94147   3392263.37545  21593174.2974                   21593170.8674
  -4769478.98848  -3711263.94946  20655739.6174                   20655734.2194
   6902704.73846   5359248.85943  24725085.9224                   24725084.1254
   6796870.30548   5276478.96145  22264233.8284                   22264231.9144
  -4197033.92646  -3267575.91843  24156102.1564                   24156099.1414
  -3489762.40246  -2716184.93443  24532748.6484                   24532747.5514
 11  8 20 14 20 30.0000000  0 10G03G06G13G16G20G23G31G32G19G07
  -6557394.52747  -5101049.43445  21979304.4454                   21979302.3484
  -4217309.78547  -3281725.53145  22413714.9144                   22413713.5164
  -6589583.88347  -5122345.71945  22222092.7894                   22222089.9104
   1461504.51247   1133565.98046  20331983.5314                   20331979.5274
   4476662.84848   3475005.61345  21613380.3914                   21613377.6254
  -4776939.74648  -3717077.52746  20654319.7664                   20654314.5474
   7013357.84446   5445471.97743  24746142.9534                   24746141.2774
   6924319.84448   5375790.24645  22288486.7114                   22288485.0084
  -4241269.58246  -3302045.17643  24147683.8914                   24147681.4494
  -3503524.55946  -2726908.67643  24530129.6804                   24530128.3484
 11  8 20 14 21  0.0000000  0 10G03G06G13G16G20G23G31G32G19G07
  -6585321.60548  -5122810.78145  21973990.1254                   21973988.5704
  -4214548.61747  -3279573.97345  22414240.5164                   22414238.8014
  -6625308.70347  -5150183.22745  22215294.7424                   22215292.0514
   1539388.69548   1194254.95746  20346804.8204                   20346800.7074
   4583254.69147   3558064.15645  21633664.2034                   21633661.1174
  -4784099.72748  -3722656.72746  20652957.6414                   20652951.8954
   7123953.39146   5531650.28943  24767189.0234                   24767186.9264
   7052035.84447   5475309.15645  22312790.9384                   22312788.0744
  -4285569.35546  -3336564.44143  24139253.7344                   24139251.2464
  -3517227.17646  -2737586.02743  24527522.0084                   24527521.0204
 11  8 20 14 21 30.0000000  0 10G03G06G13G16G20G23G31G32G19G07
  -6612939.96548  -5144331.56645  21968734.7734                   21968732.7424
  -4211393.77047  -3277115.64545  22414841.0554                   22414838.6024
  -6660932.27747  -5177941.84845  22208516.0944                   22208512.7344
   1617805.62148   1255359.03946  20361726.8134                   20361723.2894
   4690247.77747   3641435.35245  21654024.9384                   21654021.1254
  -4790959.08648  -3728001.69146  20651651.9064                   20651646.8244
   7234489.54346   5617782.24643  24788222.9774                   24788220.9964
   7180013.48848   5575031.95345  22337143.9454                   22337141.8324
  -4329932.88746  -3371133.39843  24130812.1644                   24130808.5944
  -3530873.09446  -2748219.25043  24524925.7274                   24524924.6414
 11  8 20 14 22  0.0000000  0 10G03G06G13G16G20G23G31G32G19G07
  -6640232.57848  -5165598.53945  21963541.6414                   21963539.1094
  -4207828.99247  -3274337.87945  22415519.2274                   22415517.1054
  -6696438.53147  -5205609.03545  22201758.6954                   22201756.0904
   1696767.34848   1316887.65246  20376752.8284                   20376749.0204
   4797653.33247   3725127.96545  21674463.2974                   21674459.9694
  -4797501.48848  -3733099.66046  20650406.9534                   20650401.5594
   7344980.06345   5703878.68843  24809249.2894                   24809246.9804
   7308263.92247   5674967.30545  22361549.0084                   22361546.9614
  -4374343.46546  -3405738.94143  24122360.8134                   24122358.0744
  -3544449.33246  -2758798.12943  24522341.4844                   24522340.5234
 11  8 20 14 22 30.0000000  0 10G03G06G13G16G20G23G31G32G19G07
  -6667206.00448  -5186616.77345  21958408.4454                   21958406.1804
  -4203861.60947  -3271246.40645  22416274.3054                   22416272.3134
  -6731835.53147  -5233191.10545  22195023.3754                   22195020.6684
   1776262.12948   1378831.62946  20391879.9224                   20391876.0204
   4905458.86748   3809132.24245  21694978.0314                   21694974.6724
  -4803734.30948  -3737956.41046  20649221.0164                   20649215.1374
   7455415.78145   5789932.41042  24830262.6884                   24830263.4534
   7436774.82847   5775105.62945  22386004.1954                   22386002.3284
  -4418807.85246  -3440386.51643  24113899.3134                   24113896.4844
  -3557965.40446  -2769330.13743  24519770.3284                   24519768.3984
 11  8 20 14 23  0.0000000  0 10G03G06G13G16G20G23G31G32G19G07
  -6693858.07047  -5207384.61745  21953336.7114                   21953334.4804
  -4199490.43747  -3267840.29745  22417106.5314                   22417104.2274
  -6767121.82047  -5260686.89145  22188308.7034                   22188305.7504
   1856286.91048   1441188.59446  20407108.6804                   20407104.2624
   5013660.67647   3893445.30945  21715568.3134                   21715564.6564
  -4809656.46148  -3742571.07446  20648094.0864                   20648088.5864
   7565795.68446   5875942.60542  24851268.4694                   24851267.6054
   7565542.28547   5875443.85245  22410508.0474                   22410505.7544
  -4463324.59846  -3475074.82843  24105428.1094                   24105425.3794
  -3571423.15246  -2779816.68743  24517209.0084                   24517208.1254
 11  8 20 14 23 30.0000000  0 10G03G06G13G16G20G23G31G32G19G07
  -6720185.13748  -5227899.19945  21948326.1094                   21948324.6024
  -4194712.79747  -3264117.44145  22418015.3134                   22418013.8484
  -6802295.42647  -5288094.88745  22181615.4384                   22181612.2344
   1936840.34448   1503957.50446  20422437.2114                   20422433.5664
   5122256.31347   3978065.24245  21736233.2664                   21736229.9614
  -4815265.25848  -3746941.56246  20647026.3914                   20647021.2114
   7676120.35246   5961909.87542  24872262.4614                   24872261.3484
   7694564.09447   5975980.27045  22435059.8834                   22435057.7704
  -4507890.21146  -3509801.27344  24096948.6024                   24096944.3834
  -3584823.08646  -2790258.21343  24514659.2894                   24514657.6844
 11  8 20 14 24  0.0000000  0 10G03G06G13G16G20G23G31G32G19G07
  -6746179.32848  -5248154.41045  21943380.2274                   21943377.4654
  -4189521.32847  -3260072.14545  22419002.7734                   22419001.0944
  -6837349.02347  -5315409.38745  22174945.0234                   22174941.9264
   2017924.48848   1567139.94546  20437867.0704                   20437863.1524
   5231248.18047   4062993.94545  21756973.6024                   21756970.3984
  -4820553.51648  -3751062.29346  20646020.2734                   20646014.8874
   7786394.90246   6047838.05543  24893248.2034                   24893245.7734
   7823842.55548   6076716.68845  22459660.9614                   22459659.5004
  -4552497.19547  -3544559.96544  24088459.7664                   24088456.6484
  -3598160.69146  -2800651.13343  24512121.7974                   24512119.6484
 11  8 20 14 24 30.0000000  0 10G03G06G13G16G20G23G31G32G19G07
  -6771847.30548  -5268155.41445  21938495.7424                   21938493.6094
  -4183923.54747  -3255710.21945  22420068.7114                   22420066.7274
  -6872290.73447  -5342636.68745  22168295.5084                   22168292.6054
   2099528.14148   1630727.19546  20453395.9454                   20453391.6764
   5340623.72347   4148221.59845  21777786.7894                   21777784.1214
  -4825528.73048  -3754939.09046  20645073.6644                   20645068.5354
   7896610.00845   6133719.88342  24914219.9924                   24914219.5314
   7953365.25448   6177643.39845  22484308.2344                   22484306.3874
  -4597152.33247  -3579356.18044  24079962.1564                   24079959.1054
  -3611446.43046  -2811003.64543  24509592.7734                   24509591.9384
 11  8 20 14 25  0.0000000  0 10G03G06G13G16G20G23G31G32G19G07
  -6797177.96547  -5287893.57445  21933675.4384                   21933673.3364
  -4177909.30547  -3251023.80145  22421212.7344                   22421210.6054
  -6907110.60247  -5369769.03945  22161669.5704                   22161667.0044
   2181657.06647   1694723.74646  20469024.5084                   20469020.2114
   5450388.16447   4233752.28946  21798674.5704                   21798671.6524
  -4830180.92648  -3758564.19146  20644188.1174                   20644182.6414
   8006773.42645   6219561.52342  24935182.8134                   24935183.3244
   8083137.18848   6278764.34845  22509003.1254                   22509000.7934
  -4641845.30546  -3614181.88343  24071457.5314                   24071454.0234
  -3624673.16046  -2821310.20343  24507075.8284                   24507074.8204
 11  8 20 14 25 30.0000000  0  9G03G06G13G16G20G23G32G19G07
  -6822172.93048  -5307370.15245  21928918.8674                   21928917.1804
  -4171480.92647  -3246014.68445  22422436.2894                   22422434.6414
  -6941810.64547  -5396808.03145  22155066.3364                   22155063.0744
   2264304.44148   1759124.29346  20484751.4304                   20484747.5554
   5560534.10247   4319580.25045  21819634.8204                   21819631.4774
  -4834511.98048  -3761939.03546  20643363.9144                   20643358.7074
   8213151.08647   6380073.82045  22533743.8364                   22533741.8524
  -4686577.40247  -3649038.06644  24062945.3674                   24062941.5784
  -3637846.05546  -2831574.78943  24504569.2664                   24504567.2384
 11  8 20 14 26  0.0000000  0  9G03G06G13G16G20G23G32G19G07
  -6846820.51248  -5326576.02045  21924228.3134                   21924226.6804
  -4164627.71947  -3240674.51245  22423740.4534                   22423738.2034
  -6976381.03147  -5423745.98445  22148487.8204                   22148484.7774
   2347476.90247   1823933.98046  20500578.7034                   20500575.0554
   5671067.19947   4405709.89845  21840668.6254                   21840665.0784
  -4838511.43048  -3765055.49246  20642603.0084                   20642597.5664
   8343412.98447   6481576.55145  22558531.9774                   22558529.7624
  -4731337.50846  -3683916.08244  24054426.9774                   24054424.1334
  -3650956.86346  -2841791.05143  24502074.9384                   24502072.6994
 11  8 20 14 26 30.0000000  0  9G03G06G13G16G20G23G32G19G07
  -6871127.27047  -5345516.33645  21919603.3594                   21919601.0044
  -4157356.85247  -3235008.88345  22425123.8594                   22425121.8054
  -7010828.75447  -5450588.36345  22141932.6484                   22141929.4384
   2431162.39847   1889143.44546  20516503.6724                   20516499.6994
   5781975.27747   4492131.73845  21861773.7894                   21861770.7074
  -4842186.49248  -3767919.19546  20641903.7664                   20641898.3054
   8473910.34847   6583262.77045  22583365.0234                   22583363.0354
  -4776132.60546  -3718821.36744  24045903.2424                   24045900.4694
  -3664016.07846  -2851967.01643  24499588.8984                   24499587.7664
 11  8 20 14 27  0.0000000  0  9G03G06G13G16G20G23G32G19G07
  -6895081.94547  -5364182.28945  21915044.9454                   21915042.7584
  -4149658.18447  -3229009.91445  22426589.2504                   22426587.5664
  -7045143.43747  -5477327.07445  22135402.3284                   22135399.7034
   2515367.37548   1954757.70746  20532527.0704                   20532523.6564
   5893263.72347   4578849.96545  21882951.1414                   21882948.2894
  -4845526.09048  -3770521.48046  20641268.4844                   20641262.8874
   8604648.66447   6685136.71545  22608243.3364                   22608241.4694
  -4820951.13746  -3753744.88343  24037374.7274                   24037371.3634
  -3677015.94546  -2862096.76643  24497115.8204                   24497113.8014
 11  8 20 14 27 30.0000000  0  9G03G06G13G16G20G23G32G19G07
  -6918680.33648  -5382570.60245  21910553.7894                   21910551.6054
  -4141528.48447  -3222675.09045  22428136.2034                   22428133.8524
  -7079322.44147  -5503960.06645  22128898.4534                   22128895.2584
   2600090.12548   2020775.41446  20548649.8444                   20548645.5474
   6004930.42648   4665862.93845  21904200.5234                   21904197.6764
  -4848527.89148  -3772860.55946  20640696.8984                   20640691.1254
   8735626.06347   6787196.97345  22633167.7194                   22633165.3054
  -4865789.64846  -3788683.96144  24028842.2274                   24028838.8984
  -3689956.54346  -2872180.33243  24494653.0394                   24494651.8594
 11  8 20 14 28  0.0000000  0  9G03G06G13G16G20G23G32G19G07
  -6941914.96148  -5400675.46545  21906132.5004                   21906130.1994
  -4132960.89547  -3215999.02045  22429766.1414                   22429764.1254
  -7113358.75047  -5530481.86345  22122421.3594                   22122418.6414
   2685333.37148   2087198.71946  20564870.9844                   20564866.7664
   6116977.70347   4753172.45745  21925522.4534                   21925519.2664
  -4851184.94548  -3774930.99246  20640191.2664                   20640186.0314
   8866844.56347   6889445.10545  22658138.1094                   22658135.9414
  -4910640.83646  -3823632.93044  24020307.4064                   24020303.7814
  -3702833.51246  -2882214.30943  24492202.4454                   24492201.6724
 11  8 20 14 28 30.0000000  0  9G03G06G13G16G20G23G32G19G07
  -6964792.43448  -5418502.05545  21901779.4844                   21901776.6524
  -4123963.29347  -3208987.90245  22431478.1804                   22431476.6334
  -7147260.44147  -5556898.75045  22115970.3754                   22115967.2304
   2771085.11748   2154018.24646  20581188.8984                   20581184.6374
   6229392.52347   4840768.38745  21946914.1024                   21946911.2344
  -4853504.52048  -3776738.45746  20639749.7424                   20639744.3404
   8998291.46947   6991871.21145  22683151.3054                   22683149.4414
  -4955511.44946  -3858597.03944  24011768.1414                   24011765.6054
  -3715657.38746  -2892206.87943  24489761.0314                   24489760.7934
 11  8 20 14 29  0.0000000  0  9G03G06G13G16G20G23G32G19G07
  -6987312.37948  -5436050.02745  21897493.5474                   21897491.8954
  -4114535.76247  -3201641.75845  22433272.5394                   22433270.3014
  -7181027.60247  -5583210.82045  22109545.0704                   22109541.4884
   2857340.65248   2221230.34846  20597602.9774                   20597599.0234
   6342169.71147   4928646.68045  21968375.3364                   21968372.0084
  -4855487.06248  -3778283.29746  20639372.6724                   20639367.2774
   9129961.69947   7094471.33245  22708207.7504                   22708205.9304
  -5000400.88346  -3893575.81244  24003226.3204                   24003223.5394
  -3728430.87946  -2902160.23443  24487330.8914                   24487330.2114
 11  8 20 14 29 30.0000000  0  9G03G06G13G16G20G23G32G19G07
  -8584890.79748  -6680916.30545  21593484.2894                   21593482.6134
  -5680094.32447  -4421557.48045  22135356.8444                   22135354.3524
  -8790077.68447  -6837016.06245  21803353.0164                   21803349.6724
   1368682.17648   1061236.71546  20314320.3834                   20314316.6994
   4879891.91047   3789209.39145  21690112.8054                   21690109.8594
  -6432548.43448  -5007162.28546  20339267.6804                   20339262.3874
   7686438.44947   5969647.97345  22433513.6484                   22433512.0044
  -6620726.23046  -5156166.98844  23694888.5864                   23694885.6884
  -5316573.87546  -4139674.24243  24185117.1174                   24185116.8284
 11  8 20 14 30  0.0000000  0  9G03G06G13G16G20G23G32G19G07
  -8606680.44147  -6697895.23045  21589337.9224                   21589335.6844
  -5669794.73447  -4413531.80145  22137316.7734                   22137314.9384
  -8823563.43747  -6863108.84045  21796981.0554                   21796977.4104
   1455944.84048   1129233.59046  20330925.8284                   20330921.8954
   4993391.25847   3877650.41845  21711711.1954                   21711708.0944
  -6433843.55948  -5008171.47746  20339021.3754                   20339015.8874
   7818553.00847   6072594.32845  22458654.5944                   22458652.5784
  -6665639.14546  -5191164.06244  23686341.8984                   23686338.5474
  -5329243.19946  -4149546.37144  24182707.1644                   24182705.3834
 11  8 20 14 30 30.0000000  0  9G03G06G13G16G20G23G32G19G07
  -8628103.77048  -6714588.71145  21585261.2194                   21585259.0784
  -5659059.48847  -4405166.64545  22139359.5784                   22139357.5274
  -8856908.91047  -6889092.30545  21790635.1334                   21790632.1414
   1543703.75048   1197617.14846  20347626.1414                   20347622.1884
   5107244.10248   3966366.87945  21733376.8204                   21733373.5514
  -6434795.09848  -5008912.93446  20338840.4064                   20338834.8594
   7950881.96547   6175707.75845  22483835.7424                   22483833.7704
  -6710562.78946  -5226169.48444  23677793.6094                   23677790.6804
  -5341864.64546  -4159381.22344  24180305.3204                   24180303.7544
 11  8 20 14 31  0.0000000  0  9G03G06G13G16G20G23G32G19G07
  -8649147.52047  -6730986.41045  21581256.8444                   21581254.8834
  -5647876.49647  -4396452.59445  22141487.3674                   22141485.2034
  -8890101.89147  -6914956.94545  21784318.6644                   21784315.2774
   1631966.83648   1266393.57046  20364421.7584                   20364418.0864
   5221457.44947   4055364.26245  21755110.8524                   21755107.5044
  -6435390.87948  -5009377.17646  20338726.6884                   20338721.7384
   8083432.81647   6278994.07845  22509059.6414                   22509057.9264
  -6755484.26646  -5261173.23444  23669245.4224                   23669241.9104
  -5354428.87846  -4169171.50644  24177914.1334                   24177913.1334
 11  8 20 14 31 30.0000000  0  9G03G06G13G16G20G23G32G19G07
  -8669815.24648  -6747091.10945  21577324.2034                   21577322.5084
  -5636249.83247  -4387392.82445  22143699.5084                   22143697.4224
  -8923146.22747  -6940705.76645  21778030.8914                   21778027.6334
   1720725.85248   1335556.43046  20381312.0084                   20381308.1174
   5336022.27347   4144635.51245  21776911.8594                   21776908.7304
  -6435634.81348  -5009567.26246  20338680.5394                   20338675.2584
   8216196.54747   6382446.27345  22534323.7894                   22534322.0164
  -6800407.04746  -5296177.98044  23660696.9064                   23660692.7584
  -5366942.90247  -4178922.64544  24175533.1334                   24175531.6684
 11  8 20 14 32  0.0000000  0  9G03G06G13G16G20G23G32G19G07
  -8690113.01247  -6762907.53545  21573461.3134                   21573459.2154
  -5624186.33647  -4377992.66045  22145995.1564                   22145993.5434
  -8956048.98847  -6966344.26645  21771769.4924                   21771766.2034
   1809969.50848   1405096.93046  20398294.4064                   20398290.7234
   5450926.69947   4234171.41045  21798777.8054                   21798773.8284
  -6435533.71148  -5009488.48046  20338699.8364                   20338694.3914
   8349161.24647   6486055.06345  22559626.1564                   22559624.2544
  -6845336.78946  -5331188.16044  23652146.5314                   23652143.1454
  -5379415.89547  -4188641.84844  24173159.5554                   24173158.2304
 11  8 20 14 32 30.0000000  0  9G03G06G13G16G20G23G32G19G07
  -8710029.71548  -6778427.02045  21569671.7344                   21569668.9964
  -5611676.26647  -4368244.52745  22148375.3914                   22148373.7544
  -8988800.01647  -6991864.53545  21765537.2424                   21765534.1334
   1899703.57848   1475019.57446  20415370.5164                   20415366.4344
   5566175.73047   4323975.81645  21820708.7814                   21820705.5664
  -6435077.29748  -5009132.83246  20338787.0004                   20338781.1914
   8482332.30147   6589824.67645  22584968.1724                   22584966.1724
  -6890262.93846  -5366195.51644  23643597.3754                   23643594.1684
  -5391840.89547  -4198323.61343  24170795.7504                   24170793.8244
 11  8 20 14 33  0.0000000  0  9G03G06G13G16G20G23G32G19G07
  -8729564.34847  -6793648.78545  21565954.0704                   21565951.5664
  -5598719.60247  -4358148.41445  22150841.6884                   22150839.3794
  -9021399.28547  -7017266.56245  21759333.8284                   21759330.3444
   1989923.28948   1545320.63346  20432538.7424                   20432535.1334
   5681764.27047   4414044.77745  21842704.2664                   21842700.9024
  -6434265.30148  -5008500.10546  20338940.9534                   20338935.8364
   8615704.75047   6693751.19945  22610347.7274                   22610346.3794
  -6935184.64147  -5401199.41844  23635049.0864                   23635045.2074
  -5404220.50846  -4207970.10244  24168438.9774                   24168437.4694
 11  8 20 14 33 30.0000000  0  9G03G06G13G16G20G23G32G19G07
  -8748713.21147  -6808569.96545  21562310.0004                   21562308.1994
  -5585313.51647  -4347702.11745  22153392.2894                   22153390.5004
  -9053843.73447  -7042547.94545  21753159.8364                   21753156.2814
   2080627.19548   1615999.00446  20449798.9144                   20449795.2194
   5797690.53548   4504376.89545  21864764.4454                   21864761.2154
  -6433094.75048  -5007587.99246  20339163.9304                   20339158.5204
   8749276.58647   6797833.10245  22635765.7114                   22635763.9734
  -6980098.02046  -5436196.82444  23626502.6414                   23626499.4454
  -5416554.53947  -4217581.01243  24166091.9224                   24166090.0354
 11  8 20 14 34  0.0000000  0  9G03G06G13G16G20G23G32G19G07
  -8767471.10247  -6823186.46145  21558740.4304                   21558738.4614
  -5571454.00047  -4336902.46945  22156029.6954                   22156027.8954
  -9086128.76647  -7067705.10945  21747016.3054                   21747012.7074
   2171815.11748   1687054.51646  20467151.6174                   20467147.3244
   5913953.68047   4594971.52045  21886888.4064                   21886885.6764
  -6431561.25048  -5006393.05946  20339455.5554                   20339450.4884
   8883047.16847   6902069.86745  22661221.2664                   22661220.1174
  -7024997.97346  -5471183.80144  23617958.4224                   23617954.7384
  -5428841.19146  -4227155.08643  24163754.0864                   24163751.8634
 11  8 20 14 34 30.0000000  0  9G03G06G13G16G20G23G32G19G07
  -8785837.46548  -6837497.89145  21555245.6024                   21555243.7854
  -5557141.34447  -4325749.72745  22158753.5784                   22158751.5944
  -9118254.65648  -7092738.27345  21740902.9144                   21740899.5004
   2263482.34848   1758483.51646  20484595.1564                   20484591.4454
   6030548.56247   4685824.64545  21909075.7734                   21909072.9614
  -6429665.14148  -5004915.57446  20339816.8284                   20339811.4614
   9017011.53947   7006457.64145  22686714.5394                   22686712.3134
  -7069883.46946  -5506159.50044  23609416.8524                   23609413.2734
  -5441083.47346  -4236694.52343  24161423.9774                   24161422.2854
 11  8 20 14 35  0.0000000  0  9G03G06G13G16G20G23G32G19G07
  -8803806.44947  -6851499.67645  21551825.9224                   21551824.5704
  -5542370.54747  -4314240.00045  22161564.0554                   22161562.0634
  -9150216.45348  -7117643.56245  21734820.6094                   21734817.5314
   2355629.48848   1830286.47746  20502130.1334                   20502126.4454
   6147474.95348   4776936.09045  21931326.2664                   21931323.0904
  -6427401.02748  -5003151.33246  20340247.4064                   20340242.0164
   9151169.80947   7110996.51645  22712243.7974                   22712241.7034
  -7114749.29746  -5541119.85244  23600878.6174                   23600875.9884
  -5453279.17246  -4246197.69543  24159103.7194                   24159101.3244
 11  8 20 14 35 30.0000000  0  9G03G06G13G16G20G23G32G19G07
  -8821382.56247  -6865195.30945  21548481.7424                   21548480.0474
  -5527147.41447  -4302377.79345  22164461.1564                   22164458.8674
  -9182019.21548  -7142424.93045  21728768.5554                   21728765.5234
   2448246.54748   1902455.59846  20519754.7194                   20519750.6054
   6264722.55947   4868297.82045  21953638.0634                   21953634.8094
  -6424774.17648  -5001104.44146  20340747.4304                   20340742.4654
   9285511.61747   7215678.37944  22737808.0394                   22737806.3524
  -7159599.82046  -5576068.28944  23592344.0314                   23592341.3634
  -5465436.40246  -4255670.85243  24156790.4844                   24156788.3164
 11  8 20 14 36  0.0000000  0  9G03G06G13G16G20G23G32G19G07
  -8838554.10547  -6878575.70345  21545213.8444                   21545212.1054
  -5511461.02047  -4290154.60545  22167445.3754                   22167444.2734
  -9213651.52748  -7167073.48445  21722749.2734                   21722746.2504
   2541340.14548   1974996.04746  20537469.8134                   20537465.8984
   6382297.43448   4959914.58245  21976011.7114                   21976008.7774
  -6421773.68048  -4998766.39146  20341318.4534                   20341312.9104
   9420043.12147   7320508.07844  22763408.1484                   22763406.7704
  -7204422.59446  -5610995.08644  23583813.3914                   23583811.4574
  -5477546.69546  -4265107.43243  24154484.8834                   24154484.0434
 11  8 20 14 36 30.0000000  0  9G03G06G13G16G20G23G32G19G07
  -8855319.16047  -6891639.36745  21542024.0234                   21542021.8054
  -5495310.59047  -4277569.85545  22170519.4454                   22170517.0594
  -9245112.62148  -7191588.62145  21716762.5634                   21716759.2974
   2634906.70748   2047905.04346  20555274.7894                   20555270.9924
   6500195.43448   5051783.12145  21998446.4694                   21998443.7424
  -6418398.14848  -4996136.10246  20341960.6414                   20341955.4534
   9554760.43847   7425482.55545  22789044.3204                   22789043.0474
  -7249216.27746  -5645899.22744  23575290.8054                   23575287.2154
  -5489611.77046  -4274508.76843  24152189.9224                   24152188.1914
 11  8 20 14 37  0.0000000  0  9G03G06G13G16G20G23G32G19G07
  -8871678.86847  -6904387.15145  21538910.4534                   21538908.0744
  -5478698.18847  -4264625.09045  22173680.8444                   22173678.7934
  -9276404.15948  -7215971.63145  21710808.1024                   21710804.7464
   2728940.02748   2121177.74246  20573169.3364                   20573165.2934
   6618409.57448   5143897.98445  22020942.1644                   22020939.3834
  -6414649.42148  -4993215.02446  20342674.2894                   20342668.3484
   9689656.82847   7530596.57444  22814714.3984                   22814712.3834
  -7293981.84046  -5680781.44544  23566772.1884                   23566768.4064
  -5501636.27746  -4283878.48843  24149901.7974                   24149900.3014
 11  8 20 14 37 30.0000000  0  9G03G06G13G16G20G23G32G19G07
  -8887623.59447  -6916811.58645  21535875.9454                   21535873.9224
  -5461615.44547  -4251313.85245  22176931.2194                   22176929.5824
  -9307517.45348  -7240215.75445  21704887.3594                   21704884.0314
   2823444.23848   2194817.37946  20591152.5164                   20591148.8444
   6736943.53147   5236262.09445  22043498.5314                   22043495.7854
  -6410518.93448  -4989996.46546  20343460.0864                   20343454.6374
   9824736.12547   7635853.10945  22840419.5864                   22840417.7384
  -7338709.73046  -5715634.32844  23558260.5634                   23558257.5744
  -5513614.45346  -4293212.10544  24147621.6334                   24147620.9224
 11  8 20 14 38  0.0000000  0  9G03G06G13G16G20G23G32G19G07
  -8903161.65647  -6928919.14545  21532919.0784                   21532917.5664
  -5444071.84847  -4237643.50445  22180269.8674                   22180267.5514
  -9338461.65248  -7264328.10245  21698998.9144                   21698994.9964
   2918404.85948   2268812.63746  20609223.2114                   20609219.3984
   6855782.98448   5328864.21945  22066113.2974                   22066109.9224
  -6406015.55948  -4986487.34446  20344316.9614                   20344311.6214
   9959984.04347   7741241.06344  22866156.1174                   22866154.5784
  -7383408.06346  -5750464.18744  23549754.4064                   23549751.5824
  -5525558.01646  -4302518.73444  24145349.0704                   24145348.6644
 11  8 20 14 38 30.0000000  0  9G03G06G13G16G20G23G32G19G07
  -8918279.48047  -6940699.26245  21530042.4064                   21530040.8244
  -5426054.19947  -4223603.75845  22183698.5474                   22183696.4024
  -9369222.84448  -7288297.84845  21693144.6414                   21693142.2854
   3013831.45748   2343171.02346  20627381.9534                   20627378.1054
   6974936.37948   5421710.99645  22088787.3364                   22088784.1564
  -6401125.59448  -4982676.98446  20345247.5084                   20345242.2234
  10095409.37547   7846767.24245  22891926.8754                   22891925.0124
  -7428062.48046  -5785259.83244  23541257.3284                   23541254.2624
  -5537456.16446  -4311790.00044  24143085.9774                   24143083.9264
 11  8 20 14 39  0.0000000  0  9G03G06G13G16G20G23G32G19G07
  -8932971.18047  -6952147.30945  21527246.6174                   21527244.9804
  -5407558.27347  -4209191.32445  22187217.6334                   22187215.9614
  -9399796.63748  -7312121.56245  21687327.1804                   21687324.0204
   3109723.98448   2417892.44946  20645629.5394                   20645625.9494
   7094403.09448   5514801.90245  22111520.7114                   22111518.0944
  -6395844.69148  -4978561.98046  20346252.2814                   20346247.0394
  10231011.59847   7952431.27044  22917730.7424                   22917729.2034
  -7472667.96546  -5820017.30144  23532768.9144                   23532765.6844
  -5549307.04746  -4321024.41044  24140830.5474                   24140828.7734
 11  8 20 14 39 30.0000000  0  9G03G06G13G16G20G23G32G19G07
  -8947241.59848  -6963267.07845  21524531.1094                   21524528.6764
  -5388590.23047  -4194411.02745  22190828.0084                   22190826.0744
  -9430188.15648  -7335803.24645  21681543.7664                   21681541.1604
   3206071.90248   2492968.74246  20663964.0704                   20663960.5274
   7214172.43048   5608128.60945  22134311.9384                   22134309.2974
  -6390178.52748  -4974146.80146  20347330.7274                   20347324.9574
  10366780.09447   8058224.87145  22943566.7344                   22943565.1724
  -7517228.63347  -5854739.85244  23524289.6414                   23524286.2464
  -5561119.04746  -4330228.51644  24138582.0704                   24138581.0944
 11  8 20 14 40  0.0000000  0  9G03G06G13G16G20G23G32G19G07
  -8961083.92647  -6974053.28545  21521896.8834                   21521894.7504
  -5369143.80547  -4179257.94545  22194528.1564                   22194525.3444
  -9460391.13348  -7359338.02745  21675796.3204                   21675793.1484
   3302877.41848   2568401.60246  20682385.7424                   20682381.9224
   7334245.46548   5701691.99645  22157161.3364                   22157158.3554
  -6384120.59048  -4969426.32446  20348483.3914                   20348477.8594
  10502716.54747   8164149.33244  22969434.6724                   22969432.8674
  -7561737.27047  -5889421.89544  23515820.0314                   23515816.5314
  -5572888.24246  -4339399.28944  24136342.6884                   24136341.4104
 11  8 20 14 40 30.0000000  0  9G03G06G13G16G20G23G32G19G07
  -8974497.53548  -6984505.44945  21519344.4454                   21519341.6374
  -5349219.37547  -4163732.38745  22198319.6414                   22198317.5784
  -9490405.27048  -7382725.64845  21670084.7664                   21670082.1884
   3400135.66048   2644187.23046  20700893.3284                   20700889.7774
   7454617.32448   5795488.21145  22180067.3284                   22180064.4734
  -6377670.60948  -4964400.35946  20349710.9454                   20349705.2544
  10638815.96147   8270200.76644  22995333.4534                   22995332.0664
  -7606193.07047  -5924062.72344  23507360.4694                   23507356.9884
  -5584617.56646  -4348538.98444  24134110.2894                   24134109.3364
 11  8 20 14 41  0.0000000  0  9G03G06G13G16G20G23G32G19G07
  -8987478.49647  -6994620.46545  21516874.0944                   21516872.0164
  -5328814.26647  -4147832.29745  22202202.4694                   22202200.5124
  -9520227.14848  -7405963.44945  21664409.7894                   21664406.9534
   3497845.07848   2720324.43046  20719486.9224                   20719483.3444
   7575286.28548   5889515.94945  22203030.0234                   22203027.1724
  -6370825.44148  -4959066.46146  20351013.4144                   20351008.1454
  10775076.60247   8376377.84445  23021263.0864                   23021261.7344
  -7650591.62147  -5958658.96544  23498911.1564                   23498908.3324
  -5596306.59046  -4357647.30144  24131885.9534                   24131884.7544
 11  8 20 14 41 30.0000000  0  9G03G06G13G16G20G23G32G19G07
  -9000028.27748  -7004399.50445  21514486.3284                   21514484.7154
  -5307930.95347  -4131559.59045  22206176.2114                   22206174.3204
  -9549858.81648  -7429053.05145  21658771.1334                   21658768.1524
   3595999.02748   2796808.01246  20738165.0234                   20738161.3754
   7696244.87947   5983769.36345  22226047.6484                   22226045.1644
  -6363587.18448  -4953426.26646  20352390.8674                   20352385.4734
  10911491.50847   8482675.12545  23047222.0864                   23047220.2274
  -7694934.26246  -5993211.63744  23490472.8054                   23490470.0004
  -5607959.92646  -4366727.78944  24129668.6414                   24129667.3914
 11  8 20 14 42  0.0000000  0  9G03G06G13G16G20G23G32G19G07
  -9012139.08647  -7013836.46545  21512181.4844                   21512179.1484
  -5286563.20747  -4114909.38745  22210242.6804                   22210240.5904
  -9579292.96148  -7451988.73845  21653170.0704                   21653167.1054
   3694599.55548   2873639.58246  20756927.8054                   20756924.1884
   7817494.67247   6078249.67645  22249121.0004                   22249117.9924
  -6355948.92248  -4947474.37946  20353844.2424                   20353838.9024
  11048062.48047   8589093.99244  23073210.6254                   23073209.2624
  -7739213.52747  -6027714.91044  23482047.4844                   23482044.0474
  -5619573.62946  -4375777.39844  24127458.5944                   24127456.5474
 11  8 20 14 42 30.0000000  0  9G03G06G13G16G20G23G32G19G07
  -9023806.08647  -7022927.61745  21509960.9844                   21509958.7154
  -5264706.93047  -4097878.52045  22214402.1884                   22214399.7464
  -9608525.15248  -7474767.05545  21647607.1484                   21647604.2384
   3793646.52348   2950819.03146  20775776.0554                   20775772.3634
   7939035.06247   6172956.44545  22272249.0704                   22272245.9804
  -6347906.25448  -4941207.36346  20355374.7814                   20355369.5434
  11184788.93847   8695634.04745  23099228.8444                   23099227.2114
  -7783424.00047  -6062164.58644  23473634.1644                   23473630.7584
  -5631145.82046  -4384794.67243  24125256.4534                   24125254.5394
 11  8 20 14 43  0.0000000  0  9G03G06G13G16G20G23G32G19G07
  -9035029.49247  -7031673.13345  21507825.6334                   21507823.0164
  -5242363.80547  -4080468.29345  22218653.6884                   22218651.3404
  -9637556.39848  -7497388.80145  21642082.6884                   21642080.0864
   3893134.21148   3028341.89546  20794707.7584                   20794703.6844
   8060859.93047   6267884.86745  22295432.0634                   22295428.8204
  -6339460.24648  -4934626.05946  20356981.8754                   20356976.2974
  11321665.07047   8802290.72744  23125275.3674                   23125273.8444
  -7827565.40646  -6096560.44144  23465234.4224                   23465230.3674
  -5642680.43046  -4393782.64143  24123061.0084                   24123059.6334
 11  8 20 14 43 30.0000000  0  9G03G06G13G16G20G23G32G19G07
  -9045810.97747  -7040074.25445  21505773.9454                   21505772.1884
  -5219536.23847  -4062680.57045  22222997.3834                   22222994.9344
  -9666388.31248  -7519855.22345  21636596.2974                   21636593.0204
   3993055.86748   3106202.92246  20813722.3914                   20813718.0704
   8182961.97747   6363029.29345  22318667.1724                   22318664.4304
  -6330612.98048  -4927732.09446  20358665.5474                   20358660.0864
  11458683.90247   8909058.58244  23151349.3134                   23151347.3524
  -7871638.98446  -6130903.44144  23456847.1024                   23456843.6524
  -5654181.94946  -4402744.83243  24120872.1884                   24120870.4224
 11  8 20 14 44  0.0000000  0  9G03G06G13G16G20G23G32G19G07
  -9056143.05948  -7048125.20345  21503807.8674                   21503805.0704
  -5196218.16847  -4044510.62945  22227434.2974                   22227433.0004
  -9695014.04748  -7542160.98445  21631149.0234                   21631145.5664
   4093413.46148   3184403.63346  20832819.7424                   20832815.9964
   8305342.65247   6458390.83645  22341955.7814                   22341952.1804
  -6321357.63348  -4920520.12946  20360426.9304                   20360421.6604
  11595847.00447   9015938.87144  23177450.6954                   23177448.9454
  -7915637.43047  -6165187.93744  23448475.0004                   23448470.5904
  -5665646.78546  -4411678.41843  24118690.9064                   24118689.2464
 11  8 20 14 44 30.0000000  0  9G03G06G13G16G20G23G32G19G07
  -9066028.13748  -7055827.86345  21501927.0084                   21501924.6024
  -5172413.17247  -4025961.27045  22231964.4534                   22231962.2114
  -9723436.36748  -7564308.23845  21625740.2894                   21625737.1024
   4194199.10248   3262937.88746  20851998.6954                   20851995.0824
   8427993.79747   6553963.12145  22365294.5944                   22365291.9804
  -6311697.37548  -4912992.65246  20362265.1724                   20362260.0784
  11733146.61747   9122925.55144  23203578.2194                   23203576.1454
  -7959562.52747  -6199415.23844  23440115.6254                   23440112.3554
  -5677080.44147  -4420587.71144  24116515.4694                   24116513.3204
 11  8 20 14 45  0.0000000  0  9G03G06G13G16G20G23G32G19G07
  -9075458.19148  -7063175.93745  21500132.1334                   21500129.0124
  -5148113.96947  -4007026.79745  22236588.6334                   22236586.5634
  -9751647.54348  -7586290.96945  21620372.2974                   21620368.8794
   4295416.08648   3341808.25046  20871259.6024                   20871255.2814
   8550918.23847   6649748.36745  22388686.4924                   22388683.9454
  -6301624.41848  -4905143.60546  20364181.6094                   20364176.2544
  11870585.39147   9230020.64144  23229731.6644                   23229730.5274
  -8003405.20346  -6233578.35544  23431773.0394                   23431769.9774
  -5688477.66846  -4429468.64544  24114346.1174                   24114344.6884
 11  8 20 14 45 30.0000000  0  9G03G06G13G16G20G23G32G19G07
  -9084428.79748  -7070165.99645  21498425.0784                   21498422.8834
  -5123317.44947  -3987704.82845  22241307.0634                   22241305.2194
  -9779643.41448  -7608105.93045  21615044.5084                   21615041.3754
   4397063.43048   3421013.96546  20890602.3594                   20890598.4804
   8674114.18847   6745745.18045  22412129.8754                   22412127.7894
  -6291134.93448  -4896969.97346  20366178.0314                   20366172.4964
  12008162.37147   9337223.43044  23255912.7424                   23255910.2194
  -8047160.96147  -6267673.73444  23423446.6024                   23423442.4614
  -5699837.69946  -4438320.55144  24112184.2584                   24112182.7384
 11  8 20 14 46  0.0000000  0  9G03G06G13G16G20G23G32G19G07
  -9092940.06648  -7076798.13546  21496805.6334                   21496803.4064
  -5098025.16547  -3967996.53545  22246120.2734                   22246118.3484
  -9807424.66948  -7629753.65445  21609758.1174                   21609754.7384
   4499135.22648   3500550.41446  20910026.4144                   20910022.4104
   8797576.00447   6841949.16445  22435624.2734                   22435621.6524
  -6280230.06848  -4888472.68546  20368253.2734                   20368248.0004
  12145871.50647   9444529.19444  23282117.1334                   23282115.4024
  -8090829.90647  -6301701.45444  23415136.0554                   23415132.9384
  -5711163.88246  -4447146.08944  24110029.1174                   24110028.2074
 11  8 20 14 46 30.0000000  0  9G03G06G13G16G20G23G32G19G07
 -10676415.03148  -8310674.70746  21195480.1564                   21195478.1134
  -6647660.06247  -5175504.23845  21951234.7584                   21951232.0634
 -11410415.17248  -8878837.15645  21304718.5084                   21304715.5824
   3026207.11748   2352814.20346  20629737.3914                   20629733.4064
   7345879.19147   5710756.80145  22159375.7814                   22159372.5744
  -7844332.58648  -6107253.85946  20070614.5944                   20070609.0084
  10708289.45347   8324335.32844  23008554.7734                   23008552.8834
  -9709835.75847  -7563264.43444  23107049.5394                   23107046.4924
  -7297882.52746  -5683550.18044  23808086.4384                   23808085.2154
 11  8 20 14 47  0.0000000  0  9G03G06G13G16G20G23G32G19G07
 -10684001.97348  -8316586.58645  21194036.6094                   21194033.9574
  -6621373.90647  -5155021.50045  21956236.5704                   21956234.4414
 -11437761.90648  -8900146.29745  21299514.8674                   21299511.4884
   3129118.35248   2433004.76646  20649320.4614                   20649316.5594
   7469861.16847   5807366.10945  22182968.4064                   22182965.8714
  -7832592.49248  -6098105.74646  20072848.6334                   20072842.9964
  10846252.84847   8431839.23444  23034808.3204                   23034806.2234
  -9753323.46147  -7597150.92644  23098774.7584                   23098771.3674
  -7309144.97346  -5692326.05944  23805943.1954                   23805941.5514
 11  8 20 14 47 30.0000000  0  9G03G06G13G16G20G23G32G19G07
 -10691122.05148  -8322134.67245  21192681.6884                   21192679.2074
  -6594587.62147  -5134149.05545  21961333.6564                   21961331.5234
 -11464886.94548  -8921282.67645  21294353.2344                   21294349.9184
   3232446.08648   2513519.86746  20668983.0554                   20668979.4224
   7594099.63347   5904175.25845  22206610.3444                   22206607.3164
  -7820430.87148  -6088629.15646  20075163.0164                   20075157.0944
  10984339.98847   8539439.54344  23061084.9384                   23061083.3134
  -9796715.33247  -7630962.76244  23090517.3054                   23090514.1094
  -7320375.19946  -5701076.80543  23803806.0704                   23803804.1374
 11  8 20 14 48  0.0000000  0  9G03G06G13G16G20G23G32G19G07
 -10697770.84448  -8327315.53146  21191416.3984                   21191414.1334
  -6567298.30947  -5112884.64845  21966526.6954                   21966524.6994
 -11491786.49648  -8942243.35545  21289234.3914                   21289230.7074
   3336189.37148   2594358.77346  20688725.1954                   20688721.2584
   7718592.94947   6001183.00045  22230300.3984                   22230298.0904
  -7807844.07048  -6078821.25846  20077557.7274                   20077552.4964
  11122549.51247   8647135.23444  23087385.8834                   23087383.9694
  -9840006.35247  -7664696.00845  23082279.4144                   23082275.4414
  -7331572.51646  -5709801.90243  23801674.3594                   23801673.9414
 11  8 20 14 48 30.0000000  0  9G03G06G13G16G20G23G32G19G07
 -10703945.18748  -8332126.68746  21190241.2194                   21190238.9654
  -6539503.90647  -5091226.66845  21971815.4844                   21971813.2814
 -11518457.35248  -8963025.82845  21284159.1564                   21284155.5594
   3440346.25048   2675519.95746  20708545.2734                   20708541.5904
   7843338.59447   6098387.37145  22254038.8594                   22254036.0554
  -7794829.33248  -6068679.91446  20080034.6564                   20080029.3714
  11260879.53947   8754924.81344  23113708.7034                   23113707.4144
  -9883192.75447  -7698347.73044  23074060.9144                   23074057.7154
  -7342736.87146  -5718501.35943  23799550.9224                   23799549.2464
 11  8 20 14 49  0.0000000  0  9G03G06G13G16G20G23G32G19G07
 -10709645.49248  -8336568.46146  21189157.0084                   21189154.1334
  -6511205.93747  -5069176.27745  21977200.5554                   21977198.3754
 -11544900.39848  -8983630.79345  21279127.2344                   21279124.1134
   3544911.42247   2756999.28946  20728443.3984                   20728439.2304
   7968330.72347   6195783.79345  22277824.2274                   22277821.2894
  -7781387.55948  -6058205.81646  20082592.3914                   20082586.9144
  11399324.10247   8862803.65644  23140054.2424                   23140052.2384
  -9926274.20747  -7731917.67644  23065863.4844                   23065859.4804
  -7353871.61746  -5727177.73043  23797431.7274                   23797429.7424
 11  8 20 14 49 30.0000000  0  9G03G06G13G16G20G23G32G19G07
 -10714868.21948  -8340638.09446  21188162.9144                   21188160.3204
  -6482402.06247  -5046731.68745  21982681.8134                   21982679.4654
 -11571111.89548  -9004055.32045  21274139.4224                   21274136.1724
   3649882.52748   2838794.95346  20748418.7344                   20748415.1484
   8093567.32847   6293370.72345  22301656.2034                   22301652.9574
  -7767515.62148  -6047396.51246  20085232.2734                   20085226.5904
  11537881.63346   8970770.50044  23166420.5864                   23166419.2854
  -9969246.57046  -7765402.59044  23057685.3674                   23057681.8404
  -7364976.18746  -5735830.59843  23795318.4224                   23795316.4804
 11  8 20 14 50  0.0000000  0  9G03G06G13G16G20G23G32G19G07
 -10719608.16848  -8344331.52346  21187260.5634                   21187258.9024
  -6453088.30947  -5023889.79745  21988260.1174                   21988258.0004
 -11597086.97348  -9024295.63345  21269196.3204                   21269193.4534
   3755259.59448   2920906.91846  20768471.4064                   20768467.5944
   8219047.61347   6391147.52745  22325534.0394                   22325531.4534
  -7753209.31648  -6036248.74646  20087954.5944                   20087949.4304
  11676551.62547   9078824.96944  23192808.5784                   23192807.6294
 -10012104.39847  -7798798.25444  23049529.7344                   23049526.7664
  -7376048.82046  -5744458.59843  23793211.3524                   23793209.2974
 11  8 20 14 50 30.0000000  0 10G03G06G13G16G20G23G10G32G19G07
 -10723863.14148  -8347647.07046  21186450.9304                   21186448.6174
  -6423263.77047  -5000649.88345  21993935.6884                   21993933.5084
 -11622823.15648  -9044349.79745  21264298.5784                   21264295.5664
   3861040.27748   3003333.41046  20788600.5164                   20788596.7584
   8344768.64147   6489111.93045  22349458.4614                   22349455.2854
  -7738466.56648  -6024760.89546  20090760.0234                   20090754.4614
  -6327052.52055  -4926629.85952  24506869.5634                   24506868.5984
  11815331.16846   9186964.82044  23219218.0164                   23219216.4224
 -10054844.53946  -7832102.21144  23041396.5084                   23041393.4344
  -7387090.22346  -5753062.27744  23791111.0784                   23791108.7624
 11  8 20 14 51  0.0000000  0 10G03G06G13G16G20G23G10G32G19G07
 -10727637.80948  -8350588.34046  21185732.6414                   21185729.6454
  -6392933.91848  -4977016.20745  21999707.0084                   21999704.9024
 -11648325.32048  -9064221.60545  21259446.0944                   21259442.5864
   3967214.60548   3086066.63746  20808804.9924                   20808801.1294
   8470720.23447   6587255.99645  22373426.0084                   22373423.4184
  -7723292.23048  -6012936.75046  20093647.4924                   20093641.9614
  -6340456.41045  -4937074.44942  24504317.5234                   24504317.8404
  11954210.62946   9295182.52344  23245645.8834                   23245644.3364
 -10097470.74646  -7865317.40244  23033284.9304                   23033282.0784
  -7398107.64147  -5761647.27044  23789014.2194                   23789012.9384
 11  8 20 14 51 30.0000000  0 10G03G06G13G16G20G23G10G32G19G07
 -10730931.06248  -8353154.46946  21185106.1094                   21185103.6954
  -6362099.39147  -4952989.28545  22005574.4774                   22005572.5124
 -11673592.86748  -9083910.60945  21254637.7194                   21254634.3244
   4073778.12548   3169103.12146  20829083.6724                   20829079.4224
   8596897.29347   6685575.73445  22397437.0084                   22397433.6094
  -7707686.13348  -6000776.15246  20096617.4614                   20096611.7934
  -6353437.30545  -4947189.41042  24501849.3834                   24501847.6994
  12093185.29347   9403474.39144  23272092.5164                   23272091.0944
 -10139981.87546  -7898442.91444  23025195.4224                   23025192.3404
  -7409103.63346  -5770215.56244  23786921.5704                   23786919.4844
 11  8 20 14 52  0.0000000  0 10G03G06G13G16G20G23G10G32G19G07
 -10733738.30148  -8355341.91446  21184571.4224                   21184569.5084
  -6330757.03547  -4928566.64845  22011539.3054                   22011537.0474
 -11698621.38348  -9103413.33646  21249875.0474                   21249871.7894
   4180730.03548   3252442.26246  20849435.8444                   20849431.7814
   8723299.06347   6784070.58245  22421490.5554                   22421487.7344
  -7691644.50448  -5988276.19146  20099670.2194                   20099664.5044
  -6365991.94145  -4956972.24242  24499457.6954                   24499458.6254
  12232254.44147   9511839.90244  23298555.3364                   23298554.1804
 -10182372.69946  -7931474.67244  23017128.1804                   23017125.4534
  -7420076.54747  -5778765.87544  23784834.1174                   23784831.8634
 11  8 20 14 52 30.0000000  0 10G03G06G13G16G20G23G10G32G19G07
 -10736057.69548  -8357149.19146  21184130.3524                   21184128.1094
  -6298906.06647  -4903747.68445  22017599.8594                   22017597.6054
 -11723408.97748  -9122728.33645  21245158.0944                   21245155.0664
   4288067.02048   3336081.44546  20869861.5554                   20869857.2154
   8849921.88747   6882737.68045  22445585.4694                   22445582.5044
  -7675165.88348  -5975435.71146  20102805.6334                   20102800.1994
  -6378119.34055  -4966422.07452  24497150.5554                   24497152.1094
  12371414.60246   9620276.33644  23325037.2584                   23325035.7854
 -10224640.55947  -7964410.60544  23009085.8754                   23009081.6214
  -7431027.65646  -5787299.17644  23782750.0634                   23782748.1844
 11  8 20 14 53  0.0000000  0 10G03G06G13G16G20G23G10G32G19G07
 -10737883.48448  -8358571.87146  21183782.7584                   21183780.4224
  -6266541.62547  -4878528.62145  22023758.5864                   22023756.2974
 -11747949.22348  -9141850.60546  21240488.4924                   21240485.3094
   4395790.24648   3420021.62146  20890359.9694                   20890356.5434
   8976766.03147   6981577.25045  22469723.4844                   22469721.2664
  -7658244.84048  -5962250.48846  20106026.0164                   20106020.2424
  -6389813.94145  -4975534.71542  24494925.6024                   24494925.6374
  12510666.66046   9728784.36344  23351536.0474                   23351534.5984
 -10266778.95747  -7997245.66044  23001067.1024                   23001062.9064
  -7441953.85246  -5795813.05944  23780670.0314                   23780669.0004
 11  8 20 14 53 30.0000000  0 10G03G06G13G16G20G23G10G32G19G07
 -10739213.77348  -8359608.44146  21183529.2194                   21183527.1684
  -6233663.25047  -4852909.08245  22030015.6024                   22030012.2664
 -11772240.68048  -9160779.00446  21235865.9614                   21235862.7934
   4503896.12548   3504259.94146  20910932.3364                   20910928.6484
   9103827.94947   7080586.49245  22493902.6484                   22493899.9304
  -7640879.97348  -5948719.43446  20109330.3444                   20109324.6174
  -6401074.97346  -4984309.55142  24492782.8674                   24492783.1954
  12650007.19147   9837361.34844  23378051.5634                   23378050.2544
 -10308784.92647  -8029977.55544  22993073.6484                   22993069.1094
  -7452856.58646  -5804308.67644  23778595.4614                   23778594.4574
 11  8 20 14 54  0.0000000  0 10G03G06G13G16G20G23G10G32G19G07
 -10740045.56248  -8360256.55946  21183371.7424                   21183368.9574
  -6200269.21547  -4826887.73445  22036369.5634                   22036367.5904
 -11796280.71948  -9179511.48846  21231290.8594                   21231287.8364
   4612382.56648   3588794.81646  20931576.8054                   20931572.7854
   9231105.09047   7179763.44545  22518122.5394                   22518120.0314
  -7623068.82448  -5934840.61346  20112719.3674                   20112713.8594
  -6411900.54746  -4992745.05543  24490722.3834                   24490722.2854
  12789434.12547   9946005.65244  23404583.9144                   23404582.0234
 -10350654.88347  -8062603.44944  22985105.5864                   22985102.2774
  -7463734.96246  -5812785.28344  23776525.3594                   23776523.9844
 11  8 20 14 54 30.0000000  0 10G03G06G13G16G20G23G10G32G19G07
 -10740374.45348  -8360512.80546  21183309.1724                   21183306.4534
  -6166356.34047  -4800462.10945  22042823.5554                   22042820.7274
 -11820064.33648  -9198044.16046  21226765.3754                   21226761.8834
   4721248.81348   3673625.64546  20952293.1094                   20952289.1294
   9358596.38347   7279107.28545  22542383.0784                   22542380.7274
  -7604807.29348  -5920610.84846  20116194.3754                   20116188.8324
  -6422287.12946  -5000838.50443  24488746.7344                   24488745.5234
  12928946.50046  10054716.53544  23431131.9144                   23431130.8674
 -10392383.89847  -8095119.53144  22977164.6334                   22977161.7304
  -7474588.16446  -5821242.29344  23774460.2034                   23774459.1174
 11  8 20 14 55  0.0000000  0 10G03G06G13G16G20G23G10G32G19G07
 -10740199.75848  -8360376.65246  21183342.0474                   21183339.7584
  -6131925.25047  -4773632.64845  22049374.8834                   22049373.0234
 -11843590.98448  -9216376.60546  21222288.5314                   21222285.1954
   4830490.76248   3758749.22746  20973081.1954                   20973077.4184
   9486296.94947   7378614.18445  22566683.9924                   22566681.7424
  -7586095.02048  -5906029.85246  20119755.2424                   20119749.8594
  -6432234.80546  -5008589.94143  24486853.2584                   24486852.7384
  13068539.77047  10163490.46044  23457695.3834                   23457694.6414
 -10433969.92647  -8127524.19944  22969250.7194                   22969248.0664
  -7485418.21546  -5829681.23444  23772399.6724                   23772397.3404
 11  8 20 14 55 30.0000000  0 10G03G06G13G16G20G23G10G32G19G07
 -10739522.17248  -8359848.64546  21183471.0704                   21183468.6724
  -6096977.46147  -4746400.59445  22056025.3754                   22056023.5274
 -11866860.88748  -9234508.98046  21217860.1094                   21217856.6804
   4940102.88348   3844161.24246  20993939.7584                   20993935.5434
   9614201.00047   7478279.64845  22591023.6334                   22591020.4844
  -7566933.04748  -5891098.44946  20123401.5554                   20123396.5204
  -6441744.82046  -5016000.33643  24485044.2114                   24485043.0004
  13208208.72747  10272323.35544  23484274.7974                   23484273.2384
 -10475412.71947  -8159817.25044  22961365.0944                   22961360.9534
  -7496228.18746  -5838104.57844  23770342.1724                   23770340.7274
 11  8 20 14 56  0.0000000  0 10G03G06G13G16G20G23G10G32G19G07
 -10738330.27348  -8358919.85546  21183697.8444                   21183694.7384
  -6061503.41047  -4718758.44945  22062776.3914                   22062773.0744
 -11889862.96148  -9252432.66446  21213483.4534                   21213479.5904
   5050090.92648   3929866.19146  21014869.9614                   21014866.4384
   9742314.22347   7578108.09045  22615402.3524                   22615399.9614
  -7547310.94548  -5875808.50846  20127135.9064                   20127130.0234
  -6450806.77346  -5023061.59443  24483319.3524                   24483318.0744
  13347959.03947  10381219.64144  23510867.2504                   23510866.0984
 -10516700.56647  -8191989.57445  22953507.6804                   22953504.4654
  -7507010.11347  -5846506.00444  23768290.2584                   23768288.4304
 11  8 20 14 56 30.0000000  0 10G03G06G13G16G20G23G10G32G19G07
 -10736626.86748  -8357592.49646  21184022.0944                   21184020.0354
  -6025506.83647  -4690709.15245  22069625.9534                   22069623.6334
 -11912599.60948  -9270149.52046  21209156.3834                   21209153.2234
   5160447.22748   4015858.08646  21035870.0634                   21035866.3524
   9870628.53947   7678093.23444  22639820.0864                   22639817.2894
  -7527231.25448  -5860161.99246  20130956.6804                   20130951.4414
  -6459424.83246  -5029776.93443  24481678.7734                   24481679.3484
  13487783.01747  10490173.31344  23537475.0004                   23537474.1054
 -10557835.22747  -8224042.50845  22945679.8984                   22945676.5594
  -7517769.31247  -5854889.77344  23766242.7504                   23766241.1294
 11  8 20 14 57  0.0000000  0 10G03G06G13G16G20G23G10G32G19G07
 -10734412.50448  -8355866.98446  21184443.3204                   21184440.8754
  -5988989.59847  -4662254.15245  22076574.7664                   22076572.5824
 -11935071.21948  -9287659.84846  21204880.1024                   21204876.9654
   5271166.23848   4102132.62946  21056939.1484                   21056935.4184
   9999138.07447   7778230.48444  22664274.5704                   22664271.7854
  -7506695.47748  -5844160.09846  20134864.8054                   20134859.4454
  -6467600.10246  -5036147.25843  24480123.5394                   24480123.1174
  13627675.21546  10599180.16444  23564096.1094                   23564094.8444
 -10598816.31247  -8255975.77745  22937882.4224                   22937878.5354
  -7528509.64846  -5863258.83644  23764198.6024                   23764197.1134
 11  8 20 14 57 30.0000000  0 10G03G06G13G16G20G23G10G32G19G07
 -10731680.34848  -8353738.00446  21184962.9694                   21184960.2544
  -5951946.36747  -4633389.27345  22083624.4144                   22083621.5514
 -11957270.89848  -9304958.28946  21200655.7504                   21200652.4224
   5382249.66848   4188691.12546  21078077.7274                   21078073.7894
  10127843.85947   7878520.68045  22688766.2034                   22688763.8364
  -7485697.44948  -5827798.00447  20138860.4534                   20138855.1524
  -6475326.67646  -5042167.93043  24478653.9454                   24478651.9064
  13767637.14546  10708241.34044  23590729.8054                   23590728.9184
 -10639636.28147  -8287783.52045  22930114.0314                   22930110.4734
  -7539226.28946  -5871609.44144  23762159.8914                   23762158.1214
 11  8 20 14 58  0.0000000  0 10G03G06G13G16G20G23G10G32G19G07
 -10728433.75848  -8351208.16846  21185580.5944                   21185578.3674
  -5914381.77047  -4604118.13345  22090772.3054                   22090770.2344
 -11979201.94548  -9322047.40646  21196482.1334                   21196479.0164
   5493689.02748   4275526.96546  21099283.4224                   21099279.9184
  10256737.41047   7978957.17645  22713294.2814                   22713291.3094
  -7464240.80948  -5811078.54346  20142943.6564                   20142937.8524
  -6482608.75446  -5047842.24243  24477267.2274                   24477266.6134
  13907660.23846  10817350.17644  23617375.4534                   23617374.7154
 -10680297.38747  -8319467.46145  22922376.6254                   22922373.4064
  -7549925.77046  -5879946.65644  23760123.5084                   23760121.5204
 11  8 20 14 58 30.0000000  0 10G03G06G13G16G20G23G10G32G19G07
 -10724665.41448  -8348271.77046  21186297.8364                   21186295.6334
  -5876289.35947  -4574435.72745  22098020.9224                   22098018.6764
 -12000856.19548  -9338920.83246  21192361.6724                   21192358.3204
   5605487.20348   4362642.40246  21120557.9844                   21120554.6844
  10385821.23447   8079541.94145  22737858.1024                   22737855.2154
  -7442318.18448  -5793995.99247  20147115.3054                   20147109.6024
  -6489439.78946  -5053165.10943  24475966.6094                   24475967.6254
  14047747.51646  10926509.01644  23644033.1094                   23644032.0944
 -10720791.00447  -8351020.87945  22914670.7974                   22914667.1604
  -7560603.04346  -5888266.59844  23758091.8834                   23758089.8134
 11  8 20 14 59  0.0000000  0 10G03G06G13G16G20G23G10G32G19G07
 -10720373.91448  -8344927.69946  21187114.2664                   21187111.9304
  -5837669.70747  -4544342.47345  22105369.9304                   22105367.7544
 -12022232.90248  -9355578.00046  21188293.8914                   21188290.7074
   5717639.94148   4450034.11746  21141900.4774                   21141896.3674
  10515090.60247   8180271.26644  22762457.6334                   22762454.5984
  -7419929.26248  -5776550.08246  20151375.6954                   20151370.5944
  -6495819.80945  -5058136.52043  24474752.9454                   24474753.0084
  14187894.55546  11035714.44544  23670702.3834                   23670701.4774
 -10761115.26247  -8382442.33645  22906997.3364                   22906993.8324
  -7571260.21546  -5896570.81644  23756063.9924                   23756061.5824
 11  8 20 14 59 30.0000000  0 10G03G06G13G16G20G23G10G32G19G07
 -10715563.14848  -8341179.03146  21188029.6254                   21188027.7464
  -5798527.29348  -4513841.86345  22112819.0704                   22112816.1294
 -12043335.20748  -9372021.34846  21184278.0704                   21184274.8284
   5830138.93848   4537695.65246  21163308.2114                   21163304.1524
  10644536.66047   8281138.28545  22787089.9064                   22787087.4104
  -7397077.50048  -5758743.51647  20155724.5394                   20155719.1174
  -6501752.62545  -5062759.48043  24473624.5864                   24473624.0084
  14328093.22347  11144960.06344  23697381.4304                   23697380.2774
 -10801272.89847  -8413733.95345  22899355.0554                   22899351.9614
  -7581903.00446  -5904863.86344  23754038.5084                   23754036.5354
 11  8 20 15  0  0.0000000  0 10G03G06G13G16G20G23G10G32G19G07
 -10710222.04748  -8337017.10946  21189046.7274                   21189044.0164
  -5758853.02047  -4482926.81645  22120368.3204                   22120365.9924
 -12064152.05148  -9388242.27346  21180316.8594                   21180313.4144
   5942989.88748   4625631.43446  21184782.9614                   21184779.4734
  10774165.27747   8382147.57445  22811757.4454                   22811754.5234
  -7373752.80548  -5740568.43047  20160162.9064                   20160157.5904
  -6507228.68745  -5067026.48443  24472582.3134                   24472581.6884
  14468349.19146  11254250.36744  23724070.9454                   23724069.8444
 -10841251.80947  -8444886.28945  22891747.4844                   22891744.1604
  -7592523.67646  -5913139.65644  23752016.9224                   23752015.9384
 11  8 20 15  0 30.0000000  0 10G03G06G13G16G20G23G10G32G19G07
 -10704357.71148  -8332447.47346  21190162.4924                   21190159.6724
  -5718654.95747  -4451603.64845  22128017.7814                   22128015.6564
 -12084690.17248  -9404246.00846  21176408.4064                   21176405.2384
   6056181.30148   4713832.50446  21206322.3914                   21206318.7854
  10903964.04747   8483289.42645  22836457.7274                   22836455.3524
  -7349962.64548  -5722030.64846  20164689.8984                   20164684.6564
  -6512255.77345  -5070943.59043  24471623.7504                   24471625.6644
  14608650.52746  11363576.02344  23750770.0084                   23750768.3874
 -10881058.05147  -8475904.07445  22884172.9064                   22884168.8874
  -7603131.75446  -5921405.64844  23749999.0554                   23749996.4654
 11  8 20 15  1  0.0000000  0 10G03G06G13G16G20G23G10G32G19G07
 -10697965.62148  -8327466.60546  21191378.5554                   21191375.7154
  -5677929.95747  -4419869.87145  22135767.4384                   22135764.9304
 -12104944.44548  -9420028.56246  21172554.3984                   21172550.7734
   6169712.12148   4802298.06646  21227926.7194                   21227922.9024
  11033931.88347   8584563.02344  22861189.3984                   22861186.7034
  -7325702.96148  -5703127.00047  20169306.4454                   20169300.6524
  -6516830.27745  -5074508.09042  24470753.7734                   24470754.6134
  14748996.95346  11472936.79344  23777476.8984                   23777475.6134
 -10920686.06647  -8506782.99645  22876632.1804                   22876628.0904
  -7613725.13746  -5929660.19144  23747983.3594                   23747980.6644
 11  8 20 15  1 30.0000000  0 10G03G06G13G16G20G23G10G32G19G07
 -10691034.53548  -8322065.73446  21192697.7584                   21192695.6884
  -5636668.06647  -4387717.73045  22143619.2664                   22143616.9264
 -12124903.48048  -9435581.06246  21168756.1884                   21168752.9884
   6283589.14148   4891033.38346  21249597.1094                   21249592.9184
  11164075.21947   8685973.36344  22885954.8834                   22885952.4774
  -7300962.54348  -5683848.75047  20174014.4304                   20174008.9224
  -6520941.90245  -5077711.92643  24469972.3364                   24469972.7704
  14889394.79746  11582337.64144  23804193.6884                   23804192.4884
 -10960123.55947  -8537513.47745  22869127.1254                   22869123.3204
  -7624295.27747  -5937896.62544  23745971.9614                   23745969.4774
 11  8 20 15  2  0.0000000  0 10G03G06G13G16G20G23G10G32G19G07
 -10683570.10948  -8316249.28146  21194117.8364                   21194115.3134
  -5594876.08647  -4355152.53545  22151572.0234                   22151569.9534
 -12144572.14148  -9450907.27746  21165013.0004                   21165010.1724
   6397802.01248   4980030.41046  21271330.9694                   21271327.1254
  11294383.45747   8787512.22344  22910752.1334                   22910748.8674
  -7275747.34848  -5664200.54747  20178812.7194                   20178807.4924
  -6524597.00046  -5080559.98843  24469276.6644                   24469276.4964
  15029833.75846  11691770.53943  23830917.7584                   23830917.5394
 -10999374.90247  -8568098.88745  22861657.4844                   22861654.5164
  -7634850.20347  -5946121.21144  23743962.6644                   23743960.9414
 11  8 20 15  2 30.0000000  0 10G03G06G13G16G20G23G10G32G19G07
 -10675571.08248  -8310016.26246  21195640.3204                   21195638.1094
  -5552554.24647  -4322174.46545  22159625.6024                   22159623.5864
 -12163949.08648  -9466006.19146  21161325.8204                   21161322.6024
   6512346.69548   5069285.98846  21293127.8754                   21293124.4574
  11424852.32447   8889176.23844  22935579.2584                   22935576.2664
  -7250056.91048  -5644182.03947  20183701.4774                   20183696.0124
  -6527795.09046  -5083051.98043  24468668.3984                   24468667.6724
  15170310.01646  11801232.48843  23857649.9924                   23857648.6804
 -11038437.52347  -8598537.25845  22854224.3524                   22854221.0124
  -7645391.62947  -5954335.27744  23741957.1414                   23741955.4804
 11  8 20 15  3  0.0000000  0 10G03G06G13G16G20G23G10G32G19G07
 -12242454.88348  -9530964.66846  20897471.7664                   20897469.4964
  -7085119.94147  -5516381.48845  21867988.0164                   21867985.1134
 -13758451.92248 -10708475.92246  20857901.9454                   20857898.8874
   5051804.94948   3931201.48446  21015196.3984                   21015192.2774
   9980063.60547   7763366.80945  22660645.0394                   22660642.6884
  -8799307.97348  -6851390.66047  19888888.4694                   19888883.5864
  -8105954.62946  -6312786.66443  24168354.4384                   24168354.2034
  13735406.09446  10683125.45743  23584597.0864                   23584596.3134
 -12652729.35547  -9856426.95745  22547034.7424                   22547030.6844
  -9231339.33247  -7190138.67244  23440161.1094                   23440158.8714
 11  8 20 15  3 30.0000000  0 10G03G06G13G16G20G23G10G32G19G07
 -12233373.95348  -9523888.60246  20899200.1414                   20899197.4884
  -7041729.26647  -5482570.54745  21876244.7344                   21876242.5944
 -13777231.11748 -10723109.04746  20854328.6254                   20854325.0904
   5167012.13748   4020973.29746  21037119.4064                   21037116.0704
  10110851.23847   7865279.21144  22685533.8444                   22685530.4774
  -8772654.88348  -6830622.02047  19893960.7584                   19893955.3134
  -8108228.63746  -6314558.60943  24167922.1174                   24167920.9614
  13875955.80546  10792644.66043  23611342.7894                   23611342.0784
 -12691398.75447  -9886558.93745  22539676.5234                   22539672.3484
  -9241847.48846  -7198326.78944  23438161.5704                   23438159.4574
 11  8 20 15  4  0.0000000  0 10G03G06G13G16G20G23G10G32G19G07
 -12223754.15648  -9516392.64546  20901030.7274                   20901028.2464
  -6997808.51647  -5448346.57445  21884602.6484                   21884600.3484
 -13795712.95348 -10737510.46546  20850811.4384                   20850808.2774
   5282541.38348   4110996.06646  21059104.1334                   21059099.6914
  10241788.39847   7967308.12144  22710450.0634                   22710447.3444
  -8745522.77348  -6809480.12147  19899123.7034                   19899118.0274
  -8110043.96546  -6315973.12543  24167576.5394                   24167575.0274
  14016532.86746  10902185.16443  23638093.8054                   23638092.8404
 -12729871.94547  -9916538.02345  22532354.9614                   22532351.1054
  -9252344.92246  -7206506.57044  23436163.2664                   23436161.0044
 11  8 20 15  4 30.0000000  0 10G03G06G13G16G20G23G10G32G19G07
 -12213591.74248  -9508473.84846  20902964.5944                   20902961.8834
  -6953355.13747  -5413707.57445  21893062.0314                   21893059.4924
 -13813893.31648 -10751676.96546  20847352.0634                   20847348.7034
   5398391.42248   4201268.79746  21081149.4774                   21081145.4454
  10372874.12547   8069452.80944  22735394.8054                   22735392.0234
  -8717908.81648  -6787962.75447  19904378.5084                   19904373.1564
  -8111397.77346  -6317028.06643  24167319.1254                   24167317.8204
  14157136.26246  11011746.16443  23664849.4064                   23664849.1294
 -12768143.70747  -9946360.14545  22525072.2194                   22525068.2734
  -9262830.49246  -7214677.11344  23434167.6484                   23434166.3164
 11  8 20 15  5  0.0000000  0 10G03G06G13G16G20G23G10G32G19G07
 -12202882.01248  -9500128.59046  20905002.4774                   20904999.7734
  -6908365.72247  -5378650.87645  21901622.9454                   21901621.3674
 -13831766.96148 -10765604.46546  20843950.6414                   20843947.2704
   5514562.35548   4291791.58246  21103255.8364                   21103252.5824
  10504107.52347   8171712.57444  22760366.8914                   22760364.7544
  -8689808.42248  -6766066.35546  19909725.7504                   19909720.7114
  -8112286.05146  -6317720.21543  24167149.8054                   24167147.8134
  14297766.09447  11121327.78944  23691611.0784                   23691610.0234
 -12806208.27747  -9976020.82845  22517828.3914                   22517824.7274
  -9273301.85946  -7222836.56244  23432175.2344                   23432173.8984
 11  8 20 15  5 30.0000000  0 10G03G06G13G16G20G23G10G32G19G07
 -12191625.93448  -9491357.61346  20907144.4384                   20907142.3834
  -6862842.56647  -5343178.27345  21910285.9694                   21910283.9844
 -13849334.07448 -10779293.11746  20840608.1254                   20840604.3674
   5631048.67648   4382560.10946  21125423.0554                   21125419.0864
  10635483.13347   8274083.14844  22785367.1174                   22785364.4064
  -8661222.69548  -6743791.75847  19915165.4614                   19915160.0394
  -8112710.41847  -6318050.91843  24167069.1724                   24167068.0314
  14438416.87947  11230925.73044  23718376.1414                   23718375.0554
 -12844065.23847 -10005519.71545  22510624.5164                   22510620.5514
  -9283762.14147  -7230987.41044  23430185.2734                   23430183.1564
 11  8 20 15  6  0.0000000  0 10G03G06G13G16G20G23G10G32G19G07
 -12179823.39548  -9482160.81246  20909390.5554                   20909387.6524
  -6816786.46947  -5307290.41045  21919049.9614                   21919047.9534
 -13866593.71548 -10792742.18046  20837323.2584                   20837320.0434
   5747846.07047   4473571.03946  21147648.2584                   21147644.6374
  10766996.27347   8376560.86344  22810394.1174                   22810390.9384
  -8632151.54748  -6721138.92247  19920697.5704                   19920692.1094
  -8112671.40246  -6318020.53942  24167076.3674                   24167075.0634
  14579084.43047  11340536.73444  23745144.1414                   23745142.7504
 -12881713.07447 -10034855.66445  22503460.3754                   22503456.5704
  -9294212.92647  -7239130.84044  23428196.5554                   23428194.4384
 11  8 20 15  6 30.0000000  0 10G03G06G13G16G20G23G10G32G19G07
 -12167470.10448  -9472534.85146  20911740.8524                   20911738.5554
  -6770195.31647  -5270985.61745  21927916.0004                   21927913.7424
 -13883541.43448 -10805948.19146  20834098.2584                   20834094.9654
   5864953.28448   4564823.38546  21169933.4924                   21169929.3914
  10898645.18347   8479144.38544  22835445.8364                   22835443.3204
  -8602591.69348  -6698105.28447  19926322.4534                   19926316.9224
  -8112166.33346  -6317627.05643  24167172.5634                   24167170.6484
  14719767.66046  11450159.96944  23771915.1644                   23771914.0634
 -12919146.46147 -10064024.51245  22496336.8364                   22496333.1374
  -9304653.30747  -7247266.14944  23426210.0164                   23426207.7814
 11  8 20 15  7  0.0000000  0 10G03G06G13G16G20G23G10G32G19G07
 -12154568.12548  -9462481.34846  20914196.2114                   20914194.0704
  -6723071.85547  -5234266.02745  21936883.1174                   21936881.2624
 -13900178.59848 -10818912.20746  20830932.5394                   20830929.3914
   5982363.86748   4656312.12546  21192275.4064                   21192272.0704
  11030423.81647   8581828.98844  22860522.6414                   22860519.6564
  -8572545.07448  -6674692.32847  19932040.3524                   19932034.7624
  -8111197.69146  -6316872.27343  24167357.3524                   24167355.7114
  14860460.44546  11559790.61744  23798687.8524                   23798687.4964
 -12956365.77047 -10093026.53945  22489254.6024                   22489250.6454
  -9315087.37947  -7255396.58244  23424224.2894                   23424221.9104
 11  8 20 15  7 30.0000000  0 10G03G06G13G16G20G23G10G32G19G07
 -12141110.45348  -9451994.84046  20916757.2734                   20916754.7114
  -6675410.61747  -5197127.40245  21945953.3284                   21945951.0864
 -13916497.58248 -10831628.28946  20827827.2814                   20827823.6094
   6100080.93448   4748039.68046  21214676.6884                   21214673.0704
  11162333.95347   8684616.07444  22885624.5784                   22885621.1094
  -8542005.07448  -6650894.93447  19937851.6334                   19937846.5164
  -8109759.23846  -6315751.36743  24167630.2114                   24167629.5394
  15001165.07446  11669430.52043  23825463.8754                   23825462.6764
 -12993362.65247 -10121855.25045  22482214.1954                   22482210.3484
  -9325509.96547  -7263518.04744  23422240.1804                   23422238.5204
 11  8 20 15  8  0.0000000  0 10G03G06G13G16G20G23G10G32G19G07
 -12127095.54748  -9441074.11746  20919424.3204                   20919421.5554
  -6627211.41047  -5159569.56645  21955124.6094                   21955122.5234
 -13932496.12948 -10844094.68746  20824782.2734                   20824779.3054
   6218100.81648   4840003.18446  21237135.1174                   21237131.6604
  11294372.09847   8787502.88744  22910750.4614                   22910747.8834
  -8510970.33648  -6626712.02347  19943757.4304                   19943751.9614
  -8107850.18446  -6314263.77343  24167993.2274                   24167992.8364
  15141878.62546  11779077.35543  23852240.9534                   23852238.8674
 -13030134.35247 -10150508.48045  22475216.8754                   22475212.6334
  -9335921.88347  -7271631.19944  23420258.8754                   23420257.5594
 11  8 20 15  8 30.0000000  0 10G03G06G13G16G20G23G10G32G19G07
 -12112520.72348  -9429717.09046  20922197.5314                   20922195.1294
  -6578472.56647  -5121591.24245  21964399.8674                   21964397.6214
 -13948170.92248 -10856308.79346  20821800.1884                   20821796.3324
   6336421.88348   4932201.39146  21259650.8594                   21259646.6024
  11426536.44947   8890488.04744  22935899.5474                   22935897.6604
  -8479438.43748  -6602141.71547  19949757.8834                   19949752.1884
  -8105468.45346  -6312407.86743  24168447.3054                   24168446.6564
  15282599.36346  11888729.79744  23879018.5164                   23879017.8524
 -13066676.50047 -10178982.84045  22468262.8284                   22468258.7234
  -9346322.65647  -7279735.66444  23418279.4694                   23418277.8754
 11  8 20 15  9  0.0000000  0 10G03G06G13G16G20G23G10G32G19G07
 -12097388.27747  -9417925.55946  20925077.0944                   20925074.3674
  -6529198.35547  -5083195.76645  21973776.1644                   21973774.3674
 -13963523.80948 -10868272.07446  20818878.5164                   20818875.2154
   6455036.82448   5024628.59446  21282222.5314                   21282218.5944
  11558819.27347   8993565.51644  22961072.5554                   22961070.2734
  -8447412.35948  -6577186.32047  19955852.0864                   19955846.4454
  -8102617.87146  -6310186.58643  24168989.0704                   24168989.0664
  15423320.05946  11998382.21943  23905797.6174                   23905795.8054
 -13102990.73847 -10207279.59845  22461352.7194                   22461348.6094
  -9356717.12947  -7287835.21144  23416301.7034                   23416299.7274
 11  8 20 15  9 30.0000000  0 10G03G06G13G16G20G23G10G32G19G07
 -12081687.71548  -9405691.33646  20928064.5474                   20928062.2274
  -6479379.54747  -5044375.90645  21983256.1334                   21983254.3054
 -13978543.50448 -10879975.71146  20816019.7274                   20816016.4654
   6573951.69548   5117289.50846  21304851.4694                   21304847.4804
  11691226.49647   9096739.93844  22986268.9774                   22986266.8524
  -8414881.69548  -6551837.75047  19962042.5634                   19962036.9264
  -8099288.45746  -6307592.17643  24169622.7974                   24169622.7584
  15564047.05946  12108039.51243  23932576.8444                   23932575.6484
 -13139064.78147 -10235389.19545  22454488.2344                   22454484.3324
  -9367096.98046  -7295923.35544  23414327.3284                   23414324.0944
 11  8 20 15 10  0.0000000  0 10G03G06G13G16G20G23G10G32G19G07
 -12065421.85548  -9393016.62946  20931159.9774                   20931157.6914
  -6429019.87947  -5005134.61745  21992839.8594                   21992837.5824
 -13993231.73048 -10891421.07446  20813224.8204                   20813221.5944
   6693159.40248   5210178.59846  21327535.8054                   21327532.0434
  11823750.52046   9200005.35544  23011487.4144                   23011484.9494
  -8381849.28948  -6526098.21547  19968328.5474                   19968322.9614
  -8095483.57846  -6304627.28143  24170347.1724                   24170346.8794
  15704773.19146  12217696.18043  23959356.1174                   23959355.6334
 -13174899.49247 -10263312.29345  22447668.8674                   22447665.2934
  -9377466.50047  -7304003.50444  23412353.1954                   23412351.4884
 11  8 20 15 10 30.0000000  0 10G03G06G13G16G20G23G10G32G19G07
 -12048590.21147  -9379901.04346  20934362.9144                   20934360.4884
  -6378120.23847  -4965472.56645  22002525.6724                   22002523.5164
 -14007587.37548 -10902607.26646  20810492.9924                   20810489.9454
   6812656.13348   5303292.90246  21350275.4064                   21350271.3794
  11956387.09047   9303358.46544  23036727.6174                   23036725.2974
  -8348314.94548  -6499967.55947  19974709.8134                   19974704.5864
  -8091203.39846  -6301291.99643  24171159.9144                   24171160.9024
  15845494.77746  12327349.27343  23986134.3524                   23986133.4804
 -13210493.11347 -10291047.52745  22440895.3284                   22440891.9224
  -9387827.34447  -7312076.83244  23410382.1334                   23410379.7544
 11  8 20 15 11  0.0000000  0 10G03G06G13G16G20G23G10G32G19G07
 -12031185.32448  -9366338.77746  20937675.2194                   20937672.8524
  -6326674.60547  -4925385.08245  22012314.9304                   22012312.6644
 -14021602.18448 -10913527.88746  20807826.2274                   20807823.1214
   6932444.80948   5396634.70746  21373070.5234                   21373066.9614
  12089139.25447   9406801.66044  23061989.3364                   23061987.0704
  -8314271.36348  -6473440.09447  19981187.8284                   19981182.6294
  -8086441.29346  -6297581.18743  24172067.0554                   24172066.9264
  15986214.78046  12437001.15443  24012913.1334                   24012912.1954
 -13245836.62947 -10318587.86345  22434169.7114                   22434165.7194
  -9398174.30547  -7320139.37144  23408412.8674                   23408410.8674
 11  8 20 15 11 30.0000000  0 10G03G06G13G16G20G23G10G32G19G07
 -12013207.48447  -9352330.05946  20941095.8674                   20941093.6954
  -6274684.71547  -4884873.47345  22022208.3914                   22022206.5904
 -14035275.53148 -10924182.42646  20805223.9694                   20805220.9494
   7052520.73448   5490200.33246  21395920.4304                   21395916.3444
  12222001.78547   9510330.83244  23087272.8524                   23087270.2624
  -8279719.19548  -6446516.34047  19987763.3364                   19987757.8554
  -8081198.28546  -6293495.68743  24173065.2974                   24173064.9494
  16126928.55146  12546648.18843  24039689.3674                   24039687.9774
 -13280928.77747 -10345932.32845  22427492.4064                   22427488.1524
  -9408509.77047  -7328192.94144  23406446.2424                   23406444.3134
 11  8 20 15 12  0.0000000  0 10G03G06G13G16G20G23G10G32G19G07
 -11994661.31648  -9337878.49246  20944625.2034                   20944622.7814
  -6222156.13347  -4843942.10945  22032204.5004                   22032202.3754
 -14048611.28948 -10934573.90646  20802686.6884                   20802683.0434
   7172875.24248   5583983.04346  21418822.8834                   21418819.3404
  12354965.51247   9613938.87944  23112574.4774                   23112572.1684
  -8244662.98448  -6419199.80547  19994434.3364                   19994428.8674
  -8075479.52346  -6289039.47743  24174153.0084                   24174153.3204
  16267627.35546  12656283.55543  24066464.1804                   24066462.6954
 -13315772.52747 -10373083.23045  22420861.2974                   22420857.7074
  -9418839.99246  -7336242.43444  23404479.5164                   23404478.0594
 11  8 20 15 12 30.0000000  0 10G03G06G13G16G20G23G10G32G19G07
 -11975531.89547  -9322972.44146  20948265.7194                   20948262.9774
  -6169075.50847  -4802580.60245  22042304.9304                   22042303.5394
 -14061593.84848 -10944690.17246  20800216.0164                   20800212.2344
   7293518.14848   5677990.48846  21441780.2344                   21441776.3714
  12488040.28547   9717633.44944  23137897.7344                   23137895.2894
  -8209088.46149  -6391479.40647  20001203.7194                   20001198.6564
  -8069271.26246  -6284201.82043  24175334.0234                   24175333.8134
  16408321.59046  12765915.35943  24093237.0784                   24093236.0824
 -13350351.75047 -10400028.01245  22414281.1804                   22414277.2234
  -9429152.50046  -7344278.11344  23402518.2114                   23402515.7974
 11  8 20 15 13  0.0000000  0 10G03G06G13G16G20G23G10G32G19G07
 -11955827.68448  -9307618.50046  20952015.0784                   20952012.7304
  -6115452.49247  -4760796.43445  22052509.4844                   22052507.5704
 -14074230.27048 -10954536.73046  20797811.1484                   20797808.0864
   7414437.17248   5772213.07846  21464790.6094                   21464786.7814
  12621213.50047   9821404.72344  23163239.7894                   23163237.5274
  -8173003.90649  -6363361.57847  20008070.5084                   20008064.8754
  -8062582.45346  -6278989.72243  24176607.0474                   24176606.9384
  16548998.82846  12875533.89543  24120007.1094                   24120006.7544
 -13384672.93047 -10426771.70745  22407750.2194                   22407745.8014
  -9439457.09047  -7352307.60544  23400557.0084                   23400554.7194
 11  8 20 15 13 30.0000000  0 10G03G06G13G16G20G23G10G32G19G07
 -11935546.46947  -9291814.94546  20955874.4534                   20955871.8324
  -6061286.44947  -4718589.13745  22062817.4144                   22062813.9844
 -14086517.90248 -10964111.48846  20795473.0394                   20795469.6684
   7535630.08648   5866649.10246  21487852.7344                   21487848.6484
  12754482.58647   9925250.72344  23188599.5704                   23188597.3324
  -8136407.52748  -6334844.92647  20015034.6484                   20015028.8094
  -8055411.73846  -6273402.12544  24177971.5704                   24177971.8364
  16689656.89546  12985137.51244  24146773.2194                   24146773.2034
 -13418732.35947 -10453311.43445  22401268.3914                   22401264.6484
  -9449753.90646  -7360331.05544  23398597.9844                   23398595.6844
 11  8 20 15 14  0.0000000  0 10G03G06G13G16G20G23G10G32G19G07
 -11914676.81648  -9275552.88346  20959845.6954                   20959843.6724
  -6006567.53947  -4675951.02345  22073229.5234                   22073227.1914
 -14098444.45348 -10973404.89146  20793203.5004                   20793200.1954
   7657103.77048   5961303.90246  21510968.5784                   21510964.9844
  12887853.93447  10029176.39544  23213980.1484                   23213977.5124
  -8099287.78948  -6305920.46947  20022098.1724                   20022092.7034
  -8047748.91046  -6267431.06244  24179430.2664                   24179429.7304
  16830302.93446  13094731.74243  24173537.4144                   24173537.7344
 -13452517.10247 -10479637.14845  22394839.8524                   22394835.2074
  -9460033.27747  -7368340.88344  23396640.9384                   23396639.1484
 11  8 20 15 14 30.0000000  0 10G03G06G13G16G20G23G10G32G19G07
 -11893219.82848  -9258833.13346  20963928.8134                   20963926.7934
  -5951297.39848  -4632883.40245  22083747.7584                   22083745.0124
 -14110009.46548 -10982416.59846  20791002.7504                   20790999.6134
   7778853.28148   6056173.63345  21534136.5944                   21534132.8134
  13021322.58647  10133177.88744  23239378.5944                   23239375.9414
  -8061646.51648  -6276589.61747  20029261.3134                   20029255.7774
  -8039594.82046  -6261077.21543  24180982.6724                   24180981.7154
  16970932.18446  13204312.92243  24200297.7814                   24200297.5664
 -13486025.75847 -10505747.73045  22388463.1254                   22388458.9144
  -9470297.76246  -7376339.12944  23394687.6564                   23394685.8954
 11  8 20 15 15  0.0000000  0 10G03G06G13G16G20G23G10G32G19G07
 -11871178.21148  -9241657.84446  20968123.5554                   20968121.0554
  -5895480.86347  -4589389.99245  22094368.7424                   22094366.6914
 -14121215.40648 -10991148.48446  20788870.3444                   20788867.0864
   7900871.19948   6151252.51646  21557355.8284                   21557352.7234
  13154880.95347  10237249.28544  23264793.8364                   23264791.3914
  -8023486.57448  -6246854.61347  20036522.5864                   20036516.7154
  -8030953.80146  -6254343.89843  24182625.7194                   24182626.0514
  17111537.20346  13313875.17643  24227055.5784                   24227054.0514
 -13519260.18447 -10531644.61345  22382138.2274                   22382134.5904
  -9480552.33647  -7384329.70744  23392736.5234                   23392733.9804
 11  8 20 15 15 30.0000000  0 10G03G06G13G16G20G23G10G32G19G07
 -11848554.66848  -9224029.10546  20972428.7114                   20972426.1524
  -5839121.79747  -4545473.84045  22105093.5784                   22105091.4144
 -14132063.83648 -10999601.81246  20786806.0784                   20786802.1914
   8023151.07048   6246535.49245  21580625.1254                   21580621.5394
  13288521.78147  10341384.94944  23290224.7034                   23290222.3244
  -7984810.88748  -6216717.71947  20043882.5704                   20043877.0314
  -8021829.00246  -6247233.64343  24184362.7344                   24184361.9224
  17252111.47746  13423413.49643  24253804.7974                   24253804.7274
 -13552221.49247 -10557328.68045  22375866.3674                   22375861.9924
  -9490801.37147  -7392315.93444  23390786.6174                   23390783.7894
 11  8 20 15 16  0.0000000  0 10G03G06G13G16G20G23G10G32G19G07
 -11825337.77348  -9205938.01646  20976846.1094                   20976843.9454
  -5782209.85547  -4501126.89145  22115923.6884                   22115921.2544
 -14142541.93048 -11007766.55946  20784812.0784                   20784808.4734
   8145700.10548   6342028.23446  21603945.3364                   21603941.5394
  13422252.50847  10445590.64144  23315672.9304                   23315670.3134
  -7945607.97348  -6186170.00847  20051342.2664                   20051337.0234
  -8012209.28546  -6239737.71543  24186193.2274                   24186192.6094
  17392662.46146  13532933.66443  24280550.4454                   24280551.0514
 -13584896.29347 -10582789.49645  22369648.2274                   22369644.0594
  -9501035.15647  -7400290.27344  23388838.5554                   23388837.0004
 11  8 20 15 16 30.0000000  0 10G03G06G13G16G20G23G10G32G19G07
 -11801535.53548  -9187390.80946  20981375.8444                   20981373.1564
  -5724754.16847  -4456356.24645  22126856.8674                   22126854.5664
 -14152656.48448 -11015648.03146  20782887.3204                   20782883.7704
   8268506.10248   6437721.19946  21627314.3284                   21627310.9804
  13556060.73047  10549856.74644  23341136.0944                   23341133.6604
  -7905885.24248  -6155217.22747  20058901.4144                   20058895.8484
  -8002103.66846  -6231863.18743  24188115.7814                   24188114.9694
  17533178.40246  13642426.52043  24307290.8594                   24307290.1174
 -13617290.46147 -10608031.63745  22363483.6024                   22363480.0434
  -9511263.11747  -7408260.07044  23386892.4534                   23386890.1524
 11  8 20 15 17  0.0000000  0 10G03G06G13G16G20G23G10G32G19G07
 -11777142.68448  -9168383.38746  20986017.8204                   20986015.1334
  -5666751.27747  -4411159.18445  22137894.8594                   22137892.2934
 -14162401.79748 -11023241.76246  20781032.8594                   20781029.6414
   8391569.96148   6533615.08246  21650733.0084                   21650729.0044
  13689947.02047  10654183.66044  23366614.1884                   23366611.2344
  -7865638.44548  -6123856.10547  20066560.2194                   20066554.9024
  -7991507.85546  -6223606.64543  24190131.9694                   24190131.2704
  17673660.12946  13751892.75443  24334022.5634                   24334023.3834
 -13649397.00447 -10633049.66845  22357374.0164                   22357370.2894
  -9521481.91447  -7416222.73044  23384947.7664                   23384945.5434
 11  8 20 15 17 30.0000000  0 10G03G06G13G16G20G23G10G32G19G07
 -11752163.27748  -9148918.90246  20990770.7584                   20990768.1174
  -5608206.29347  -4365539.71545  22149035.0944                   22149033.3954
 -14171780.50448 -11030549.84046  20779248.1804                   20779244.5984
   8514883.89548   6629703.84445  21674198.3524                   21674194.6844
  13823902.62547  10758564.59444  23392104.7034                   23392102.2894
  -7824871.63748  -6092089.75847  20074317.8444                   20074312.2774
  -7980426.55546  -6214971.82443  24192241.2734                   24192239.9414
  17814099.86346  13861326.27044  24360748.6254                   24360747.9304
 -13681218.27747 -10657845.42245  22351318.7194                   22351314.6684
  -9531697.07447  -7424182.54344  23383004.3834                   23383001.8324
 11  8 20 15 18  0.0000000  0 10G03G06G13G16G20G23G10G32G19G07
 -11726595.05148  -9128995.61346  20995636.9144                   20995633.9384
  -5549118.48447  -4319497.28545  22160279.3524                   22160277.1094
 -14180789.53548 -11037569.85946  20777533.7664                   20777530.3954
   8638446.08248   6725986.04345  21697712.0314                   21697707.9574
  13957925.67246  10862998.07444  23417608.1174                   23417606.3794
  -7783582.76248  -6059916.62547  20082174.8984                   20082169.6954
  -7968858.18046  -6205957.46543  24194442.5234                   24194440.9184
  17954495.83646  13970725.66843  24387464.4924                   24387464.7034
 -13712750.14547 -10682415.66045  22345318.8754                   22345314.3324
  -9541908.11747  -7432139.16044  23381060.7114                   23381058.5394
 11  8 20 15 18 30.0000000  0 10G03G06G13G16G20G23G10G32G19G07
 -11700430.17948  -9108607.40046  21000615.6954                   21000612.9264
  -5489480.75047  -4273026.33245  22171628.4454                   22171625.9654
 -14189419.30948 -11044294.34046  20775891.7504                   20775887.9884
   8762260.34048   6822464.64845  21721272.8444                   21721269.4104
  14092020.34446  10967487.37944  23443125.6334                   23443123.2464
  -7741763.94948  -6027330.53947  20090132.8594                   20090127.4064
  -7956795.19546  -6196557.73843  24196737.9144                   24196736.0784
  18094852.36346  14080094.32443  24414174.0704                   24414173.8094
 -13743982.50447 -10706752.50845  22339375.4304                   22339370.6914
  -9552108.64547  -7440087.59044  23379120.0004                   23379117.7814
 11  8 20 15 19  0.0000000  0 10G03G06G13G16G20G23G10G32G19G07
 -11673670.73048  -9087755.86746  21005707.4844                   21005704.9264
  -5429297.32447  -4226130.16445  22183080.4694                   22183077.8284
 -14197671.29748 -11050724.44946  20774321.1804                   20774317.9224
   8886320.10948   6919134.57445  21744880.7114                   21744877.1994
  14226179.59846  11072026.97744  23468655.5234                   23468653.4144
  -7699417.53948  -5994333.33647  20098191.0554                   20098185.6914
  -7944240.64146  -6186774.90643  24199127.2194                   24199126.5354
  18235162.99646  14189427.19543  24440874.0864                   24440873.9344
 -13774916.42247 -10730856.82045  22333488.7664                   22333484.1374
  -9562302.37547  -7448030.70344  23377180.2194                   23377177.6024
 11  8 20 15 19 30.0000000  0 10G03G06G13G16G20G23G10G32G19G07
 -11646309.34048  -9066435.31246  21010914.4924                   21010911.6294
  -5368561.87547  -4178803.86345  22194638.2974                   22194635.6724
 -14205536.91848 -11056853.49246  20772824.6644                   20772821.1524
   9010629.36748   7015998.90245  21768535.9144                   21768532.7584
  14360406.77346  11176619.50044  23494197.7344                   23494195.4264
  -7656536.36748  -5960919.44547  20106351.1174                   20106345.6214
  -7931188.06646  -6176604.04743  24201610.6024                   24201609.3284
  18375431.33646  14298727.13743  24467566.4614                   24467566.2344
 -13805542.25847 -10754721.07045  22327660.1334                   22327656.2584
  -9572483.39547  -7455963.94944  23375242.5704                   23375239.6994
 11  8 20 15 20  0.0000000  0 10G03G06G13G16G20G23G10G32G19G07
 -13193772.53948 -10272250.78946  20716442.1414                   20716439.2814
  -6882700.57047  -5358652.20745  21906507.1954                   21906504.8284
 -15788442.10548 -12290286.09446  20471607.7894                   20471603.9804
   7559761.18048   5885452.23045  21492444.9844                   21492441.2734
  12919275.00046  10053659.62144  23219960.3914                   23219957.8634
  -9188546.16448  -7154693.32447  19814819.6644                   19814814.0124
  -9493064.50046  -7393650.64143  23904395.5704                   23904393.3754
  16940231.41046  13180389.44943  24194457.0704                   24194456.3284
 -15411286.03547 -12005949.94945  22022097.6954                   22022093.4734
 -11158080.81647  -8691494.36344  23073512.7504                   23073510.9304
 11  8 20 15 20 30.0000000  0 10G03G06G13G16G20G23G10G32G19G07
 -13165214.09448 -10249997.44946  20721876.8284                   20721873.8594
  -6820870.96547  -5310473.30945  21918272.6414                   21918270.2304
 -15795537.14148 -12295814.68746  20470257.4064                   20470253.8484
   7684551.21548   5982691.20345  21516191.7664                   21516188.1724
  13053619.10247  10158343.25444  23245524.6094                   23245522.3834
  -9144601.82448  -7120450.97747  19823181.7034                   19823176.1954
  -9479023.65646  -7382709.70743  23907067.0784                   23907065.6414
  17080398.00446  13289610.11743  24221129.1804                   24221129.6334
 -15441295.99247 -12029334.28945  22016387.4304                   22016382.4774
 -11168247.16847  -8699416.18044  23071578.5474                   23071576.0664
 11  8 20 15 21  0.0000000  0 10G03G06G13G16G20G23G10G32G19G07
 -13136053.33248 -10227274.78146  20727425.6094                   20727423.2074
  -6758492.85547  -5261866.99645  21930143.4384                   21930141.0664
 -15802241.87948 -12301039.15246  20468981.7274                   20468977.7274
   7809579.11748   6080115.51245  21539984.0864                   21539980.1884
  13188018.82446  10263070.22744  23271100.2274                   23271098.1684
  -9100122.18048  -7085791.52747  19831645.7734                   19831640.1094
  -9464486.44546  -7371381.98443  23909833.3134                   23909832.8134
  17220511.55146  13398789.48043  24247792.7194                   24247792.0704
 -15470991.66447 -12052473.71545  22010736.0554                   22010731.9844
 -11178404.75047  -8707331.14844  23069645.2584                   23069643.2384
 11  8 20 15 21 30.0000000  0 10G03G06G13G16G20G23G10G32G19G07
 -13106289.09448 -10204081.87146  20733089.6724                   20733086.7814
  -6695566.30947  -5212833.34045  21942117.7814                   21942115.6214
 -15808553.72748 -12305957.46946  20467780.6954                   20467777.0664
   7934842.47748   6177723.30145  21563820.6724                   21563817.0234
  13322471.54346  10367838.53544  23296685.7894                   23296683.9224
  -9055106.70348  -7050714.53147  19840212.1334                   19840206.7384
  -9449451.95046  -7359666.80543  23912694.3204                   23912692.9264
  17360569.64546  13507925.60243  24274443.9844                   24274444.4104
 -15500369.57447 -12075365.55145  22005145.3754                   22005141.1994
 -11188553.66847  -8715239.37144  23067714.2974                   23067712.3754
 11  8 20 15 22  0.0000000  0 10G03G06G13G16G20G23G10G32G19G07
 -13075931.00848 -10180426.22346  20738866.4224                   20738863.8834
  -6632102.41447  -5163380.97745  21954194.0164                   21954192.2664
 -15814480.76648 -12310575.93446  20466652.8594                   20466649.8324
   8060327.82048   6275504.06245  21587699.3834                   21587696.1604
  13456963.50846  10472637.41444  23322279.0704                   23322276.4384
  -9009565.02048  -7015227.51247  19848878.3444                   19848872.5204
  -9433930.93446  -7347572.45743  23915647.7114                   23915646.9414
  17500558.80546  13617007.98843  24301084.1414                   24301083.2504
 -15529437.54347 -12098015.87945  21999614.1094                   21999609.9224
 -11198704.80947  -8723149.35244  23065782.9224                   23065780.4654
 11  8 20 15 22 30.0000000  0 10G03G06G13G16G20G23G10G32G19G07
 -13044970.94548 -10156301.51246  20744757.8754                   20744755.1764
  -6568094.15647  -5113504.43045  21966374.6254                   21966372.4884
 -15820013.78948 -12314887.37546  20465600.0234                   20465596.3244
   8186039.12548   6373460.89845  21611621.8754                   21611618.5044
  13591498.41846  10577469.76243  23347879.9064                   23347877.0864
  -8963489.35548  -6979324.40247  19857645.9774                   19857640.9774
  -9417915.71546  -7335093.05543  23918696.2194                   23918694.9384
  17640483.57846  13726040.21943  24327710.8834                   24327710.3834
 -15558185.71947 -12120417.01645  21994143.3594                   21994139.3364
 -11208851.91047  -8731056.12545  23063852.0314                   23063849.6604
 11  8 20 15 23  0.0000000  0 10G03G06G13G16G20G23G10G32G19G07
 -13013402.76648 -10131702.93746  20750765.2034                   20750762.1524
  -6503536.60547  -5063199.85245  21978659.7424                   21978657.4304
 -15825145.09448 -12318885.78146  20464623.2974                   20464619.3484
   8311979.30548   6471596.08245  21635587.5004                   21635583.7704
  13726078.88346  10682337.60544  23373490.1174                   23373486.8554
  -8916872.80548  -6942999.82447  19866517.0314                   19866511.4734
  -9401400.62546  -7322224.12943  23921838.4144                   23921837.2774
  17780346.85946  13835024.51243  24354326.3674                   24354326.0204
 -15586605.40647 -12142562.18445  21988735.1564                   21988730.6374
 -11218989.25047  -8738955.33645  23061923.1884                   23061920.5274
 11  8 20 15 23 30.0000000  0 10G03G06G13G16G20G23G10G32G19G07
 -12981226.53948 -10106630.55546  20756888.0474                   20756885.7424
  -6438431.27747  -5012468.44545  21991048.8754                   21991046.6884
 -15829873.48448 -12322570.23446  20463723.1724                   20463719.8134
   8438144.47748   6569906.59445  21659595.7424                   21659592.1604
  13860700.75846  10787237.71943  23399107.0784                   23399105.0234
  -8869715.93048  -6906254.22347  19875490.8594                   19875485.3404
  -9384386.18846  -7308966.10943  23925075.2974                   23925075.5164
  17920144.71946  13943957.85943  24380928.5004                   24380928.1414
 -15614694.80147 -12164449.97745  21983390.3054                   21983385.7814
 -11229118.75047  -8746848.41044  23059995.0704                   23059992.5824
 11  8 20 15 24  0.0000000  0 10G03G06G13G16G20G23G10G32G19G07
 -12948445.40648 -10081086.82446  20763126.4224                   20763123.7274
  -6372782.41847  -4961313.51645  22003541.7344                   22003539.3754
 -15834200.63348 -12325942.02746  20462900.3284                   20462896.9104
   8564527.96547   6668387.21545  21683645.8524                   21683642.6214
  13995357.16446  10892164.72344  23424732.2194                   23424729.5204
  -8822021.75448  -6869089.93447  19884566.5554                   19884561.1054
  -9366876.25046  -7295321.97343  23928408.8204                   23928406.9734
  18059870.87146  14052835.30543  24407517.8204                   24407517.7424
 -15642454.64547 -12186080.97745  21978107.3054                   21978103.6844
 -11239244.15647  -8754738.30144  23058068.0234                   23058065.7854
 11  8 20 15 24 30.0000000  0 10G03G06G13G16G20G23G10G32G19G07
 -12915059.35248 -10055071.70346  20769479.1804                   20769476.5824
  -6306591.43047  -4909736.11345  22016137.3524                   22016134.8324
 -15838125.41048 -12329000.28946  20462153.2664                   20462149.6484
   8691125.87148   6767034.90245  21707736.6414                   21707733.0864
  14130044.05146  10997115.50043  23450361.5164                   23450359.2734
  -8773790.41848  -6831507.07847  19893744.6024                   19893739.1094
  -9348871.62946  -7281292.39143  23931834.7344                   23931833.5434
  18199521.47746  14161653.87943  24434092.8134                   24434092.1804
 -15669883.12547 -12207453.76245  21972887.8364                   21972883.4734
 -11249367.09847  -8762626.29344  23056141.4844                   23056139.5784
 11  8 20 15 25  0.0000000  0 10G03G06G13G16G20G23G10G32G19G07
 -12881066.86748 -10028584.05946  20775947.8364                   20775945.8284
  -6239858.23447  -4857736.21945  22028836.0554                   22028834.2624
 -15841644.87948 -12331742.71946  20461483.2664                   20461479.3714
   8817935.98848   6865847.96545  21731868.0554                   21731864.0234
  14264758.88346  11102088.03944  23475997.6094                   23475995.1174
  -8725020.62948  -6793504.65647  19903025.2274                   19903019.8054
  -9330371.41846  -7266876.60243  23935356.0554                   23935354.0744
  18339094.50846  14270412.05543  24460652.0784                   24460652.1684
 -15696976.56647 -12228565.49245  21967732.4224                   21967727.7624
 -11259487.07047  -8770511.93744  23054216.5394                   23054213.8834
 11  8 20 15 25 30.0000000  0 10G03G06G13G16G20G23G10G32G19G07
 -12846460.21148 -10001617.84446  20782533.4064                   20782530.8164
  -6172576.21947  -4805308.68845  22041639.3204                   22041636.9454
 -15844749.80148 -12334162.13746  20460892.3754                   20460889.0864
   8944962.71147   6964829.81645  21756040.4224                   21756036.3164
  14399505.39546  11207085.24644  23501638.6094                   23501636.8914
  -8675704.43848  -6755076.46947  19912409.7034                   19912404.3874
  -9311368.55946  -7252069.16043  23938971.0394                   23938970.5824
  18478594.52746  14379113.30943  24487198.2424                   24487197.9534
 -15723724.93048 -12249408.32845  21962642.4064                   21962637.8204
 -11269597.34447  -8778390.03145  23052292.3754                   23052290.1214
 11  8 20 15 26  0.0000000  0 10G03G06G13G16G20G23G10G32G19G07
 -12811236.77347  -9974171.00446  20789236.2974                   20789233.5314
  -6104743.93447  -4752452.37145  22054547.8914                   22054545.2234
 -15847435.75848 -12336255.08246  20460381.3134                   20460377.9224
   9072205.34047   7063979.89545  21780253.8204                   21780250.5354
  14534282.68446  11312106.44943  23527285.9534                   23527283.6484
  -8625839.51248  -6716220.67647  19921898.8834                   19921893.7114
  -9291860.49646  -7236868.02743  23942683.0314                   23942682.9344
  18618020.94146  14487757.23043  24513730.2974                   24513730.3484
 -15750123.41447 -12269978.53545  21957618.6804                   21957614.3244
 -11279696.36747  -8786259.35944  23050370.6564                   23050368.0554
 11  8 20 15 26 30.0000000  0 10G03G06G13G16G20G23G10G32G19G07
 -12775409.48848  -9946253.63346  20796053.5864                   20796051.1914
  -6036375.59847  -4699178.35545  22067558.0864                   22067555.6374
 -15849714.42648 -12338030.65646  20459947.5864                   20459944.3714
   9199647.24647   7163285.24645  21804505.1174                   21804501.6254
  14669074.16046  11417138.68044  23552936.4774                   23552934.4414
  -8575438.60248  -6676947.25447  19931489.6484                   19931484.2344
  -9271861.33546  -7221284.22443  23946488.6254                   23946488.0204
  18757357.21546  14596330.89543  24540244.5474                   24540244.9144
 -15776182.79747 -12290284.51245  21952660.0314                   21952655.6094
 -11289798.02047  -8794130.72745  23048448.0234                   23048445.1604
 11  8 20 15 27  0.0000000  0 10G03G06G13G16G20G23G10G32G19G07
 -12738972.36748  -9917861.08646  20802987.6414                   20802985.0904
  -5967466.66047  -4645483.09445  22080670.1254                   22080668.3134
 -15851578.48448 -12339483.16846  20459592.9304                   20459589.4774
   9327290.98447   7262747.87545  21828795.1094                   21828791.3484
  14803881.99646  11522183.68044  23578588.7974                   23578587.2194
  -8524495.73448  -6637251.52347  19941183.5554                   19941178.5784
  -9251365.39846  -7205313.34843  23950388.3754                   23950387.7704
  18896606.21146  14704836.52743  24566743.9064                   24566742.9574
 -15801894.86347 -12310319.83245  21947766.7344                   21947762.2934
 -11299897.37947  -8802000.30144  23046525.9694                   23046523.7114
 11  8 20 15 27 30.0000000  0 10G03G06G13G16G20G23G10G32G19G07
 -12701921.67248  -9888990.41046  20810037.8364                   20810035.6884
  -5898014.63747  -4591364.63745  22093886.8284                   22093884.9184
 -15853022.79348 -12340608.58646  20459318.0474                   20459314.6884
   9455136.72347   7362367.91445  21853123.5634                   21853119.2854
  14938705.94146  11627241.22744  23604245.4774                   23604243.4144
  -8473007.61748  -6597130.91847  19950981.5784                   19950976.3164
  -9230370.01646  -7188953.26644  23954384.1334                   23954383.7934
  19035768.17246  14813274.30943  24593225.7274                   24593225.1254
 -15827253.86747 -12330080.06245  21942940.9064                   21942936.6884
 -11309991.91047  -8809866.13744  23044605.0704                   23044602.1524
 11  8 20 15 28  0.0000000  0 10G03G06G13G16G20G23G10G32G19G07
 -12664261.20348  -9859644.60246  20817204.8204                   20817202.0634
  -5828024.55547  -4536826.92645  22107205.6254                   22107203.5314
 -15854049.30548 -12341408.44946  20459123.0554                   20459119.1334
   9583177.30147   7462139.77045  21877488.0164                   21877485.3204
  15073538.79747  11732305.74244  23629902.9064                   23629901.5744
  -8420977.51248  -6556587.99247  19960882.9694                   19960877.5594
  -9208879.05146  -7172207.03143  23958473.6174                   23958473.3524
  19174836.18846  14921638.90243  24619688.9694                   24619689.3794
 -15852261.00847 -12349566.09445  21938182.1334                   21938178.0904
 -11320085.95347  -8817731.58244  23042684.4454                   23042682.2034
 11  8 20 15 28 30.0000000  0 10G03G06G13G16G20G23G10G32G19G07
 -12625992.19547  -9829824.59046  20824486.6024                   20824484.1914
  -5757498.93047  -4481871.91445  22120626.2894                   22120623.9144
 -15854657.75448 -12341882.55946  20459006.9224                   20459003.8094
   9711407.98847   7562059.77045  21901889.7974                   21901886.8524
  15208375.57047  11837373.27744  23655562.4224                   23655560.1764
  -8368407.09048  -6515624.03947  19970886.5314                   19970881.2974
  -9186894.84046  -7155076.45743  23962656.9454                   23962656.1954
  19313805.58246  15029926.68843  24646133.5234                   24646133.7074
 -15876915.42247 -12368777.29745  21933490.6564                   21933485.9264
 -11330181.92647  -8825598.52344  23040762.9144                   23040760.8484
 11  8 20 15 29  0.0000000  0 10G03G06G13G16G20G23G10G32G19G07
 -12587111.82048  -9799528.20746  20831885.7274                   20831883.0394
  -5686436.14547  -4426498.33245  22134148.4614                   22134146.7344
 -15854843.84448 -12342027.54746  20458971.7034                   20458968.2114
   9839828.43747   7662127.60945  21926327.8914                   21926324.1994
  15343215.70346  11942443.47344  23681221.1094                   23681219.1684
  -8315293.18448  -6474236.58647  19980993.8834                   19980988.4494
  -9164414.72746  -7137559.47744  23966935.1414                   23966934.4024
  19452676.36346  15138137.64143  24672560.3914                   24672560.3754
 -15901211.89148 -12387709.57845  21928866.9534                   21928863.0084
 -11340277.70347  -8833465.33644  23038842.4614                   23038839.3674
 11  8 20 15 29 30.0000000  0 10G03G06G13G16G20G23G10G32G19G07
 -12547613.32448  -9768750.16446  20839401.9774                   20839399.6604
  -5614830.40647  -4370701.66845  22147774.9614                   22147772.6054
 -15854598.76248 -12341836.57446  20459018.8364                   20459014.9574
   9968442.43747   7762346.28145  21950802.0634                   21950798.4304
  15478062.62147  12047518.91944  23706882.0234                   23706879.7854
  -8261628.80548  -6432420.19147  19991205.8444                   19991200.1604
  -9141432.32846  -7119651.10544  23971308.5234                   23971308.0784
  19591452.21146  15246274.58642  24698968.4534                   24698968.0594
 -15925140.96147 -12406355.56645  21924313.6644                   21924309.4614
 -11350367.02747  -8841327.10945  23036921.6884                   23036919.7074
 11  8 20 15 30  0.0000000  0 10G03G06G13G16G20G23G10G32G19G07
 -12507503.88748  -9737496.05146  20847034.2504                   20847032.2774
  -5542690.50447  -4314488.77345  22161502.9844                   22161500.6844
 -15853928.57448 -12341314.34446  20459145.9614                   20459142.4144
  10097239.24247   7862707.39845  21975311.5084                   21975307.7114
  15612905.02346  12152590.88743  23732541.5474                   23732539.2194
  -8207421.47348  -6390180.72747  20001520.9844                   20001515.9384
  -9117955.44546  -7101357.42244  23975776.5394                   23975775.8284
  19730122.68046  15354329.43042  24725356.5314                   24725357.2424
 -15948707.75448 -12424719.27046  21919828.8914                   21919824.9804
 -11360457.90647  -8849190.09044  23035001.4694                   23034998.8014
 11  8 20 15 30 30.0000000  0 10G03G06G13G16G20G23G10G32G19G07
 -12466783.56348  -9705765.93046  20854783.3364                   20854781.1914
  -5470017.61347  -4257860.55145  22175331.7894                   22175330.1724
 -15852831.85548 -12340459.75046  20459354.5634                   20459351.1214
  10226215.41047   7963208.27045  21999854.8524                   21999851.4614
  15747739.50446  12257656.64843  23758199.9064                   23758197.7274
  -8152671.20348  -6347518.18847  20011939.9144                   20011934.6954
  -9093984.93446  -7082679.06644  23980337.8134                   23980337.4414
  19868684.594 5                  24751723.500
 -15971910.25047 -12442799.10245  21915413.6254                   21915409.8284
 -11370551.39147  -8857055.14145  23033080.8204                   23033078.0634
 11  8 20 15 31  0.0000000  0 10G03G06G13G16G20G23G10G32G19G07
 -12425448.28548  -9673556.62546  20862649.1484                   20862646.6764
  -5396808.76247  -4200814.69545  22189263.1954                   22189260.8054
 -15851302.36748 -12339267.95346  20459645.5084                   20459642.0394
  10355372.24647   8063849.93045  22024432.4384                   22024429.4924
  15882567.04346  12362716.98044  23783856.2664                   23783854.0394
  -8097373.80148  -6304429.30547  20022462.3594                   20022457.0664
  -9069516.94146  -7063613.09444  23984993.1024                   23984992.9344
  20007139.250 5                  24778070.492
 -15994741.55947 -12460589.70745  21911069.1954                   21911064.8754
 -11380644.15647  -8864919.57845  23031160.3594                   23031158.2194
 11  8 20 15 31 30.0000000  0 10G03G06G13G16G20G23G10G32G19G07
 -12383500.99648  -9640870.41446  20870631.8364                   20870628.9804
  -5323067.93847  -4143354.31345  22203295.5784                   22203293.0164
 -15849340.99248 -12337739.60546  20460018.9614                   20460015.1294
  10484703.65247   8164627.60945  22049043.4694                   22049039.7664
  16017381.31246  12467767.02043  23809510.3204                   23809509.0594
  -8041531.87948  -6260916.12547  20033088.8674                   20033083.6024
  -9044554.67246  -7044161.96544  23989744.0234                   23989743.3244
  20145480.96115                  24804394.781
 -16017202.05147 -12478091.36746  21906794.9534                   21906790.9224
 -11390739.29747  -8872785.91045  23029239.1724                   23029237.3244
 11  8 20 15 32  0.0000000  0 10G03G06G13G16G20G23G10G32G19G07
 -12340942.07848  -9607707.62146  20878730.3444                   20878728.0274
  -5248797.07847  -4085480.93045  22217429.2114                   22217426.4654
 -15846947.04348 -12335874.19546  20460474.3134                   20460470.7234
  10614205.78547   8265538.32845  22073687.0314                   22073683.1414
  16152178.09446  12572803.39143  23835161.6724                   23835159.9774
  -7985145.88748  -6216978.99647  20043819.1024                   20043813.5744
  -9019099.62546  -7024326.83644  23994587.7894                   23994587.0744
  20283705.76246  15463684.73853  24830700.1254                   24830699.8404
 -16039290.25048 -12495302.93746  21902591.6724                   21902587.3404
 -11400838.16447  -8880655.16845  23027317.6884                   23027315.3244
 11  8 20 15 32 30.0000000  0  9G03G06G13G16G20G23G10G19G07
 -12297768.91448  -9574066.20746  20886945.9454                   20886943.2344
  -5173994.70747  -4027193.36745  22231663.3364                   22231660.8834
 -15844116.10548 -12333668.26646  20461013.1564                   20461009.8094
  10743878.28148   8366581.79745  22098363.0474                   22098359.3134
  16286956.49646  12677825.42243  23860809.2814                   23860807.6334
  -7928213.76248  -6172616.31647  20054652.9304                   20054647.2974
  -8993149.63346  -7004106.04744  23999526.0704                   23999525.2704
 -16061001.16448 -12512220.50845  21898460.2814                   21898455.6094
 -11410938.88747  -8888525.84445  23025395.0554                   23025392.4414
 11  8 20 15 33  0.0000000  0 10G03G06G13G16G20G23G10G08G19G07
 -12253981.48847  -9539946.12546  20895278.0704                   20895275.8524
  -5098661.98847  -3968492.56645  22245998.9694                   22245996.5204
 -15840846.60248 -12331120.59846  20461635.0704                   20461631.8484
  10873718.14548   8467755.68845  22123070.5234                   22123067.0354
  16421713.65246  12782830.94144  23886453.3134                   23886451.4534
  -7870735.27048  -6127827.88747  20065590.1804                   20065585.0944
  -8966705.05546  -6983499.86744  24004557.7344                   24004556.8634
  -9468836.55156  -7374588.14153  25069335.0234                   25069335.4414
 -16082331.80548 -12528841.75045  21894401.1724                   21894397.1094
 -11421042.00047  -8896398.36745  23023472.6804                   23023469.9304
 11  8 20 15 33 30.0000000  0 10G03G06G13G16G20G23G10G08G19G07
 -12209576.43048  -9505344.79346  20903728.5234                   20903725.5164
  -5022796.87947  -3909376.89845  22260435.0004                   22260432.8954
 -15837133.26248 -12328227.09046  20462341.9224                   20462338.1374
  11003725.75048   8569060.28145  22147810.2344                   22147807.1484
  16556449.61347  12887819.90643  23912092.4694                   23912090.8204
  -7812706.70748  -6082610.82847  20076632.6644                   20076627.3794
  -8939763.33646  -6962506.32044  24009685.0554                   24009684.2504
  -9484850.88746  -7387066.76243  25066287.3914                   25066287.8914
 -16103276.57448 -12545162.33646  21890415.5554                   21890411.3874
 -11431144.43047  -8904270.37945  23021550.5864                   23021547.6604
 11  8 20 15 34  0.0000000  0 10G03G06G13G16G20G23G10G08G19G07
 -12164554.75848  -9470262.96146  20912295.6804                   20912292.9104
  -4946401.41047  -3849847.98445  22274973.2584                   22274970.6804
 -15832975.23048 -12324987.05546  20463133.3444                   20463129.4734
  11133897.03948   8670492.41445  22172581.0634                   22172577.5354
  16691160.33646  12992789.26243  23937727.3914                   23937724.9144
  -7754128.58248  -6036965.54747  20087779.9384                   20087774.4534
  -8912325.77346  -6941126.39144  24014906.3444                   24014906.0084
  -9500920.13346  -7399588.19543  25063228.9384                   25063229.8594
 -16123833.85247 -12561180.96946  21886503.4304                   21886498.9574
 -11441247.66047  -8912143.02045  23019627.5084                   23019625.0864
 11  8 20 15 34 30.0000000  0 10G03G06G13G16G20G23G10G08G19G07
 -12118910.26248  -9434695.82446  20920981.4694                   20920978.9964
  -4869470.38347  -3789901.72345  22289612.3914                   22289609.8014
 -15828364.34048 -12321394.14546  20464010.4304                   20464006.9304
  11264235.72348   8772054.99645  22197383.7584                   22197379.9774
  16825848.48046  13097740.98043  23963357.3524                   23963355.7384
  -7694995.03148  -5990887.46147  20099032.8834                   20099027.5004
  -8884386.29346  -6919355.35243  24020223.3364                   24020221.7504
  -9517039.28946  -7412148.51642  25060161.9924                   25060161.8244
 -16143994.99248 -12576890.92646  21882667.1334                   21882662.7974
 -11451345.71547  -8920011.58245  23017706.3914                   23017703.5824
 11  8 20 15 35  0.0000000  0 10G03G06G13G16G20G23G10G08G19G07
 -12072648.66848  -9398647.82846  20929784.7344                   20929782.2854
  -4792011.05947  -3729543.80945  22304352.6564                   22304350.0474
 -15823304.91448 -12317451.73446  20464973.0864                   20464970.0664
  11394732.73048   8873740.94545  22222216.3984                   22222213.1414
  16960505.18046  13202668.20743  23988982.3134                   23988979.3834
  -7635311.78548  -5944381.05147  20110390.0784                   20110385.0704
  -8855951.39546  -6897198.30544  24025633.9774                   24025632.9964
  -9533214.93846  -7424752.86343  25057083.3674                   25057083.5474
 -16163763.25048 -12592294.74646  21878905.1804                   21878901.1884
 -11461444.96547  -8927881.11345  23015784.8284                   23015781.7344
 11  8 20 15 35 30.0000000  0 10G03G06G13G16G20G23G10G08G19G07
 -12025761.69148  -9362112.52746  20938707.0704                   20938704.8364
  -4714016.30547  -3668768.68845  22319194.0084                   22319192.5554
 -15817786.65648 -12313151.78946  20466023.3594                   20466019.6954
  11525393.57847   8975554.54345  22247080.2504                   22247076.4924
  17095135.61746  13307575.00843  24014600.9454                   24014598.8364
  -7575070.48048  -5897439.77747  20121853.5234                   20121848.2154
  -8827013.31346  -6874649.14543  24031140.5474                   24031139.6644
  -9549439.39846  -7437395.22342  25053996.4924                   25053996.6214
 -16183127.50048 -12607383.75846  21875220.1954                   21875216.0514
 -11471537.57447  -8935745.44945  23013863.3914                   23013861.3984
 11  8 20 15 36  0.0000000  0 10G03G06G13G16G20G23G10G08G19G07
 -11978252.65248  -9325092.49246  20947747.4304                   20947745.0904
  -4635490.34447  -3607579.62545  22334137.4224                   22334135.2194
 -15811810.87948 -12308495.32846  20467160.6024                   20467156.7584
  11656212.24247   9077491.13745  22271974.3914                   22271970.8754
  17229733.62946  13412456.48043  24040213.8834                   24040212.4574
  -7514274.23048  -5850066.09047  20133422.7344                   20133417.4064
  -8797575.76646  -6851710.77043  24036742.9304                   24036740.9884
  -9565716.93046  -7450078.98843  25050898.8594                   25050899.2934
 -16202088.68848 -12622158.69946  21871611.9144                   21871607.6764
 -11481627.03147  -8943607.31645  23011943.6254                   23011941.2894
 11  8 20 15 36 30.0000000  0 10G03G06G13G16G20G23G10G08G19G07
 -11930122.19147  -9287588.22746  20956906.8754                   20956904.1054
  -4556435.14547  -3545978.19545  22349180.9534                   22349179.0634
 -15805376.36748 -12303481.42246  20468385.2664                   20468381.7154
  11787185.09047   9179547.86345  22296897.9224                   22296894.0164
  17364295.35246  13517309.68843  24065820.1414                   24065818.3244
  -7452923.44948  -5802260.28947  20145097.3524                   20145092.5904
  -8767639.87946  -6828384.11743  24042438.8134                   24042438.0314
  -9582049.11346  -7462805.34042  25047791.4144                   25047790.9384
 -16220644.83648 -12636618.02746  21868080.9144                   21868076.4144
 -11491714.02347  -8951467.28145  23010024.2894                   23010021.7274
 11  8 20 15 37  0.0000000  0 10G03G06G13G16G20G23G10G08G19G07
 -13456779.07448 -10477190.98846  20666393.6174                   20666391.6024
  -6052259.38347  -4711555.52745  22064535.7584                   22064532.4144
 -17373891.38748 -13525700.91046  20169906.3834                   20169902.9574
  10342903.65247   8054133.72745  22022060.1804                   22022056.6024
  15923411.85246  12394543.24643  23791630.1024                   23791627.1564
  -8966426.46148  -6981613.30147  19857087.1414                   19857081.9844
 -10312615.59046  -8032261.28143  23748439.7894                   23748438.4454
 -11173847.47345  -8703167.62543  24744881.4774                   24744881.9454
 -17814203.90248 -13878352.33646  21564836.5474                   21564832.0824
 -13077209.80947 -10186918.51645  22708314.2344                   22708311.6524
 11  8 20 15 37 30.0000000  0 10G03G06G13G16G20G23G10G08G19G07
 -13407407.66048 -10438719.75846  20675788.5004                   20675785.8874
  -5972150.87947  -4649133.32445  22079779.2274                   22079777.3554
 -17366535.80548 -13519969.28546  20171306.3834                   20171302.6564
  10474175.18747   8156423.19945  22047039.6254                   22047036.8094
  16057889.92246  12499331.31643  23817219.9924                   23817217.5634
  -8903968.61348  -6932944.84847  19868972.6024                   19868967.3444
 -10281686.35946  -8008160.57043  23754324.8984                   23754324.5474
 -11190292.68046  -8715982.00843  24741752.3754                   24741753.1054
 -17831943.81648 -13892175.62946  21561460.6484                   21561456.0824
 -13087295.07447 -10194777.13345  22706394.8284                   22706393.0044
 11  8 20 15 38  0.0000000  0 10G03G06G13G16G20G23G10G08G19G07
 -13357410.39848 -10399760.85246  20685302.7974                   20685300.0354
  -5891512.13347  -4586297.95345  22095124.4614                   22095122.2704
 -17358711.45748 -13513872.37546  20172795.1484                   20172791.5864
  10605597.66847   8258830.27745  22072049.4924                   22072045.7234
  16192327.26646  12604087.61344  23842802.7194                   23842800.9844
  -8840951.48448  -6883840.60547  19880964.6724                   19880959.5474
 -10250255.85546  -7983669.24243  23760305.8594                   23760305.3054
 -11206789.91046  -8728836.91443  24738613.1484                   24738613.4384
 -17849266.57047 -13905673.85546  21558164.5164                   21558159.9654
 -13097374.28947 -10202631.02345  22704476.7504                   22704475.3484
 11  8 20 15 38 30.0000000  0 10G03G06G13G16G20G23G10G08G19G07
 -13306786.65648 -10360313.78146  20694935.9454                   20694933.5664
  -5810343.37547  -4523049.59445  22110570.4774                   22110568.5784
 -17350416.00448 -13507408.38346  20174373.9924                   20174370.1564
  10737168.58647   8361353.02745  22097086.5394                   22097083.1764
  16326721.46947  12708810.29344  23868377.8444                   23868375.4264
  -8777374.50848  -6834300.11747  19893062.6644                   19893057.5474
 -10218323.58646  -7958786.95743  23766383.0314                   23766381.5704
 -11223339.46546  -8741732.58643  24735464.0084                   24735464.5274
 -17866168.42247 -13918844.11746  21554948.0234                   21554943.2424
 -13107447.01647 -10210479.88345  22702560.5704                   22702557.7194
 11  8 20 15 39  0.0000000  0 10G03G06G13G16G20G23G10G08G19G07
 -13255534.39148 -10320376.94946  20704688.8674                   20704686.9304
  -5728643.88347  -4459387.65245  22126117.2894                   22126115.0274
 -17341644.93448 -13500573.77046  20176042.5944                   20176039.1804
  10868887.55147   8463991.14545  22122152.1884                   22122148.6524
  16461072.03946  12813498.97743  23893943.6884                   23893941.5434
  -8713235.29748  -6784321.52047  19905268.1174                   19905262.6564
 -10185887.97346  -7933512.45743  23772555.5784                   23772553.5234
 -11239939.64846  -8754667.72743  24732304.8984                   24732304.8794
 -17882644.74247 -13931682.79346  21551812.4774                   21551808.0784
 -13117510.96547 -10218321.87945  22700645.6804                   22700642.7934
 11  8 20 15 39 30.0000000  0 10G03G06G13G16G20G23G10G08G19G07
 -13203662.23448 -10279957.09046  20714560.1254                   20714557.5864
  -5646423.42647  -4395319.78545  22141763.7734                   22141760.7464
 -17332405.30148 -13493374.05146  20177800.9384                   20177797.6094
  11000743.49247   8566736.00845  22147243.2504                   22147239.4884
  16595367.09046  12918144.41043  23919498.4224                   23919497.3164
  -8648542.63348  -6733911.66047  19917578.6804                   19917573.3954
 -10152958.08646  -7907852.78543  23778821.6724                   23778820.3364
 -11256599.85546  -8767649.59843  24729134.2274                   24729134.4384
 -17898701.77347 -13944194.74246  21548757.3834                   21548752.1454
 -13127575.26247 -10226164.14845  22698729.8524                   22698728.1174
 11  8 20 15 40  0.0000000  0 10G03G06G13G16G20G23G10G08G19G07
 -13151157.37948 -10239044.21146  20724551.5554                   20724548.6024
  -5563670.53947  -4330837.02345  22157510.8524                   22157508.2234
 -17322682.44148 -13485797.79346  20179651.5864                   20179647.8054
  11132746.60547   8669595.53945  22172362.6024                   22172359.1454
  16729616.54746  13022754.28543  23945045.5704                   23945044.1094
  -8583283.58248  -6683060.44547  19929997.1174                   19929991.8404
 -10119521.79746  -7881798.55143  23785183.9774                   23785182.8834
 -11273308.04746  -8780668.92643  24725955.2504                   24725954.7774
 -17914324.03547 -13956367.91846  21545784.5474                   21545780.0984
 -13137627.05147 -10233996.69545  22696817.3364                   22696814.7344
 11  8 20 15 40 30.0000000  0 10G03G06G13G16G20G23G10G08G19G07
 -13098033.32848 -10197648.83646  20734660.7034                   20734658.1764
  -5480399.61747  -4265950.60945  22173356.3524                   22173354.5164
 -17312487.66848 -13477853.80946  20181591.3364                   20181587.7034
  11264880.82447   8772557.21945  22197507.3594                   22197503.5234
  16863804.30946  13127316.11743  23970580.2344                   23970579.1914
  -8517471.30148  -6631778.16047  19942520.5394                   19942515.4414
 -10085593.07046  -7855360.56643  23791640.5394                   23791639.2664
 -11290078.05546  -8793736.35243  24722763.2424                   24722762.9804
 -17929521.98847 -13968210.45746  21542892.3674                   21542887.8244
 -13147679.95747 -10241830.09045  22694903.9924                   22694901.4064
 11  8 20 15 41  0.0000000  0 10G03G06G13G16G20G23G10G08G19G07
 -13044291.68048 -10155772.21946  20744886.9924                   20744884.6454
  -5396613.40247  -4200662.66045  22189300.8364                   22189298.6604
 -17301820.53948 -13469541.76246  20183621.0164                   20183617.7504
  11397142.16847   8875617.97345  22222675.6804                   22222671.8244
  16997926.09046  13231826.50443  23996103.7274                   23996101.6844
  -8451107.50448  -6580066.12547  19955149.5004                   19955143.9494
 -10051173.60946  -7828540.18443  23798190.0864                   23798189.1684
 -11306911.82846  -8806853.48843  24719560.6024                   24719560.2194
 -17944294.56648 -13979721.53146  21540080.9534                   21540076.5744
 -13157735.52047 -10249665.56345  22692990.8524                   22692988.3054
 11  8 20 15 41 30.0000000  0 10G03G06G13G16G20G23G10G08G19G07
 -12989929.05148 -10113411.72346  20755232.2344                   20755229.4534
  -5312309.63347  -4134971.42645  22205343.0944                   22205340.1844
 -17290675.76648 -13460857.52346  20185742.2274                   20185738.1844
  11529531.45347   8978778.42245  22247868.2114                   22247864.9024
  17131982.59446  13336286.02743  24021614.3204                   24021611.8714
  -8384188.52348  -6527921.47747  19967883.5704                   19967878.1094
 -10016260.42646  -7801335.12543  23804833.8444                   23804833.0864
 -11323806.49646  -8820018.03143  24716344.6884                   24716345.4884
 -17958635.68048 -13990896.40646  21537352.0864                   21537347.5084
 -13167790.17647 -10257500.33245  22691077.3204                   22691074.9414
 11  8 20 15 42  0.0000000  0 10G03G06G13G16G20G23G10G08G19G07
 -12934939.84848 -10070563.00046  20765696.0084                   20765693.3484
  -5227483.39447  -4068873.07245  22221484.6644                   22221482.5124
 -17279045.19948 -13451794.73446  20187955.0554                   20187951.7154
  11662052.18747   9082041.28945  22273085.5474                   22273083.0394
  17265976.91846  13440697.11343  24047112.0234                   24047110.1954
  -8316708.25848  -6475339.45346  19980724.5394                   19980719.2114
  -9980848.09046  -7773741.10943  23811572.7504                   23811570.9844
 -11340756.83646  -8833226.00443  24713119.2814                   24713119.8014
 -17972536.94947 -14001728.53946  21534706.6724                   21534702.1604
 -13177837.69947 -10265329.53945  22689165.2274                   22689163.0084
 11  8 20 15 42 30.0000000  0 10G03G06G13G16G20G23G10G08G19G07
 -12879328.72348 -10027229.66046  20776278.7344                   20776275.7114
  -5142140.68847  -4002372.26745  22237725.2814                   22237722.3834
 -17266931.91448 -13442355.82046  20190260.3054                   20190256.7194
  11794697.22747   9185401.02045  22298327.7734                   22298324.7344
  17399901.42246  13545053.77743  24072596.8594                   24072595.6334
  -8248671.61748  -6422323.89847  19993671.5554                   19993666.1524
  -9944941.92646  -7745762.27543  23818405.4614                   23818403.7274
 -11357768.07846  -8846481.39843  24709883.0554                   24709882.1294
 -17986000.24248 -14012219.39846  21532144.8134                   21532139.9654
 -13187882.93047 -10273156.95745  22687253.2034                   22687250.7664
 11  8 20 15 43  0.0000000  0 10G03G06G13G16G20G23G10G08G19G07
 -12823095.76248  -9983411.77346  20786979.3914                   20786976.6564
  -5056282.64847  -3935469.89845  22254063.5164                   22254060.7074
 -17254333.77348 -13432539.09446  20192657.6094                   20192653.9144
  11927464.53147   9288856.01245  22323592.2734                   22323588.6644
  17533754.01646  13649354.40643  24098068.8834                   24098066.4224
  -8180078.30548  -6368874.57446  20006724.1334                   20006719.1094
  -9908542.40246  -7717399.02743  23825332.0234                   23825330.1254
 -11374840.26646  -8859784.27043  24706633.6024                   24706633.4344
 -17999022.73848 -14022366.78546  21529666.5704                   21529661.8984
 -13197925.80547 -10280982.55945  22685342.9924                   22685340.3284
 11  8 20 15 43 30.0000000  0 10G03G06G13G16G20G23G10G08G19G07
 -12766238.93048  -9939107.74246  20797798.8364                   20797796.2584
  -4969908.33647  -3868165.26245  22270500.0634                   22270498.0554
 -17241246.81648 -13422341.45746  20195148.0164                   20195144.4964
  12060353.43047   9392405.77345  22348880.3834                   22348876.9804
  17667533.71546  13753598.23443  24123526.5164                   24123523.9494
  -8110926.22348  -6314989.84446  20019883.6804                   20019878.4924
  -9871647.90246  -7688650.07843  23832353.1024                   23832351.0474
 -11391971.78946  -8873133.38743  24703372.6094                   24703373.0784
 -18011599.94147 -14032167.17646  21527273.2814                   21527268.5904
 -13207964.15247 -10288804.60545  22683432.2894                   22683429.7894
 11  8 20 15 44  0.0000000  0 10G03G06G13G16G20G23G10G08G19G07
 -12708757.34848  -9894316.90646  20808737.1024                   20808734.7854
  -4883017.72747  -3800458.29345  22287034.4454                   22287032.1094
 -17227667.57448 -13411760.23046  20197732.0084                   20197728.1844
  12193362.90647   9496049.48045  22374190.9924                   22374187.9494
  17801239.10946  13857784.19143  24148969.5784                   24148967.0204
  -8041214.13348  -6260668.74646  20033149.1954                   20033143.8914
  -9834257.73846  -7659514.87543  23839467.7194                   23839466.5634
 -11409162.02346  -8886528.30943  24700102.2504                   24700102.3364
 -18023727.53547 -14041617.23046  21524965.3984                   21524960.5784
 -13217996.72347 -10296622.16045  22681522.8054                   22681520.3794
 11  8 20 15 44 30.0000000  0 10G03G06G13G16G20G23G10G08G19G07
 -12650651.65648  -9849039.75045  20819794.3984                   20819791.4734
  -4795612.91447  -3732350.66845  22303667.4774                   22303665.1994
 -17213595.11748 -13400794.67646  20200409.8674                   20200405.9344
  12326489.99647   9599784.82445  22399524.9224                   22399521.7664
  17934866.75446  13961909.53943  24174397.3984                   24174396.0354
  -7970942.64148  -6205911.75446  20046521.4144                   20046516.3444
  -9796373.31646  -7629994.56643  23846677.3594                   23846675.8484
 -11426412.30546  -8899970.01243  24696819.5634                   24696819.9774
 -18035403.94147 -14050715.71146  21522743.3364                   21522738.9844
 -13228023.90647 -10304435.52745  22679615.1174                   22679612.2234
 11  8 20 15 45  0.0000000  0 10G03G06G13G16G20G23G10G08G19G07
 -12591922.57048  -9803276.83246  20830969.8204                   20830967.7774
  -4707695.15647  -3663843.32445  22320397.6254                   22320395.2704
 -17199027.81248 -13389443.52046  20203182.3284                   20203178.4184
  12459731.90247   9703609.63745  22424879.7194                   22424876.4574
  18068413.91846  14065972.23443  24199811.1644                   24199809.1954
  -7900112.30148  -6150719.29746  20060000.0554                   20059994.6884
  -9757995.27346  -7600089.61343  23853980.7664                   23853978.4454
 -11443723.32446  -8913459.02743  24693524.8284                   24693525.0554
 -18046626.81647 -14059460.78946  21520607.9224                   21520603.2734
 -13238045.77747 -10312244.74245  22677708.1954                   22677705.4024
 11  8 20 15 45 30.0000000  0 10G03G06G13G16G20G23G10G08G19G07
 -12532566.91448  -9757025.68446  20842265.3674                   20842262.8554
  -4619262.40647  -3594934.69945  22337225.7504                   22337223.5514
 -17183960.16848 -13377702.48446  20206049.1884                   20206045.5864
  12593089.73147   9807524.79745  22450256.7814                   22450253.2504
  18201881.56346  14169972.89843  24225208.4224                   24225207.9414
  -7828719.78948  -6095088.78546  20073585.3134                   20073580.3834
  -9719120.60946  -7569797.67643  23861378.5704                   23861377.1024
 -11461091.75246  -8926992.82743  24690220.0394                   24690219.4804
 -18057389.80747 -14067847.49646  21518559.7504                   21518555.5474
 -13248058.65247 -10320046.95345  22675802.4614                   22675799.9534
 11  8 20 15 46  0.0000000  0 10G03G06G13G16G20G23G10G08G19G07
 -12472590.46948  -9710290.80946  20853678.1484                   20853675.6804
  -4530321.79347  -3525630.35245  22354150.3984                   22354148.1334
 -17168396.21548 -13365574.73846  20209010.5784                   20209007.2114
  12726555.59047   9911524.15244  22475654.0864                   22475650.6134
  18335261.08646  14273904.95343  24250590.5164                   24250589.0204
  -7756770.62148  -6039024.51246  20087277.3364                   20087271.7774
  -9679755.84846  -7539123.84043  23868869.1174                   23868867.7154
 -11478523.46546  -8940575.93443  24686903.6884                   24686902.0354
 -18067695.87547 -14075878.20346  21516598.0784                   21516593.8874
 -13258068.37147 -10327846.71545  22673897.8914                   22673895.2154
 11  8 20 15 46 30.0000000  0 10G03G06G13G16G20G23G10G08G19G07
 -12411994.69948  -9663073.32846  20865209.3984                   20865206.3754
  -4440875.39147  -3455931.86745  22371171.3284                   22371169.3054
 -17152334.86748 -13353059.38746  20212067.3674                   20212063.8914
  12860126.04747  10015605.00445  22501072.3204                   22501069.5434
  18468549.03146  14377765.63743  24275954.6484                   24275952.4414
  -7684265.97348  -5982527.40246  20101074.4144                   20101068.9574
  -9639902.42246  -7508069.23843  23876452.3284                   23876451.1214
 -11496019.90246  -8954209.50042  24683573.2664                   24683572.5634
 -18077543.45348 -14083551.61746  21514724.3444                   21514719.8364
 -13268075.66847 -10335644.57045  22671993.0234                   22671990.6254
 11  8 20 15 47  0.0000000  0 10G03G06G13G16G20G23G10G08G19G07
 -12350776.04348  -9615370.48445  20876859.0084                   20876856.3444
  -4350920.82847  -3385837.41445  22388288.7734                   22388287.2664
 -17135770.55148 -13340152.11746  20215219.0864                   20215215.6334
  12993802.54747  10119768.45345  22526510.3204                   22526507.3554
  18601746.37546  14481555.69143  24301301.0314                   24301299.6804
  -7611202.05948  -5925594.50846  20114977.8674                   20114972.3164
  -9599557.32046  -7476631.49643  23884130.2814                   23884128.2274
 -11513578.11346  -8967891.17643  24680231.7424                   24680230.8834
 -18086926.61348 -14090863.15246  21512939.2424                   21512934.5944
 -13278076.83647 -10343437.66845  22670090.3754                   22670087.6214
 11  8 20 15 47 30.0000000  0 10G03G06G13G16G20G23G10G08G19G07
 -12288920.80948  -9567171.60545  20888629.6334                   20888626.5084
  -4260445.35547  -3315337.07045  22405506.5394                   22405504.0784
 -17118687.23848 -13326840.44146  20218470.1334                   20218466.6294
  13127597.07047  10224023.87945  22551970.2584                   22551966.6564
  18734864.98046  14585284.38343  24326633.0314                   24326631.2774
  -7537565.15248  -5868215.10946  20128990.6644                   20128985.2774
  -9558707.18046  -7444800.19143  23891903.5314                   23891902.3524
 -11531184.01646  -8981610.05543  24676882.1724                   24676881.1334
 -18095828.51248 -14097799.68046  21511245.1334                   21511240.1294
 -13288057.09447 -10351214.45745  22668191.0394                   22668187.8754
 11  8 20 15 48  0.0000000  0 10G03G06G13G16G20G23G10G08G19G07
 -12226443.44548  -9518487.97745  20900518.9064                   20900516.0634
  -4169464.27047  -3244442.75845  22422819.6724                   22422817.2974
 -17101097.13347 -13313133.85946  20221817.3134                   20221813.7384
  13261493.26247  10328358.54345  22577449.8834                   22577446.2154
  18867887.92246  14688938.55543  24351946.0314                   24351944.5514
  -7463369.35948  -5810400.22346  20143109.5474                   20143104.6954
  -9517366.46946  -7412586.66843  23899770.8054                   23899768.7664
 -11548852.26646  -8995377.48843  24673519.5784                   24673518.9414
 -18104260.67247 -14104370.16846  21509640.2894                   21509636.4884
 -13298030.27047 -10358985.76645  22666293.0784                   22666290.4574
 11  8 20 15 48 30.0000000  0 10G03G06G13G16G20G23G10G08G19G07
 -12163343.65248  -9469319.31345  20912525.9694                   20912523.2894
  -4077978.07847  -3173154.82045  22440228.9064                   22440226.3164
 -17082997.66847 -13299030.37946  20225261.7194                   20225258.0704
  13395489.74247  10432771.37545  22602949.1254                   22602945.3984
  19000813.86346  14792517.10543  24377240.6724                   24377239.6954
  -7388613.65248  -5752149.03946  20157335.2114                   20157330.1764
  -9475535.24246  -7379990.91843  23907730.3364                   23907728.1764
 -11566582.08646  -9009192.89843  24670145.6954                   24670145.0744
 -18112219.49248 -14110571.84046  21508125.6724                   21508121.8324
 -13307995.41447 -10366750.77345  22664396.8204                   22664394.2504
 11  8 20 15 49  0.0000000  0 10G03G06G13G16G20G23G10G08G19G07
 -12099623.37148  -9419667.14846  20924651.2504                   20924648.9774
  -3985990.06347  -3101475.88345  22457733.5234                   22457731.2074
 -17064388.96148 -13284530.08646  20228802.8754                   20228799.2774
  13529582.20347  10537258.96945  22628465.4774                   22628462.3954
  19133637.88345  14896016.23443  24402517.1174                   24402516.2814
  -7313300.68448  -5693463.63746  20171666.9774                   20171661.9104
  -9433216.11746  -7347014.98843  23915783.4144                   23915782.2344
 -11584376.01246  -9023058.23443  24666759.5474                   24666758.9964
 -18119704.37148 -14116404.19146  21506701.6564                   21506697.2504
 -13317954.19547 -10374510.86345  22662502.2114                   22662499.0744
 11  8 20 15 49 30.0000000  0 10G03G06G13G16G20G23G10G08G19G07
 -12035278.06648  -9369527.96145  20936896.1884                   20936893.1724
  -3893496.46547  -3029402.96145  22475334.4534                   22475331.9414
 -17045263.80948 -13269627.37146  20232442.7344                   20232438.7154
  13663773.54747  10641823.62945  22654001.5554                   22653997.9924
  19266362.71545  14999438.05543  24427772.4064                   24427772.8324
  -7237425.11348  -5634339.83246  20186105.7504                   20186100.2544
  -9390404.67646  -7313655.44543  23923930.9614                   23923928.3754
 -11602229.44146  -9036969.95343  24663362.6024                   24663362.2034
 -18126707.53548 -14121861.19546  21505368.9064                   21505364.2814
 -13327901.53147 -10382262.01645  22660608.9694                   22660605.9654
 11  8 20 15 50  0.0000000  0 10G03G06G13G16G20G23G10G08G19G07
 -11970306.32448  -9318900.65246  20949259.8364                   20949257.5314
  -3800497.03147  -2956935.89545  22493031.4304                   22493029.0044
 -17025618.82048 -13254319.59046  20236180.5234                   20236176.7384
  13798063.18747  10746464.86745  22679556.2424                   22679552.2974
  19398988.23845  15102782.46943  24453011.3834                   24453011.0634
  -7160985.55148  -5574776.56346  20200651.5164                   20200645.9264
  -9347099.87146  -7279911.43043  23932171.1174                   23932169.1174
 -11620140.38346  -9050926.44943  24659953.0864                   24659953.6174
 -18133224.92248 -14126939.65246  21504128.6254                   21504124.3054
 -13337835.10547 -10390002.44545  22658718.5864                   22658715.7344
 11  8 20 15 50 30.0000000  0 10G03G06G13G16G20G23G10G08G19G07
 -11904719.35948  -9267793.93846  20961740.6094                   20961738.4804
  -3707003.76647  -2884084.02745  22510823.1174                   22510820.7194
 -17005462.87548 -13238613.64846  20240015.8524                   20240012.3794
  13932438.62947  10851172.97744  22705126.9384                   22705123.7154
  19531500.65646  15206038.77043  24478227.9534                   24478226.8094
  -7083993.11348  -5514782.47746  20215302.7274                   20215297.3754
  -9303313.09046  -7245791.92643  23940503.4454                   23940502.0124
 -11638119.78946  -9064936.30943  24656531.8914                   24656532.5664
 -18139264.48448 -14131645.78546  21502979.9534                   21502974.8364
 -13347765.52347 -10397740.41445  22656828.7424                   22656826.0744
 11  8 20 15 51  0.0000000  0 10G03G06G13G16G20G23G10G08G19G07
 -11838517.68048  -9216208.20345  20974337.9694                   20974335.7664
  -3613017.97747  -2810848.36745  22528707.5944                   22528705.3914
 -16984794.04348 -13222508.07446  20243949.0004                   20243945.6764
  14066897.59847  10955946.15645  22730713.7504                   22730710.5274
  19663897.48446  15309205.02743  24503422.4844                   24503420.9844
  -7006447.64848  -5454357.46146  20230059.3444                   20230053.7384
  -9259044.84846  -7211297.15243  23948927.2424                   23948926.0234
 -11656167.97746  -9078999.71943  24653096.4224                   24653097.6374
 -18144823.73848 -14135977.66446  21501921.3914                   21501916.9064
 -13357691.82047 -10405475.16445  22654939.8134                   22654937.3444
 11  8 20 15 51 30.0000000  0 10G03G06G13G16G20G23G10G08G19G07
 -11771691.91848  -9164136.19545  20987054.9304                   20987052.5904
  -3518531.20347  -2737222.32845  22546688.2194                   22546685.4924
 -16963600.63748 -13205993.73046  20247982.1954                   20247978.8714
  14201448.04747  11060790.61745  22756317.2114                   22756314.5394
  19796186.36347  15412287.20343  24528596.4694                   24528594.8874
  -6928339.74648  -5393494.17646  20244922.4844                   20244917.4384
  -9214286.03546  -7176420.22743  23957445.2114                   23957442.1994
 -11674275.10946  -9093109.05543  24649650.8834                   24649652.0004
 -18149890.21548 -14139925.56346  21500957.1564                   21500952.4734
 -13367604.00847 -10413198.91445  22653053.3754                   22653051.3204
 11  8 20 15 52  0.0000000  0 10G03G06G13G16G20G23G10G08G19G07
 -11704250.50848  -9111584.45745  20999888.9694                   20999886.1094
  -3423552.70747  -2663213.13745  22564761.5864                   22564759.5864
 -16941888.79347 -13189075.41046  20252113.7034                   20252110.3014
  14336079.73047  11165698.40245  22781936.9614                   22781933.4694
  19928357.01247  15515277.23443  24553747.9064                   24553746.3054
  -6849677.55548  -5332198.98846  20259891.4384                   20259886.4064
  -9169045.59846  -7141167.91043  23966053.6484                   23966051.3634
 -11692449.96146  -9107271.20343  24646193.2034                   24646193.3834
 -18154469.31248 -14143493.66446  21500085.6414                   21500081.9694
 -13377509.78547 -10420917.68445  22651168.4924                   22651166.0474
 11  8 20 15 52 30.0000000  0 10G03G06G13G16G20G23G10G08G19G07
 -11636189.68048  -9058550.05145  21012840.2194                   21012837.2384
  -3328079.72347  -2588818.63345  22582929.7034                   22582927.3954
 -16919652.52748 -13171748.46146  20256345.5164                   20256341.7774
  14470794.67247  11270671.03944  22807572.9304                   22807568.8244
  20060411.30947  15618176.63343  24578877.0554                   24578874.5984
  -6770457.19948  -5270468.85246  20274966.6094                   20274960.9614
  -9123319.81346  -7105537.45743  23974755.6094                   23974752.8554
 -11710687.91846  -9121482.47743  24642722.2814                   24642722.7544
 -18158554.11748 -14146676.61746  21499308.3754                   21499303.8874
 -13387404.59047 -10428627.89145  22649285.2344                   22649282.8094
 11  8 20 15 53  0.0000000  0 10G03G06G13G16G20G23G10G08G19G07
 -11567511.89148  -9005034.90246  21025909.0084                   21025906.4414
  -3232115.81347  -2514041.59445  22601191.3914                   22601188.6724
 -16896892.27748 -13154013.20746  20260676.5234                   20260672.8284
  14605588.87147  11375705.45745  22833222.9924                   22833219.9574
  20192344.65647  15720981.82442  24603982.8134                   24603980.5354
  -6690680.79348  -5208305.44946  20290147.1804                   20290142.3134
  -9077111.55546  -7069531.01643  23983548.0004                   23983546.3324
 -11728991.32046  -9135744.81643  24639239.8674                   24639239.5234
 -18162144.54748 -14149474.34446  21498625.1564                   21498620.4774
 -13397289.76247 -10436330.59445  22647404.7274                   22647401.5864
 11  8 20 15 53 30.0000000  0 10G03G06G13G16G20G23G10G08G19G07
 -11498215.19948  -8951037.48445  21039096.0164                   21039093.3054
  -3135659.33647  -2438880.73045  22619546.4064                   22619543.9734
 -16873602.76647 -13135865.53946  20265108.3674                   20265104.5474
  14740463.28947  11480802.34844  22858888.5864                   22858885.8284
  20324157.85546  15823693.41843  24629066.6884                   24629064.6334
  -6610345.66048  -5145706.66446  20305434.8054                   20305429.5984
  -9030418.75846  -7033147.06343  23992433.7194                   23992432.1214
 -11747357.73446  -9150056.25043  24635744.9224                   24635744.1174
 -18165234.97348 -14151882.45346  21498037.4224                   21498032.5314
 -13407162.07047 -10444023.27045  22645525.8054                   22645523.3674
 11  8 20 15 54  0.0000000  0 10G03G06G13G16G20G23G10G08G19G07
 -13003716.85948 -10124155.67245  20752608.2424                   20752604.9414
  -4614128.02347  -3590934.27045  22338202.6484                   22338200.4384
 -18425201.43048 -14344903.46546  19969849.0084                   19969844.9184
  13300001.06647  10358364.21144  22584778.0234                   22584774.8554
  18880433.43046  14698713.33243  24354334.8054                   24354333.2704
  -8104869.07448  -6310270.38746  20021036.5004                   20021031.3834
 -10558659.96546  -8223984.31243  23701619.8054                   23701616.5594
 -13341207.15246 -10392016.78143  24332445.2114                   24332444.8244
 -19743242.35948 -15381498.59446  21197752.1884                   21197747.7304
 -14992441.02347 -11679305.53545  22343857.0554                   22343854.4264
 11  8 20 15 54 30.0000000  0 10G03G06G13G16G20G23G10G08G19G07
 -12933186.69548 -10069197.12545  20766030.0864                   20766027.7154
  -4516694.10547  -3515011.78145  22356743.5314                   22356741.9304
 -18400852.18047 -14325930.02746  19974482.1954                   19974478.6604
  13435026.60947  10463578.87144  22610473.0084                   22610469.4104
  19011995.83646  14801229.39543  24379369.1174                   24379369.3914
  -8023421.08248  -6246804.43746  20036535.4614                   20036529.9734
 -10511003.77746  -8186849.68043  23710687.5394                   23710685.5984
 -13359702.87947 -10406429.00443  24328926.0314                   24328924.8834
 -19745328.87948 -15383124.43746  21197355.2424                   21197350.5664
 -15002289.68447 -11686979.81645  22341983.2974                   22341980.5084
 11  8 20 15 55  0.0000000  0 10G03G06G13G16G20G23G10G08G19G07
 -12862041.25848 -10013759.13345  20779568.6564                   20779565.6484
  -4418773.96547  -3438710.40245  22375377.6334                   22375375.3554
 -18375970.64548 -14306541.82046  19979217.2424                   19979213.5314
  13570124.39147  10568849.83244  22636181.1884                   22636177.4654
  19143429.05146  14903644.78143  24404380.8914                   24404379.9844
  -7941417.48048  -6182905.54746  20052140.6094                   20052135.5164
 -10462867.36346  -8149340.76643  23719847.6094                   23719845.7304
 -13378263.70746 -10420891.95743  24325393.5394                   24325392.7854
 -19746910.15248 -15384356.59046  21197054.4384                   21197049.1684
 -15012126.08247 -11694644.51645  22340111.0704                   22340108.7974
 11  8 20 15 55 30.0000000  0 10G03G06G13G16G20G23G10G08G19G07
 -12790275.46548  -9957837.73845  20793224.8444                   20793221.7734
  -4320363.71147  -3362027.11745  22394104.2974                   22394102.6524
 -18350549.84848 -14286733.41446  19984054.9694                   19984051.1564
  13705297.94547  10674179.84844  22661904.1254                   22661899.7384
  19274736.32455  15005961.98853  24429368.0164                   24429367.5514
  -7858853.02048  -6118569.63346  20067851.9924                   20067846.4884
 -10414246.28946  -8111454.23443  23729099.6484                   23729098.1484
 -13396884.41846 -10435401.51243  24321849.8674                   24321849.0004
 -19747978.00048 -15385188.65646  21196851.2114                   21196846.7304
 -15021944.12947 -11702294.91445  22338243.1024                   22338240.1644
 11  8 20 15 56  0.0000000  0 10G03G06G13G16G20G23G10G08G19G07
 -12717893.03148  -9901435.85945  20806999.5634                   20806996.5554
  -4221467.56247  -3284965.20745  22412923.9304                   22412921.3714
 -18324590.85248 -14266505.62946  19988994.2274                   19988990.6524
  13840542.46947  10779565.14844  22687639.9384                   22687636.1294
  19405912.93455  15108177.32053  24454330.2194                   24454329.2624
  -7775730.98048  -6053799.22746  20083669.5474                   20083664.3014
 -10365144.12546  -8073192.80143  23738443.7814                   23738441.9924
 -13415567.84046 -10449959.95343  24318293.7034                   24318294.4614
 -19748532.82448 -15385620.97746  21196745.4614                   21196741.0634
 -15031746.01247 -11709932.71545  22336377.5704                   22336375.2344
 11  8 20 15 56 30.0000000  0 10G03G06G13G16G20G23G10G08G19G07
 -12644896.85548  -9844555.74246  20820889.6954                   20820887.0434
  -4122089.16147  -3207527.51345  22431834.8594                   22431832.9064
 -18298094.14548 -14245858.84446  19994036.7894                   19994032.8794
  13975853.67247  10885002.41444  22713388.7664                   22713385.1334
  19536953.73046  15210286.96543  24479266.3284                   24479265.6844
  -7692054.40148  -5988596.71546  20099592.5944                   20099587.3134
 -10315563.97746  -8034558.96543  23747879.0314                   23747877.2304
 -13434316.23046 -10464569.01343  24314726.8284                   24314726.3554
 -19748574.51248 -15385653.44546  21196737.6884                   21196732.4614
 -15041533.91047 -11717559.62345  22334515.3204                   22334512.4144
 11  8 20 15 57  0.0000000  0 10G03G06G13G16G20G23G10G08G19G07
 -12571287.00047  -9787197.41845  20834897.2814                   20834894.8874
  -4022229.26647  -3129714.63745  22450837.4924                   22450835.4774
 -18271057.21148 -14224791.10546  19999181.8054                   19999178.1174
  14111230.40647  10990490.72344  22739150.0474                   22739146.4804
  19667857.61346  15312289.89143  24504176.4924                   24504176.2304
  -7607822.48848  -5922961.47746  20115621.6334                   20115615.8164
 -10265505.66846  -7995552.49243  23757404.4924                   23757402.8484
 -13453128.68546 -10479228.01043  24311146.5784                   24311145.9414
 -19748099.84448 -15385283.54746  21196827.4844                   21196823.2664
 -15051306.11747 -11725174.31245  22332655.7274                   22332652.7544
 11  8 20 15 57 30.0000000  0 10G03G06G13G16G20G23G10G08G19G07
 -12497065.51648  -9729362.50445  20849020.9774                   20849018.5744
  -3921891.25147  -3051529.19945  22469930.8284                   22469929.3054
 -18243479.77048 -14203302.20346  20004429.3364                   20004425.9774
  14246669.19947  11096027.38744  22764923.5634                   22764919.9614
  19798620.71546  15414183.10943  24529060.7894                   24529058.8014
  -7523037.30948  -5856895.12946  20131755.9224                   20131750.5554
 -10214972.04746  -7956175.65643  23767020.3754                   23767019.1294
 -13472007.15646 -10493938.43743  24307554.5314                   24307553.7624
 -19747108.27048 -15384510.87546  21197016.5164                   21197012.1294
 -15061063.81647 -11732777.68745  22330798.7894                   22330796.0354
 11  8 20 15 58  0.0000000  0 10G03G06G13G16G20G23G10G08G19G07
 -12422234.22748  -9671052.42645  20863260.9304                   20863257.9694
  -3821077.34447  -2972972.93045  22489115.7274                   22489113.3554
 -18215361.39148 -14181391.78146  20009780.3834                   20009776.7734
  14382167.23447  11201610.23844  22790707.7814                   22790704.5594
  19929239.88746  15515964.19544  24553915.9534                   24553915.2814
  -7437700.41448  -5790398.86746  20147994.8364                   20147989.6994
 -10163965.14846  -7916430.01643  23776726.8204                   23776725.4144
 -13490952.57046 -10508701.04343  24303948.7584                   24303948.5594
 -19745598.04748 -15383334.04746  21197303.8594                   21197299.4184
 -15070807.42647 -11740370.09445  22328944.3914                   22328941.4064
 11  8 20 15 58 30.0000000  0 10G03G06G13G16G20G23G10G08G19G07
 -12346792.41048  -9612266.60945  20877617.3524                   20877614.6804
  -3719787.89147  -2894046.11345  22508390.3204                   22508388.5004
 -18186699.18348 -14159057.59546  20015234.0784                   20015230.8554
  14517723.90647  11307238.76644  22816503.6804                   22816500.3014
  20059714.35246  15617632.54343  24578744.7974                   24578744.0314
  -7351811.02348  -5723472.09446  20164339.0634                   20164333.7384
 -10112483.91846  -7876314.78143  23786523.4694                   23786521.9574
 -13509963.81147 -10523514.92243  24300331.3754                   24300330.5904
 -19743565.59448 -15381750.30546  21197690.9144                   21197685.9264
 -15080534.84847 -11747949.88745  22327093.3524                   22327090.6684
 11  8 20 15 59  0.0000000  0 10G03G06G13G16G20G23G10G08G19G07
 -12270744.09048  -9553008.18445  20892088.5634                   20892085.8754
  -3618027.49647  -2814752.32445  22527754.6954                   22527752.3914
 -18157494.66448 -14136300.83246  20020791.7664                   20020787.9884
  14653334.16847  11412909.03144  22842308.9614                   22842306.4964
  20190038.60246  15719183.80943  24603544.6804                   24603543.5354
  -7265372.68748  -5656117.56246  20180787.7504                   20180782.3954
 -10060533.09046  -7835833.64543  23796409.4694                   23796407.5824
 -13529043.76247 -10538382.36343  24296701.0634                   24296699.2074
 -19741011.89548 -15379760.38746  21198176.7194                   21198172.5704
 -15090248.60947 -11755519.03945  22325245.3754                   22325242.0394
 11  8 20 15 59 30.0000000  0 10G03G06G13G16G20G23G10G08G19G07
 -12194087.07048  -9493275.45746  20906676.0314                   20906673.5164
  -3515794.52747  -2735090.30145  22547208.5474                   22547206.8054
 -18127742.86747 -14113117.62546  20026453.1954                   20026449.9804
  14788999.60547  11518622.28544  22868125.1094                   22868122.7344
  20320213.70346  15820618.85943  24628316.4454                   24628315.0084
  -7178382.87548  -5588333.32446  20197341.0944                   20197336.1374
 -10008110.34046  -7794984.71543  23806384.8134                   23806383.0904
 -13548189.27747 -10553300.91843  24293057.8054                   24293056.1294
 -19737931.27048 -15377359.86746  21198763.0004                   21198758.4534
 -15099945.12547 -11763074.74245  22323399.3914                   22323396.6564
 11  8 20 16  0  0.0000000  0 10G03G06G13G16G20G23G10G08G19G07
 -12116823.81248  -9433070.33245  20921379.0864                   20921375.7344
  -3413092.52747  -2655062.79345  22566752.8364                   22566750.4414
 -18097444.07048 -14089508.16846  20032218.9774                   20032215.6914
  14924716.24647  11624375.43844  22893951.7894                   22893948.7114
  20450235.47746  15921934.43443  24653057.9534                   24653056.5904
  -7090843.75848  -5520121.05546  20213999.3984                   20213994.0354
  -9955218.26246  -7753770.13743  23816449.9844                   23816448.8164
 -13567402.58246 -10568272.27344  24289401.5084                   24289400.5904
 -19734323.46948 -15374548.57046  21199449.3754                   21199444.8754
 -15109625.56247 -11770617.93745  22321557.9454                   22321554.3834
 11  8 20 16  0 30.0000000  0 10G03G06G13G16G20G23G10G08G19G07
 -12038967.28548  -9372402.91845  20936194.6564                   20936192.2274
  -3309934.73447  -2574680.13745  22586382.3754                   22586380.8984
 -18066608.26248 -14065480.27346  20038086.8444                   20038083.2384
  15060470.60947  11730158.01244  22919784.4614                   22919781.6644
  20580090.27746  16023119.96142  24677768.9304                   24677768.5944
  -7002767.75048  -5451490.42646  20230759.8134                   20230754.5864
  -9901869.84046  -7712199.94143  23826602.2894                   23826600.4104
 -13586695.22746 -10583305.45743  24285729.6334                   24285729.0124
 -19730197.67248 -15371333.65646  21200234.5554                   21200229.9774
 -15119301.00847 -11778157.22345  22319716.5164                   22319713.3834
 11  8 20 16  1  0.0000000  0 10G03G06G13G16G20G23G10G08G19G07
 -11960506.23047  -9311264.44945  20951125.1564                   20951122.3244
  -3206310.90247  -2493934.31645  22606101.8754                   22606099.6254
 -18035221.87148 -14041023.34846  20044059.8444                   20044056.4924
  15196272.99647  11835978.00844  22945627.2274                   22945623.8874
  20709787.96146  16124183.02042  24702449.2424                   24702450.0004
  -6914143.21948  -5382432.37546  20247624.3674                   20247619.2154
  -9848054.14546  -7670265.66443  23836842.9534                   23836840.9844
 -13606054.86346 -10598390.84443  24282045.9384                   24282045.0234
 -19725539.78148 -15367704.10546  21201120.8444                   21201115.9534
 -15128958.66047 -11785682.66045  22317878.8134                   22317875.9614
 11  8 20 16  1 30.0000000  0 10G03G06G13G16G20G23G10G08G19G07
 -11881453.25847  -9249664.75045  20966168.2344                   20966165.9104
  -3102234.31647  -2412835.71745  22625907.0004                   22625905.3284
 -18003295.68448 -14016145.81246  20050135.1414                   20050131.5204
  15332109.75847  11941824.78544  22971476.2194                   22971473.0164
  20839314.44946  16225112.60942  24727098.1884                   24727098.3444
  -6824982.88348  -5312956.82046  20264590.9224                   20264585.6374
  -9793783.96546  -7627977.22743  23847170.6804                   23847168.8404
 -13625493.43046 -10613537.72743  24278345.8134                   24278346.0704
 -19720359.39548 -15363667.42646  21202106.8444                   21202102.1024
 -15138609.59247 -11793202.84845  22316042.2424                   22316039.6254
 11  8 20 16  2  0.0000000  0 10G03G06G13G16G20G23G10G08G19G07
 -11801803.76248  -9187600.20345  20981325.2734                   20981322.1414
  -2997701.02747  -2331381.23845  22645798.9534                   22645796.7154
 -17970822.22747 -13990841.81646  20056314.7114                   20056311.3714
  15467984.77347  12047701.36744  22997332.0084                   22997329.0394
  20968673.39846  16325911.71142  24751714.7584                   24751714.2194
  -6735281.65648  -5243059.79346  20281661.1094                   20281655.5514
  -9739054.54446  -7585330.93943  23857584.4614                   23857583.5944
 -13645005.52746 -10628741.91842  24274632.2034                   24274632.1844
 -19714648.62948 -15359217.46546  21203193.4064                   21203188.4494
 -15148247.80947 -11800713.12945  22314208.2504                   22314205.0434
 11  8 20 16  2 30.0000000  0 10G03G06G13G16G20G23G10G08G19G07
 -11721561.55148  -9125073.82845  20996594.7734                   20996592.1054
  -2892715.59447  -2249574.43445  22665777.2974                   22665774.4414
 -17937803.16047 -13965112.68446  20062597.9384                   20062594.0274
  15603893.42247  12153604.14544  23023194.6884                   23023192.0474
  21097859.75046  16426576.34042  24776297.3914                   24776298.0434
  -6645043.40648  -5172744.30146  20298832.4694                   20298827.2114
  -9683870.17646  -7542330.21943  23868086.0314                   23868084.9384
 -13664593.83646 -10644005.46943  24270905.6644                   24270905.1644
 -19708407.94948 -15354354.59846  21204380.8834                   21204375.9024
 -15157875.43447 -11808215.15645  22312375.5004                   22312372.9304
 11  8 20 16  3  0.0000000  0  9G03G06G13G16G23G10G08G19G07
 -11640731.92648  -9062089.72345  21011976.0784                   21011973.4964
  -2787284.00047  -2167419.98845  22685839.9454                   22685837.8594
 -17904241.23048 -13938960.53546  20068984.5704                   20068981.0124
  15739829.29747  12259528.14544  23049062.5864                   23049059.2114
  -6554272.61748  -5102013.85246  20316105.3754                   20316100.2034
  -9628236.34846  -7498979.15243  23878672.5784                   23878671.3674
 -13684262.43046 -10659331.54343  24267162.6884                   24267162.3164
 -19701639.70748 -15349080.63346  21205668.8444                   21205664.3714
 -15167495.99647 -11815711.68045  22310544.6954                   22310542.3594
 11  8 20 16  3 30.0000000  0  9G03G06G13G16G23G10G08G19G07
 -11559305.37948  -8998640.47745  21027471.1174                   21027468.4574
  -2681397.36747  -2084910.96545  22705990.2734                   22705987.9384
 -17870124.07848 -13912375.73846  20075476.7664                   20075473.3094
  15875801.52047  12365480.48444  23074937.7034                   23074934.0004
  -6462959.52048  -5030860.81246  20333482.1484                   20333476.8874
  -9572143.25446  -7455270.30143  23889347.3054                   23889346.0004
 -13704000.88346 -10674712.10243  24263407.0234                   24263406.6294
 -19694331.21148 -15343385.69546  21207059.7274                   21207054.9224
 -15177098.19547 -11823193.89145  22308717.9844                   22308715.0744
 11  8 20 16  4  0.0000000  0  9G03G06G13G16G23G10G08G19G07
 -11477285.35248  -8934728.78945  21043078.9384                   21043076.0904
  -2575059.58647  -2002050.38744  22726224.9774                   22726222.9414
 -17835452.77748 -13885359.14846  20082074.2734                   20082070.8674
  16011806.18347  12471458.10344  23100817.9454                   23100815.1294
  -6371107.14848  -4959287.55946  20350960.7974                   20350955.7854
  -9515594.38746  -7411206.24543  23900108.0164                   23900106.4064
 -13723811.44846 -10690148.84444  24259636.7274                   24259636.4574
 -19686482.59448 -15337269.87946  21208553.3204                   21208548.2234
 -15186683.61747 -11830663.03945  22306893.8204                   22306890.9804
 11  8 20 16  4 30.0000000  0  9G03G06G13G16G23G10G08G19G07
 -11394674.42648  -8870356.65645  21058799.4384                   21058796.8524
  -2468273.71547  -1918840.64145  22746545.9694                   22746543.4884
 -17800227.25848 -13857910.69946  20088777.7894                   20088774.1334
  16147839.84847  12577458.28944  23126704.5084                   23126702.0474
  -6278717.57048  -4887295.70746  20368541.9144                   20368536.7344
  -9458592.19946  -7366788.96143  23910955.0474                   23910953.6174
 -13743695.21946 -10705642.62143  24255852.8134                   24255852.6374
 -19678092.67648 -15330732.27346  21210149.6334                   21210144.6214
 -15196252.39547 -11838119.22745  22305073.2424                   22305070.1804
 11  8 20 16  5  0.0000000  0  9G03G06G13G16G23G10G08G19G07
 -11311470.96948  -8805522.83245  21074632.7424                   21074630.0514
  -2361039.57447  -1835281.60545  22766951.8284                   22766950.1094
 -17764443.96948 -13830027.61746  20095586.8984                   20095583.4924
  16283903.03547  12683481.46544  23152596.3674                   23152593.9224
  -6185789.68748  -4814884.40246  20386225.3054                   20386220.5004
  -9401135.69546  -7322017.68443  23921888.1954                   23921886.8204
 -13763649.85247 -10721191.62144  24252056.7034                   24252054.8914
 -19669157.74248 -15323769.96946  21211849.8204                   21211845.0204
 -15205802.55547 -11845560.88345  22303255.9224                   22303252.8134
 11  8 20 16  5 30.0000000  0  9G03G06G13G16G23G10G08G19G07
 -11227672.35548  -8740225.22745  21090578.6884                   21090576.2274
  -2253354.61347  -1751371.27744  22787443.1484                   22787441.5744
 -17728097.48848 -13801705.69146  20102503.4304                   20102499.8364
  16419998.13747  12789529.54744  23178494.7194                   23178491.5234
  -6092320.03548  -4742050.93446  20404012.3524                   20404007.3014
  -9343222.01246  -7276890.14843  23932908.3524                   23932908.0234
 -13783671.50046 -10736792.82844  24248246.3594                   24248245.5004
 -19659671.42248 -15316378.02046  21213654.8674                   21213650.8404
 -15215328.99247 -11852984.06645  22301442.7274                   22301439.8484
 11  8 20 16  6  0.0000000  0  9G03G06G13G16G23G10G08G19G07
 -11143283.58648  -8674467.78145  21106637.3754                   21106634.9144
  -2145224.43747  -1667114.04344  22808020.1644                   22808018.0274
 -17691190.62147 -13772947.09846  20109526.8444                   20109523.0944
  16556119.85947  12895598.36744  23204397.8444                   23204394.8404
  -5998313.37148  -4668799.00846  20421901.2424                   20421896.3204
  -9284856.37546  -7231410.43042  23944015.3594                   23944014.5434
 -13803763.40247 -10752448.80144  24244422.6414                   24244422.0514
 -19649635.72748 -15308557.99246  21215564.8284                   21215559.8244
 -15224834.44547 -11860390.90245  22299634.2114                   22299631.4064
 11  8 20 16  6 30.0000000  0  9G03G06G13G16G23G10G08G19G07
 -11058305.66848  -8608251.23845  21122807.8674                   21122805.4494
  -2036650.73847  -1582511.20745  22828681.6414                   22828678.9734
 -17653721.23047 -13743750.18046  20116656.8444                   20116653.1134
  16692266.54747  13001686.63744  23230305.7584                   23230302.9774
  -5903770.27748  -4595129.10246  20439892.2894                   20439887.2854
  -9226039.97346  -7185579.49243  23955207.7584                   23955206.7734
 -13823926.24646 -10768160.01244  24240585.7194                   24240585.3364
 -19639048.59048 -15300308.26646  21217579.3284                   21217574.9454
 -15234318.35247 -11867780.94145  22297829.6094                   22297826.4804
 11  8 20 16  7  0.0000000  0  9G03G06G13G16G23G10G08G19G07
 -10972748.30548  -8541583.18745  21139089.0944                   21139086.8714
  -1927643.74647  -1497570.73445  22849424.4924                   22849422.1054
 -17615696.96147 -13714120.88746  20123892.5164                   20123888.8244
  16828427.77347  13107786.23044  23256215.9774                   23256213.3014
  -5808700.18748  -4521048.52746  20457983.3284                   20457978.6214
  -9166782.35246  -7139404.77343  23966484.5234                   23966483.7734
 -13844168.00046 -10783932.76644  24236733.4844                   24236732.8524
 -19627916.08248 -15291633.57046  21219698.2274                   21219693.2194
 -15243788.23047 -11875160.06645  22296027.1174                   22296024.0594
 11  8 20 16  7 30.0000000  0  9G03G06G13G16G23G10G08G19G07
 -10886603.60248  -8474457.48845  21155482.1484                   21155479.4104
  -1818195.99647  -1412286.78944  22870251.3054                   22870249.5824
 -17577107.17648 -13684050.94146  20131236.1414                   20131232.6484
  16964611.45747  13213903.28944  23282130.7424                   23282128.8404
  -5713094.46148  -4446550.59446  20476176.5864                   20476171.3714
  -9107075.35546  -7092879.85543  23977846.6954                   23977844.8754
 -13864478.92646 -10799759.42243  24232868.5004                   24232868.5944
 -19616227.10248 -15282525.26646  21221922.2194                   21221917.7814
 -15253234.14547 -11882520.50845  22294229.7814                   22294226.5044
 11  8 20 16  8  0.0000000  0  9G03G06G13G16G23G10G08G19G07
 -10799878.91848  -8406879.84445  21171985.1484                   21171982.5434
  -1708315.38347  -1326665.55144  22891161.6804                   22891159.1844
 -17537956.80547 -13653544.17646  20138685.9304                   20138682.5864
  17100809.75047  13320031.75444  23308049.2274                   23308046.2734
  -5616960.29348  -4371640.87546  20494470.7114                   20494465.6174
  -9046926.76246  -7046010.81643  23989291.6484                   23989291.8634
 -13884865.37947 -10815644.89543  24228989.5864                   24228988.1254
 -19603985.70748 -15272986.52346  21224251.7974                   21224246.9264
 -15262661.11347 -11889866.18445  22292436.0394                   22292433.0434
 11  8 20 16  8 30.0000000  0  9G03G06G13G16G23G10G08G19G07
 -10712573.50848  -8338849.69145  21188599.3134                   21188596.1414
  -1598001.94947  -1240707.09044  22912153.0164                   22912151.7114
 -17498242.78547 -13622598.20346  20146243.3674                   20146239.5824
  17237022.81347  13426171.73444  23333970.3284                   23333966.4884
  -5520296.84848  -4296318.73046  20512864.8754                   20512860.0664
  -8986335.96546  -6998797.24643  24000822.7974                   24000822.1134
 -13905325.16046 -10831587.55143  24225095.2194                   24225094.9884
 -19591188.30548 -15263014.52046  21226686.8594                   21226682.2154
 -15272067.02748 -11897195.45745  22290645.9694                   22290642.9454
 11  8 20 16  9  0.0000000  0  9G03G06G13G16G23G10G08G19G07
 -10624692.42648  -8270370.93745  21205322.1884                   21205319.6844
  -1487261.16847  -1154415.60944  22933226.5394                   22933224.5434
 -17457967.52348 -13591214.88346  20153907.2894                   20153903.7774
  17373245.42247  13532319.14844  23359891.6644                   23359888.8484
  -5423108.73848  -4220587.75846  20531359.1094                   20531354.1094
  -8925307.84846  -6951242.89543  24012435.4224                   24012435.1374
 -13925862.03146 -10847590.25843  24221187.8674                   24221186.7624
 -19577836.41448 -15252610.44546  21229227.4304                   21229223.1884
 -15281454.41847 -11904510.28945  22288859.2584                   22288856.2424
 11  8 20 16  9 30.0000000  0  9G03G06G13G16G23G10G08G19G07
 -10536235.18448  -8201443.25045  21222154.9534                   21222152.7114
  -1376093.20347  -1067791.25844  22954381.4694                   22954379.3404
 -17417128.25447 -13559392.09046  20161679.0474                   20161675.3054
  17509477.58247  13638474.02744  23385816.3134                   23385812.9734
  -5325395.41048  -4144447.52746  20549953.6094                   20549948.2854
  -8863841.95346  -6903347.43743  24024132.3284                   24024131.4224
 -13946473.59046 -10863651.18043  24217265.7504                   24217264.0944
 -19563927.09047 -15241772.00446  21231874.5084                   21231869.6254
 -15290820.68048 -11911808.66045  22287077.2344                   22287074.3524
 11  8 20 16 10  0.0000000  0  9G03G06G13G16G23G10G08G19G07
 -10447201.94948  -8132066.73045  21239097.2344                   21239094.9694
  -1264498.75047   -980834.59444  22975616.8984                   22975615.3284
 -17375722.60948 -13527127.96546  20169558.3134                   20169554.8364
  17645718.73847  13744635.88744  23411742.0234                   23411739.2504
  -5227156.32448  -4067897.61746  20568647.7114                   20568642.6764
  -8801938.75846  -6855111.20343  24035911.7504                   24035911.6484
 -13967159.07447 -10879769.70343  24213329.1334                   24213327.3794
 -19549456.93448 -15230496.54346  21234628.4064                   21234623.1414
 -15300163.72748 -11919088.94545  22285298.9614                   22285296.0124
 11  8 20 16 10 30.0000000  0 10G03G06G13G16G23G10G08G19G28G07
 -10357588.93448  -8062238.44145  21256149.9774                   21256147.6484
  -1152474.78947   -893543.22345  22996934.5864                   22996932.8914
 -17333744.42248 -13494417.69146  20177546.4224                   20177542.6414
  17781972.31647  13850807.43844  23437670.0004                   23437667.4494
  -5128387.75048  -3990935.11346  20587442.6174                   20587437.6174
  -8739594.59446  -6806531.39143  24047775.3204                   24047775.0594
 -13987913.24646 -10895941.74644  24209379.5234                   24209379.5084
 -19534419.32848 -15218778.92246  21237489.7194                   21237485.0634
 -12634972.68756  -9839151.50053  24810698.0004                   24810696.2814
 -15309478.00447 -11926346.78145  22283526.4144                   22283523.5004
 11  8 20 16 11  0.0000000  0 10G03G06G13G16G23G10G08G19G28G07
 -11842822.02048  -9219562.94945  20973520.0314                   20973517.2854
  -2615446.38747  -2033521.13745  22718540.1254                   22718538.2624
 -18866618.22747 -14688864.82046  19885850.2194                   19885846.7424
  16342814.35547  12729385.58644  23163807.8674                   23163805.0904
  -6604514.56648  -5141163.82446  20306545.0704                   20306539.7734
 -10252235.87146  -7985212.94543  23759930.1254                   23759929.8164
 -15584164.00447 -12139773.44143  23905623.3834                   23905622.5234
 -21094238.80948 -16434222.66046  20940665.7194                   20940661.2114
 -14238018.82446 -11088278.32043  24505648.4614                   24505647.8914
 -16894189.95748 -13161187.25045  21981966.2034                   21981962.6564
 11  8 20 16 11 30.0000000  0 11G03G06G13G16G23G10G08G19G28G07G11
 -11752069.16448  -9148846.45745  20990790.2894                   20990787.0514
  -2502583.50447  -1945576.07044  22740017.2584                   22740015.5594
 -18823506.27348 -14655271.10246  19894054.0554                   19894050.6954
  16479074.05947  12835561.89544  23189736.8054                   23189734.5864
  -6504704.71548  -5063389.94546  20325538.4454                   20325533.6414
 -10189028.68446  -7935960.60943  23771958.2194                   23771957.2114
 -15605069.35546 -12156063.23843  23901644.2664                   23901643.9344
 -21078075.02648 -16421627.50046  20943742.0004                   20943737.2304
 -14265442.89546 -11109647.68843  24500430.3204                   24500428.8054
 -16903458.52748 -13168409.50445  21980201.7974                   21980199.2894
 -14210391.38356 -11066380.68453  24638409.1174                   24638409.4924
 11  8 20 16 12  0.0000000  0 11G03G06G13G16G23G10G08G19G28G07G11
 -11660753.12948  -9077691.14145  21008166.9304                   21008163.9224
  -2389309.03947  -1857310.33244  22761572.8834                   22761570.8874
 -18779830.75447 -14621238.23046  19902365.3594                   19902361.5984
  16615329.09847  12941734.57844  23215665.5234                   23215662.9414
  -6404380.93448  -4985215.59046  20344629.3674                   20344624.4384
 -10125397.06346  -7886377.57443  23784067.0704                   23784066.4344
 -15626054.89646 -12172415.55943  23897651.2194                   23897650.5594
 -21061350.64148 -16408595.50046  20946924.3204                   20946919.8524
 -14292669.62946 -11130863.28943  24495249.3134                   24495247.8014
 -16912707.89147 -13175616.79345  21978442.1724                   21978439.1994
 -14237802.68846 -11087740.10943  24633193.4384                   24633193.2344
 11  8 20 16 12 30.0000000  0 11G03G06G13G16G23G10G08G19G28G07G11
 -11568878.07048  -9006100.21945  21025649.9614                   21025646.9694
  -2275627.43447  -1768727.29744  22783205.3754                   22783203.6174
 -18735592.95748 -14586767.22746  19910783.8284                   19910779.8404
  16751575.60947  13047900.63744  23241592.2114                   23241589.4654
  -6303546.53548  -4906643.35546  20363817.6484                   20363812.0984
 -10061344.80546  -7836466.72743  23796255.4304                   23796254.4534
 -15647123.29946 -12188832.43343  23893641.5164                   23893641.0124
 -21044066.34048 -16395127.20746  20950213.4614                   20950208.1604
 -14319700.89546 -11151926.59043  24490104.8364                   24490103.6954
 -16921939.86347 -13182810.52045  21976685.1884                   21976682.0634
 -14265386.29347 -11109233.76243  24627944.5394                   24627944.1564
 11  8 20 16 13  0.0000000  0 11G03G06G13G16G23G10G08G19G28G07G11
 -11476440.78548  -8934071.19145  21043239.5554                   21043237.0744
  -2161536.16847  -1679825.05945  22804916.2664                   22804915.6214
 -18690787.93848 -14551854.23046  19919309.9694                   19919306.2304
  16887816.40246  13154062.20344  23267518.2814                   23267516.2814
  -6202198.49648  -4827670.89146  20383103.5314                   20383098.5004
  -9996869.06346  -7786225.91043  23808525.0474                   23808523.3794
 -15668269.35946 -12205309.81643  23889618.5634                   23889616.8984
 -21026215.91448 -16381217.78546  20953610.3364                   20953605.3554
 -14346531.80547 -11172833.77043  24484999.6334                   24484998.0474
 -16931148.82447 -13189986.32045  21974933.0164                   21974930.0434
 -14293134.71947 -11130855.87943  24622664.2114                   24622663.8754
 11  8 20 16 13 30.0000000  0 11G03G06G13G16G23G10G08G19G28G07G11
 -11383443.59448  -8861605.86745  21060936.8364                   21060933.7774
  -2047037.65647  -1590605.48844  22826704.6254                   22826702.8244
 -18645414.92248 -14516498.64146  19927943.7114                   19927940.5554
  17024049.76646  13260217.96944  23293443.1884                   23293440.4534
  -6100338.39148  -4748299.41046  20402486.9454                   20402481.4144
  -9931971.71947  -7735656.59844  23820874.6564                   23820873.1604
 -15689493.93447 -12221848.40243  23885579.4774                   23885577.9304
 -21007798.38348 -16366866.45346  20957115.2034                   20957110.4144
 -14373162.17246 -11193584.68043  24479930.8284                   24479930.5784
 -16940334.34447 -13197143.87545  21973185.2734                   21973181.7544
 -14321046.08647 -11152604.94943  24617352.5234                   24617351.7234
 11  8 20 16 14  0.0000000  0 11G03G06G13G16G23G10G08G19G28G07G11
 -11289887.50448  -8788705.03945  21078739.9454                   21078737.6134
  -1932133.21547  -1501069.64145  22848570.9924                   22848568.9534
 -18599472.18048 -14480699.10546  19936686.5704                   19936682.8874
  17160274.48447  13366367.03144  23319366.0394                   23319362.8054
  -5997966.84048  -4668529.39146  20421967.5084                   20421962.4654
  -9866653.85947  -7684759.57043  23833304.2814                   23833303.1214
 -15710795.85247 -12238447.27343  23881525.6564                   23881524.2384
 -20988811.51248 -16352071.48046  20960728.3204                   20960723.2384
 -14399590.76246 -11214178.34043  24474902.6414                   24474901.5594
 -16949494.99247 -13204282.03145  21971441.8284                   21971438.2854
 -14349117.16846 -11174478.46543  24612010.3754                   24612010.5274
 11  8 20 16 14 30.0000000  0 11G03G06G13G16G23G10G08G19G28G07G11
 -11195772.23448  -8715368.50445  21096649.5474                   21096646.9534
  -1816823.24647  -1411217.77744  22870513.7504                   22870511.5124
 -18552957.42248 -14444453.84446  19945538.3524                   19945534.4534
  17296490.86346  13472509.58244  23345286.6564                   23345284.3834
  -5895083.05548  -4588360.23846  20441545.7504                   20441540.0824
  -9800915.27747  -7633534.73843  23845813.7894                   23845812.6994
 -15732172.87947 -12255104.64543  23877457.8134                   23877456.3984
 -20969251.82047 -16336830.15646  20964450.0864                   20964445.1054
 -14425815.26646 -11234613.01243  24469912.2894                   24469911.0044
 -16958628.28147 -13211398.85945  21969704.0004                   21969700.9264
 -14377344.24246 -11196473.50843  24606638.9774                   24606638.8674
 11  8 20 16 15  0.0000000  0 11G03G06G13G16G23G10G08G19G28G07G11
 -11101096.22348  -8641595.01645  21114665.5784                   21114663.6914
  -1701106.79347  -1321049.16044  22892533.3754                   22892531.8714
 -18505866.72748 -14407759.80146  19954499.2194                   19954495.3834
  17432700.33646  13578646.76644  23371206.5474                   23371203.9804
  -5791685.75048  -4507790.93446  20461221.5784                   20461216.3874
  -9734754.71547  -7581981.07043  23858404.4454                   23858402.8874
 -15753622.08246 -12271818.26643  23873376.1024                   23873374.8364
 -20949114.96147 -16321139.09046  20968281.9454                   20968277.4964
 -14451831.98446 -11254885.69942  24464960.6804                   24464960.8164
 -16967730.14547 -13218491.21145  21967971.7814                   21967968.7854
 -14405721.82846 -11218585.85943  24601239.8754                   24601238.4384
 11  8 20 16 15 30.0000000  0 11G03G06G13G16G23G10G08G19G28G07G11
 -11005856.25448  -8567382.07445  21132789.3134                   21132787.0044
  -1584980.95747  -1230561.54344  22914631.1564                   22914629.8524
 -18458194.46548 -14370612.59446  19963570.9064                   19963567.3634
  17568906.38346  13684781.25844  23397125.4144                   23397123.3364
  -5687771.39548  -4426818.74246  20480995.5784                   20480990.7234
  -9668168.89847  -7530096.05544  23871075.1804                   23871073.9844
 -15775138.81347 -12288584.49643  23869281.4924                   23869279.7664
 -20928394.43848 -16304993.21946  20972224.8914                   20972219.8134
 -14477635.54746 -11274992.40242  24460050.0234                   24460049.5744
 -16976795.08247 -13225554.79745  21966247.2504                   21966243.4184
 -14434242.68046 -11240809.86743  24595811.1954                   24595811.0084
 11  8 20 16 16  0.0000000  0 11G03G06G13G16G23G10G08G19G28G07G11
 -10910053.68048  -8492730.74245  21151019.7274                   21151017.6564
  -1468447.28147  -1139756.14144  22936807.4224                   22936805.8874
 -18409938.97348 -14333010.92246  19972753.6024                   19972749.7894
  17705107.68746  13790912.04744  23423044.0704                   23423041.9804
  -5583340.12948  -4345443.75446  20500868.2664                   20500863.4024
  -9601158.93847  -7477880.50444  23883826.1334                   23883825.9844
 -15796722.00846 -12305402.48043  23865173.7734                   23865173.1414
 -20907088.28948 -16288391.01646  20976279.4224                   20976274.7974
 -14503225.03146 -11294932.15643  24455181.4614                   24455180.0634
 -16985821.50447 -13232588.36745  21964529.2734                   21964526.0204
 -14462903.65646 -11263142.99642  24590356.9384                   24590357.5084
 11  8 20 16 16 30.0000000  0 11G03G06G13G16G23G10G08G19G28G07G11
 -10813689.33248  -8417641.67645  21169357.9614                   21169355.2974
  -1351506.58647  -1048633.59044  22959060.6804                   22959058.3364
 -18361098.55148 -14294953.45746  19982047.5234                   19982043.5864
  17841303.96546  13897038.94944  23448961.5084                   23448959.3634
  -5478392.79348  -4263666.64546  20520839.2814                   20520834.1724
  -9533725.02747  -7425334.64143  23896658.7034                   23896657.0044
 -15818370.13346 -12322271.10244  23861054.7504                   23861053.6454
 -20885193.86748 -16271330.42246  20980445.5004                   20980441.1094
 -14528598.66846 -11314703.76642  24450352.9064                   24450351.6484
 -16994807.24647 -13239590.24645  21962819.2034                   21962816.0124
 -14491701.50846 -11285582.84042  24584877.8444                   24584877.5274
 11  8 20 16 17  0.0000000  0 11G03G06G13G16G23G10G08G19G28G07G11
 -10716768.72748  -8342119.14545  21187800.7424                   21187798.2464
  -1234165.26247   -957198.84444  22981389.8594                   22981388.0554
 -18311676.35948 -14256442.68046  19991452.5004                   19991448.8594
  17977489.63747  14003157.57044  23474876.6254                   23474874.7424
  -5372934.63748  -4181491.48446  20540907.2504                   20540902.4184
  -9465873.22747  -7372463.15243  23909569.8284                   23909569.6764
 -15840087.30147 -12339193.53143  23856922.3594                   23856920.3954
 -20862713.59848 -16253813.32046  20984723.5944                   20984719.1374
 -14553759.78546 -11334309.77043  24445564.8594                   24445563.5434
 -17003755.59447 -13246562.97745  21961116.2504                   21961113.2734
 -14520637.39546 -11308130.21542  24579371.2584                   24579370.8364
 11  8 20 16 17 30.0000000  0 11G03G06G13G16G23G10G08G19G28G07G11
 -10619290.10248  -8266161.82445  21206350.7194                   21206348.6604
  -1116422.06647   -865450.96144  23003795.8674                   23003793.6644
 -18261668.60547 -14217475.60946  20000968.3594                   20000964.8134
  18113666.53547  14109269.34444  23500789.9614                   23500788.0514
  -5266963.73448  -4098916.77746  20561073.2034                   20561068.0634
  -9397601.99247  -7319264.81643  23922561.8914                   23922560.2544
 -15861869.89847 -12356166.90243  23852776.6954                   23852776.2974
 -20839643.00848 -16235836.23846  20989113.6174                   20989109.3714
 -14578704.99646 -11353747.52043  24440817.6174                   24440816.4654
 -17012662.31647 -13253503.27045  21959421.0864                   21959418.4844
 -14549705.51646 -11330780.60542  24573838.8364                   24573839.6844
 11  8 20 16 18  0.0000000  0 11G03G06G13G16G23G10G08G19G28G07G11
 -10521253.26648  -8189769.50845  21225006.3914                   21225003.9144
   -998277.01647   -773389.93044  23026277.9844                   23026276.3874
 -18211072.42248 -14178050.02046  20010596.9064                   20010593.1374
  18249835.61747  14215375.03544  23526702.3754                   23526700.3674
  -5160479.37548  -4015941.97346  20581336.3054                   20581331.5434
  -9328910.87547  -7265739.31344  23935633.6334                   23935632.7624
 -15883715.68447 -12373189.56343  23848620.4614                   23848618.4694
 -20815978.97748 -16217396.73846  20993617.0704                   20993612.1914
 -14603431.78946 -11373015.10243  24436112.1884                   24436111.0864
 -17021524.50447 -13260408.86746  21957734.8134                   21957731.9654
 -14578901.83646 -11353530.89842  24568283.7504                   24568284.0824
 11  8 20 16 18 30.0000000  0 11G03G06G13G16G23G10G08G19G28G07G11
 -10422660.34848  -8112943.89145  21243768.1414                   21243765.5474
   -879732.39847   -681017.54344  23048836.5004                   23048834.6844
 -18159887.57048 -14138165.73046  20020336.8674                   20020332.8324
  18385994.64546  14321472.89844  23552613.0864                   23552610.8484
  -5053483.48448  -3932568.58646  20601696.6954                   20601691.4614
  -9259801.75446  -7211888.07043  23948784.8834                   23948783.9654
 -15905624.54747 -12390261.33643  23844450.2424                   23844449.1564
 -20791720.22348 -16198493.80546  20998233.1564                   20998228.3674
 -14627939.42646 -11392111.89843  24431448.5004                   24431447.2854
 -17030341.38347 -13267279.14845  21956057.1804                   21956054.1644
 -14608224.01246 -11376379.33242  24562703.8834                   24562703.3794
 11  8 20 16 19  0.0000000  0 11G03G06G13G16G23G10G08G19G28G07G11
 -10323514.10248  -8035687.10545  21262635.0164                   21262632.3134
   -760791.58647   -588336.44544  23071469.8204                   23071467.4734
 -18108114.13748 -14097822.81646  20030188.9384                   20030184.9924
  18522141.18747  14427561.02344  23578520.3674                   23578518.3594
  -4945978.26248  -3848798.30946  20622154.3054                   20622149.6604
  -9190277.60947  -7157713.44944  23962014.6094                   23962013.7194
 -15927597.21546 -12407382.85543  23840268.7504                   23840267.9304
 -20766866.35948 -16179127.14546  21002962.7274                   21002958.2934
 -14652228.91846 -11411038.73043  24426826.9304                   24426825.4494
 -17039113.02347 -13274114.18445  21954387.7344                   21954385.0084
 -14637670.56646 -11399324.67242  24557099.9144                   24557099.8364
 11  8 20 16 19 30.0000000  0 11G03G06G13G16G23G10G08G19G28G07G11
 -10223810.01948  -7957995.65345  21281608.2894                   21281605.8094
   -641450.16547   -495343.20244  23094180.3364                   23094178.5904
 -18055745.28248 -14057015.92946  20040154.3594                   20040150.5354
  18658280.45047  14533643.48144  23604426.9384                   23604424.2814
  -4837959.16448  -3764627.60946  20642709.7974                   20642704.8834
  -9120333.78547  -7103211.80143  23975324.6024                   23975323.9144
 -15949627.45746 -12424549.23044  23836076.8134                   23836075.6604
 -20741409.90248 -16159290.95346  21007807.0234                   21007802.4264
 -14676293.21946 -11429790.11343  24422247.1094                   24422245.9384
 -17047832.08247 -13280908.24645  21952728.6094                   21952726.0124
 -14667232.62946 -11422360.02042  24551474.9384                   24551474.3674
 11  8 20 16 20  0.0000000  0 11G03G06G13G16G23G10G08G19G28G07G11
 -10123560.74647  -7879879.36745  21300684.8134                   21300682.8484
   -521720.93047   -402047.75044  23116963.7344                   23116962.2074
 -18002790.88348 -14015752.77346  20050231.5864                   20050227.5204
  18794400.46947  14639710.95744  23630330.1024                   23630327.6214
  -4729437.97748  -3680065.68446  20663360.7584                   20663355.9884
  -9049982.50747  -7048392.63843  23988711.9924                   23988710.8954
 -15971725.32047 -12441768.32043  23831872.0394                   23831870.6604
 -20715359.78148 -16138992.15246  21012764.0944                   21012759.0904
 -14700142.91046 -11448374.21143  24417709.5944                   24417707.0044
 -17056507.98047 -13287668.66845  21951077.7894                   21951074.5984
 -14696917.78946 -11445491.22742  24545826.4844                   24545825.1914
 11  8 20 16 20 30.0000000  0 11G03G06G13G16G23G10G08G19G28G07G11
 -10022762.93448  -7801335.66845  21319866.2814                   21319863.5314
   -401600.80147   -308447.71144  23139821.5554                   23139820.0204
 -17949245.44148 -13974029.07046  20060420.5394                   20060416.8524
  18930504.55946  14745766.00044  23656230.1024                   23656227.2704
  -4620411.20348  -3595109.78946  20684108.0474                   20684103.4344
  -8979220.76646  -6993253.66843  24002177.1414                   24002176.1994
 -15993885.16047 -12459035.68844  23827654.6414                   23827653.3714
 -20688710.07048 -16118226.15246  21017835.0084                   21017830.6564
 -14723772.01247 -11466786.42643  24413211.9924                   24413210.6644
 -17065134.92247 -13294390.96545  21949436.2974                   21949433.6174
 -14726719.05146 -11468712.92243  24540154.1564                   24540154.1094
 11  8 20 16 21  0.0000000  0 11G03G06G13G16G23G10G08G19G28G07G11
  -9921416.35248  -7722364.34045  21339152.0864                   21339149.1294
   -281090.45747   -214543.60944  23162753.9774                   23162752.2424
 -17895106.59048 -13931842.96946  20070723.2584                   20070719.0474
  19066592.99646  14851808.86344  23682126.3594                   23682124.8134
  -4510878.55948  -3509759.70746  20704951.2034                   20704946.3554
  -8908048.43046  -6937794.69543  24015720.6334                   24015720.2154
 -16016105.24247 -12476349.98844  23823426.9924                   23823425.1054
 -20661457.59848 -16096990.45746  21023021.8204                   21023016.7424
 -14747178.39146 -11485025.13743  24408758.1334                   24408756.1604
 -17073710.19547 -13301072.98045  21947804.2664                   21947801.3204
 -14756632.18046 -11492021.83243  24534462.2194                   24534462.0234
 11  8 20 16 21 30.0000000  0 11G03G06G13G16G23G10G08G19G28G07G11
  -9819529.12948  -7642971.73045  21358540.3524                   21358537.6604
   -160198.10247   -120341.82044  23185759.4534                   23185757.5864
 -17840379.85548 -13889198.77746  20081137.1724                   20081133.4024
  19202658.55547  14957833.88344  23708019.3134                   23708017.1174
  -4400847.70348  -3424021.40646  20725889.8284                   20725884.8634
  -8836473.35546  -6882021.96143  24029340.5944                   24029339.7194
 -16038391.08247 -12493715.53144  23819186.2114                   23819184.5664
 -20633607.30947 -16075288.93846  21028320.8364                   21028316.7544
 -14770367.77346 -11503094.67243  24404344.9844                   24404343.7774
 -17082238.82847 -13307718.66045  21946181.4534                   21946178.4844
 -14786660.40246 -11515420.41043  24528748.4534                   24528747.6094
 11  8 20 16 22  0.0000000  0 11G03G06G13G16G23G10G08G19G28G07G11
  -9717097.82447  -7563155.16045  21378032.2584                   21378029.9844
    -38920.09847    -25839.53144  23208838.2114                   23208835.8674
 -17785059.14148 -13846091.74246  20091664.2814                   20091660.7304
  19338705.44947  15063844.35943  23733908.0394                   23733905.9024
  -4290314.55948  -3337891.72346  20746923.2894                   20746918.1484
  -8764491.59446  -6825932.29343  24043038.5004                   24043038.1334
 -16060736.82047 -12511127.74644  23814933.4384                   23814931.9144
 -20605152.37948 -16053116.26646  21033735.8914                   21033731.4734
 -14793334.13746 -11520990.50843  24399975.5394                   24399972.9924
 -17090714.05947 -13314322.74246  21944568.6484                   21944565.8634
 -14816795.64546 -11538902.32843  24523013.2814                   24523013.0164
 11  8 20 16 22 30.0000000  0 11G03G06G13G16G23G10G08G19G28G07G11
  -9614123.40247  -7482915.39845  21397627.2504                   21397625.2584
     82741.80147     68961.87144  23231988.8134                   23231987.9144
 -17729143.31348 -13802520.98446  20102304.5474                   20102300.8874
  19474732.93446  15169839.71544  23759793.3594                   23759791.6134
  -4179280.06648  -3251371.36746  20768052.4694                   20768047.1844
  -8692104.70346  -6769526.93043  24056813.8364                   24056812.6214
 -16083141.68847 -12528586.00444  23810669.9144                   23810668.4694
 -20576091.37148 -16030471.32446  21039266.0704                   21039261.6054
 -14816076.61746 -11538711.82843  24395645.8674                   24395645.9734
 -17099134.17647 -13320883.87146  21942966.6174                   21942963.6024
 -14847034.71946 -11562465.19543  24517259.3054                   24517258.2854
 11  8 20 16 23  0.0000000  0 11G03G06G13G16G23G10G08G19G28G07G11
  -9510610.18447  -7402255.78145  21417325.5474                   21417323.1764
    204783.29347    164059.06644  23255213.3134                   23255212.2544
 -17672633.84848 -13758487.65246  20113058.3524                   20113054.4844
  19610737.30146  15275817.04343  23785674.5704                   23785672.2814
  -4067748.02748  -3164463.32046  20789276.4304                   20789271.0704
  -8619316.70346  -6712809.03143  24070664.9064                   24070663.3054
 -16105607.02047 -12546091.43044  23806394.8364                   23806393.8954
 -20546424.94148 -16007354.63746  21044911.4454                   21044907.2854
 -14838596.68646 -11556259.89143  24391361.2274                   24391360.3714
 -17107500.32047 -13327402.92645  21941374.2814                   21941371.3714
 -14877377.13746 -11586108.58643  24511485.6024                   24511485.0944
 11  8 20 16 23 30.0000000  0 11G03G06G13G16G23G10G08G19G28G07G11
  -9406557.67247  -7321175.92645  21437126.6724                   21437124.0824
    327205.06247    259452.59844  23278508.7894                   23278507.9384
 -17615527.68448 -13713989.36346  20123925.3134                   20123921.7664
  19746720.40646  15381777.81244  23811550.7974                   23811549.0864
  -3955717.44548  -3077166.79346  20810595.2344                   20810590.3524
  -8546126.70346  -6655777.93443  24084591.8054                   24084592.2114
 -16128130.19947 -12563641.91444  23802109.1564                   23802107.3874
 -20516149.34048 -15983763.26246  21050672.8444                   21050668.2154
 -14860891.07446 -11573632.12543  24387118.7194                   24387117.6214
 -17115808.83647 -13333877.08645  21939793.1254                   21939790.3364
 -14907817.56346 -11609828.32043  24505692.5944                   24505691.8324
 11  8 20 16 24  0.0000000  0 11G03G06G13G16G23G10G08G19G28G07G11
  -9301974.76647  -7239682.78545  21457027.5234                   21457025.3284
    449997.43047    355134.89844  23301875.5004                   23301874.2504
 -17557832.21948 -13669031.87546  20134904.3674                   20134900.3874
  19882672.91846  15487714.71943  23837421.4144                   23837420.2464
  -3843197.43048  -2989488.89846  20832006.8364                   20832001.9224
  -8472543.91846  -6598440.71943  24098594.3284                   24098593.6644
 -16150718.19547 -12581242.91844  23797810.8364                   23797808.8324
 -20485271.14548 -15959702.34046  21056548.7584                   21056543.7584
 -14882967.27046 -11590834.33243  24382917.6954                   24382916.3954
 -17124066.02347 -13340311.24645  21938222.0704                   21938218.9964
 -14938360.84846 -11633628.23443  24499880.3444                   24499879.2734
 11  8 20 16 24 30.0000000  0 11G03G06G13G16G23G10G08G19G28G07G11
  -9196863.77347  -7157778.15645  21477029.4924                   21477027.8444
    573157.91847    451104.04744  23325312.8754                   23325310.3404
 -17499546.85548 -13623614.72746  20145995.4224                   20145991.7734
  20018593.75046  15593626.98843  23863286.9614                   23863284.5124
  -3730189.14848  -2901430.52746  20853511.4064                   20853506.7704
  -8398570.27046  -6540798.96143  24112671.8444                   24112671.1844
 -16173371.07047 -12598894.46544  23793498.8134                   23793498.0274
 -20453789.27048 -15935171.01646  21062539.7734                   21062535.0354
 -14904824.89846 -11607866.24243  24378758.7504                   24378756.9224
 -17132270.73047 -13346704.51246  21936660.4694                   21936657.6094
 -14969004.48446 -11657506.35943  24494048.8984                   24494048.4024
 11  8 20 16 25  0.0000000  0 11G03G06G13G16G23G10G08G19G28G07G11
  -9091223.72348  -7075461.28545  21497132.5314                   21497129.8754
    696687.23447    547360.57044  23348819.9454                   23348817.9304
 -17440668.85248 -13577735.78946  20157199.6724                   20157196.2344
  20154484.04346  15699515.42243  23889145.8674                   23889143.7774
  -3616692.11348  -2812991.31346  20875109.3524                   20875104.8014
  -8324204.93046  -6482851.96943  24126822.6644                   24126821.6954
 -16196085.19947 -12616593.73044  23789176.8364                   23789175.4384
 -20421700.15248 -15910166.51646  21068645.9454                   21068640.8524
 -14926460.78146 -11624725.34443  24374641.1644                   24374640.1134
 -17140419.54747 -13353054.20746  21935110.1024                   21935107.1564
 -14999743.42246 -11681458.69543  24488199.2974                   24488198.8714
 11  8 20 16 25 30.0000000  0 11G03G06G13G16G23G10G08G19G28G07G11
  -8985062.10248  -6992737.97345  21517334.1884                   21517331.9304
    820577.99247    643898.75844  23372395.2114                   23372393.2424
 -17381202.38348 -13531398.30146  20168515.8444                   20168511.9454
  20290337.83246  15805375.38743  23914998.1414                   23914996.7344
  -3502713.11348  -2724176.53946  20896799.1024                   20896794.0044
  -8249454.86346  -6424605.20743  24141047.9844                   24141045.6454
 -16218865.21947 -12634344.34444  23784842.6024                   23784841.4804
 -20389007.77748 -15884691.94146  21074866.9774                   21074862.1414
 -14947879.57846 -11641415.30543  24370565.2424                   24370563.9144
 -17148516.01647 -13359363.13746  21933569.0084                   21933566.2584
 -15030579.59446 -11705486.83643  24482331.7974                   24482330.6524
 11  8 20 16 26  0.0000000  0 11G03G06G13G16G23G10G08G19G28G07G11
  -8878376.63347  -6909606.46945  21537636.0634                   21537633.6994
    944832.17647    740720.13744  23396039.8444                   23396038.9574
 -17321143.43048 -13484599.13746  20179944.6884                   20179940.6684
  20426158.12546  15911209.27743  23940843.8834                   23940842.1954
  -3388249.05148  -2634983.81646  20918580.9224                   20918575.9144
  -8174318.16846  -6366057.16443  24155344.8914                   24155344.0434
 -16241706.45347 -12652142.67644  23780496.3444                   23780494.6134
 -20355706.70748 -15858743.05546  21081203.7114                   21081199.6134
 -14969076.56347 -11657932.40643  24366532.3674                   24366530.6454
 -17156555.03548 -13365627.29346  21932039.6954                   21932036.4574
 -15061506.34446 -11729585.52043  24476446.4384                   24476445.6414
 11  8 20 16 26 30.0000000  0 11G03G06G13G16G23G10G08G19G28G07G11
  -8771172.44147  -6826070.76645  21558035.9064                   21558033.6914
   1069444.59847    837820.63344  23419753.1024                   23419752.2664
 -17260494.38748 -13437340.15246  20191486.1954                   20191482.3444
  20561940.14846  16017013.35943  23966682.8914                   23966680.5824
  -3273305.08648  -2545417.11746  20940453.7734                   20940449.1844
  -8098799.50446  -6307211.52743  24169717.0474                   24169714.7034
 -16264611.77046 -12669990.91844  23776136.9774                   23776135.4304
 -20321799.25448 -15832321.66046  21087656.5554                   21087651.7584
 -14990054.53946 -11674278.85943  24362540.1334                   24362538.5664
 -17164538.54748 -13371848.21946  21930520.0944                   21930517.2974
 -15092524.10546 -11753755.12943  24470544.3364                   24470542.6524
 11  8 20 16 27  0.0000000  0 11G03G06G13G16G23G10G08G19G28G07G11
  -8663454.05947  -6742134.39145  21578534.5004                   21578532.0274
   1194410.39847    935196.48844  23443533.5944                   23443531.3324
 -17199257.71148 -13389623.28946  20203138.7974                   20203135.0554
  20697680.44946  16122784.94044  23992513.1414                   23992511.1254
  -3157885.48848  -2455479.79746  20962417.5004                   20962412.3954
  -8022903.34646  -6248071.68843  24184159.1884                   24184158.6024
 -16287583.27746 -12687890.75844  23771765.1954                   23771764.3634
 -20287287.12148 -15805429.09446  21094223.7194                   21094219.1134
 -15010815.96546 -11690456.55143  24358589.8134                   24358587.4614
 -17172467.50448 -13378026.62546  21929011.5314                   21929008.3284
 -15123632.89146 -11777995.65643  24464623.7734                   24464623.6254
 11  8 20 16 27 30.0000000  0 11G03G06G13G16G23G10G08G19G28G07G11
  -8555226.64547  -6657801.37545  21599128.8204                   21599126.9964
   1319724.42247   1032843.71944  23467379.5164                   23467377.5904
 -17137436.18448 -13341450.69146  20214902.9614                   20214899.3444
  20833374.87146  16228520.78143  24018334.5634                   24018333.3954
  -3041995.19548  -2365175.71946  20984470.5634                   20984465.6724
  -7946634.84046  -6188641.70343  24198671.6804                   24198670.8014
 -16310623.70746 -12705844.27744  23767380.6804                   23767379.5744
 -20252172.19148 -15778066.80546  21100905.6724                   21100901.1724
 -15031363.60946 -11706467.66843  24354679.2344                   24354677.3134
 -17180344.12147 -13384164.23446  21927512.1954                   21927509.1954
 -15154832.94546 -11802307.32843  24458686.7034                   24458686.1684
 11  8 20 16 28  0.0000000  0 11G03G06G13G16G23G10G08G19G28G07G11
 -10021910.66447  -7800672.07445  21320028.4844                   21320026.0904
   -130033.85247    -96838.10244  23191499.8364                   23191498.6254
 -18650449.55148 -14520422.16046  19926986.0314                   19926982.3484
  19393604.31246  15106621.52743  23744355.6884                   23744354.1954
  -4501054.15648  -3502104.81646  20706821.0314                   20706816.0664
  -9445415.68446  -7356522.91443  23913463.7194                   23913463.1414
 -17909155.30147 -13951453.27343  23463190.5474                   23463189.1954
 -21791875.19548 -16977835.39146  20807909.9304                   20807906.0204
 -16627119.74246 -12949913.97343  24051016.8054                   24051015.7424
 -18763589.85548 -14617862.20346  21626230.9614                   21626227.9844
 -16761544.82046 -13054290.49243  24152938.6564                   24152938.2774
 11  8 20 16 28 30.0000000  0 11G03G06G13G16G23G10G08G19G28G07G11
  -9912670.49647  -7715549.89545  21340816.0554                   21340813.9224
     -4029.41847      1347.10244  23215477.9924                   23215476.2734
 -18587456.77748 -14471336.90246  19938973.1484   19938969.7584   19529203.62146
  15212283.28543                  23770159.2114                   23770157.2664
  -4384226.53148  -3411070.33646  20729052.3674                   20729047.9184
  -9368407.36347  -7296516.48443  23928117.8594                   23928117.2114
 -17932330.53147 -13969511.87543  23458780.5394                   23458778.8984
 -21755552.21548 -16949531.77346  20814822.1804                   20814817.7194
 -16647237.27346 -12965589.92643  24047187.7344                   24047187.0434
 -18771357.44148 -14623914.85546  21624752.9384                   21624749.9264
 -16792918.37146 -13078737.33643  24146968.7734                   24146967.9844
 11  8 20 16 29  0.0000000  0 11G03G06G13G16G23G10G08G19G28G07G11
  -9802928.99247  -7630037.08645  21361699.9064                   21361697.5394
    122315.07847     99797.29344  23239520.9144                   23239519.4534
 -18523879.68848 -14421796.33246  19951071.4224   19951068.0594   19664752.26246
  15317905.49643                  23795954.1024                   23795951.9534
  -4266934.65248  -3319674.10546  20751372.8524                   20751367.8954
  -9291033.91846  -7236225.53543  23942841.4454                   23942841.0594
 -17955574.18846 -13987623.78144  23454357.2274                   23454355.9844
 -21718625.42648 -16920757.64546  20821849.2034                   20821844.1454
 -16667141.50046 -12981099.68843  24043401.3594                   24043399.2344
 -18779070.23048 -14629924.82046  21623285.1724                   21623282.3524
 -16824376.16846 -13103249.85243  24140982.4384                   24140982.3284
 11  8 20 16 29 30.0000000  0 11G03G06G13G16G23G10G08G19G28G07G11
  -9692688.27347  -7544135.26645  21382677.5314                   21382675.1604
    248997.13347    198510.51244  23263627.7894                   23263626.2544
 -18459718.64148 -14371800.73046  19963280.8834   19963277.2274   19800248.59846
  15423486.94943                  23821738.6564                   23821735.9184
  -4149180.52048  -3227917.67246  20773780.6334                   20773775.5044
  -9213297.66446  -7175651.87144  23957634.4534                   23957634.7304
 -17978886.38346 -14005789.09044  23449920.8054                   23449919.7974
 -21681094.69548 -16891512.92246  20828990.8834                   20828986.0634
 -16686832.12546 -12996442.95743  24039653.5864                   24039651.8094
 -18786727.68848 -14635891.65246  21621827.8984                   21621824.6024
 -16855916.01646 -13127826.23843  24134981.0704                   24134980.8054
 11  8 20 16 30  0.0000000  0 11G03G06G13G16G23G10G08G19G28G07G11
  -9581952.91047  -7457848.02045  21403749.6954                   21403747.3874
    376012.12946    297483.16844  23287797.7194                   23287795.9104
 -18394975.39148 -14321351.45746  19975601.3204   19975597.6764   19935689.02746
  15529024.87543                  23847511.5084                   23847509.7274
  -4030968.19148  -3135804.21946  20796275.5704                   20796270.9534
  -9135202.64546  -7114798.65244  23972495.4224                   23972494.8404
 -18002268.48846 -14024008.86044  23445471.2584                   23445470.4694
 -21642961.02748 -16861798.37546  20836247.7734                   20836242.5864
 -16706310.89846 -13011621.19543  24035946.8204                   24035944.3324
 -18794330.48848 -14641815.91846  21620381.0634                   21620378.2734
 -16887537.43046 -13152466.23243  24128963.7034                   24128962.7934
 11  8 20 16 30 30.0000000  0 11G03G06G13G16G23G10G08G19G28G07G11
  -9470720.77747  -7371173.68445  21424916.5554                   21424914.4734
    503362.60947    396717.21944  23312032.1094                   23312030.1884
 -18329645.70348 -14270445.23046  19988033.2974   19988029.7974   20071076.93046
  15634521.85943                  23873275.2034                   23873273.0234
  -3912295.25448  -3043331.83646  20818858.3284                   20818853.6374
  -9056746.64846  -7053664.15644  23987425.8364                   23987425.0904
 -18025715.45346 -14042279.18843  23441010.0634                   23441008.2154
 -21604219.30148 -16831610.02046  20843620.3444                   20843615.0234
 -16725573.18846 -13026630.73443  24032281.2584                   24032279.8754
 -18801873.00848 -14647693.19546  21618945.6334                   21618942.8164
 -16919232.87546 -13177163.87143  24122931.6174                   24122931.3914
 11  8 20 16 31  0.0000000  0 11G03G06G13G16G23G10G08G19G28G07G11
  -9359003.85547  -7284121.57845  21446175.5704                   21446173.3674
    631035.84046    496202.79744  23336326.8914                   23336325.8324
 -18263739.73048 -14219089.94546  20000574.8754   20000570.8714   20206401.02346
  15739969.10943                  23899026.5164                   23899024.6174
  -3793173.63748  -2950509.83246  20841526.6094                   20841521.8594
  -8977941.93446  -6992257.90244  24002421.4534                   24002420.8674
 -18049237.04747 -14060607.65244  23436534.0314                   23436531.9574
 -21564879.29348 -16800955.46946  20851106.1724                   20851101.0744
 -16744628.84046 -13041479.24643  24028654.6954                   24028653.8714
 -18809364.20348 -14653530.47346  21617520.2664                   21617517.0474
 -16951009.84046 -13201925.09043  24116885.2894                   24116883.8984
 11  8 20 16 31 30.0000000  0 11G03G06G13G16G23G10G08G19G28G07G11
  -9246801.38348  -7196691.12545  21467527.3054                   21467524.8674
    759032.80146    595940.62544  23360683.9694                   23360682.4574
 -18197254.35948 -14167283.18046  20013226.2034   20013222.5164   20341663.03146
  15845367.97343                  23924766.2664                   23924764.4964
  -3673602.16848  -2857337.30546  20864280.0704                   20864275.3674
  -8898787.68846  -6930579.31644  24017484.2344                   24017483.7504
 -18072829.76647 -14078991.51643  23432044.0784                   23432042.3484
 -21524937.16848 -16769831.73446  20858706.9304                   20858702.0514
 -16763474.65646 -13056164.23843  24025068.6484                   24025067.1954
 -18816799.98848 -14659324.58646  21616105.2344                   21616102.3714
 -16982862.95746 -13226745.58243  24110824.0004                   24110822.2344
 11  8 20 16 32  0.0000000  0 11G03G06G13G16G23G10G08G19G28G07G11
  -9134119.86347  -7108887.38345  21488969.9534                   21488967.6094
    887346.68446    695925.39544  23385101.6414                   23385099.9774
 -18130193.72348 -14115028.14846  20025987.6414   20025983.9774   20476857.94546
  15950714.57843                  23950492.9694                   23950491.0394
  -3553587.07448  -2763819.08646  20887118.2504                   20887113.6094
  -8819290.09847  -6868633.19144  24032612.1804                   24032612.0124
 -18096497.41047 -14097433.80944  23427540.5234                   23427538.0124
 -21484396.65648 -16738241.73846  20866421.3284                   20866416.5274
 -16782114.77346 -13070688.99243  24021521.1644                   24021520.4064
 -18824182.98048 -14665077.55946  21614700.6334                   21614697.2274
 -17014793.38346 -13251626.33843  24104747.8284                   24104746.1294
 11  8 20 16 32 30.0000000  0 11G03G06G13G16G23G10G08G19G28G07G11
  -9020957.59047  -7020709.03545  21510503.9844                   21510501.6764
   1015979.60546    796158.78144  23409579.1884                   23409577.2234
 -18062553.90648 -14062321.81646  20038859.1024   20038855.6214   20611988.85946
  16056011.28943                  23976208.4144                   23976205.2424
  -3433125.68848  -2669953.11746  20910041.3524                   20910036.4734
  -8739446.93446  -6806417.80144  24047805.4774                   24047804.9494
 -18120234.94647 -14115930.54943  23423023.1954                   23423021.3094
 -21443253.01648 -16706181.75846  20874250.4774                   20874245.8754
 -16800544.67246 -13085049.87943  24018014.8834                   24018013.5944
 -18831507.95347 -14670785.30946  21613306.4454                   21613303.0434
 -17046794.20347 -13276561.97343  24098657.8364                   24098656.5864
 11  8 20 16 33  0.0000000  0 11G03G06G13G16G23G10G08G19G28G07G11
  -8907315.01247  -6932156.42645  21532129.0634                   21532126.8794
   1144930.87547    896640.20744  23434117.7974                   23434116.7934
 -17994332.72748 -14009162.48446  20051840.9144   20051837.5434   20747056.06646
  16161258.36743                  24001909.4844                   24001908.4344
  -3312218.69148  -2575739.91446  20933049.2114                   20933044.5784
  -8659258.54746  -6743933.38344  24063065.1174                   24063064.7584
 -18144040.12546 -14134480.00444  23418492.7894                   23418491.6954
 -21401503.70348 -16673649.82846  20882195.2114                   20882190.7584
 -16818762.53146 -13099245.57443  24014548.8284                   24014546.3444
 -18838771.88348 -14676445.50046  21611924.2894                   21611921.4534
 -17078860.59846 -13301548.73443  24092555.0004                   24092554.1334
 11  8 20 16 33 30.0000000  0 11G03G06G13G16G23G10G08G19G28G07G11
  -8793198.22747  -6843234.30145  21553845.3444                   21553842.6954
   1274194.33247    997364.87944  23458715.6564                   23458714.7774
 -17925534.43048 -13955553.44146  20064933.0084   20064929.2384   20882054.92246
  16266452.16042                  24027599.6804                   24027597.4804
  -3190871.95748  -2481184.05546  20956140.9454                   20956135.8954
  -8578730.97346  -6681184.66844  24078389.1174                   24078388.6454
 -18167916.34047 -14153084.80944  23413949.8914                   23413947.8674
 -21359152.33648 -16640648.77346  20890254.5704                   20890249.8594
 -16836772.01246 -13113278.91443  24011120.7814                   24011119.7384
 -18845977.38348 -14682060.17246  21610553.3914                   21610550.2854
 -17110994.27347 -13326587.92243  24086441.1094                   24086439.3404
 11  8 20 16 34  0.0000000  0 11G03G06G13G16G23G10G08G19G28G07G11
  -8678616.76647  -6753950.09045  21575648.9774                   21575646.4264
   1403760.22347   1098325.26244  23483372.0234                   23483370.4344
 -17856166.48448 -13901500.51246  20078133.1414   20078129.5004   21016976.68046
  16371585.88343                  24053274.7274                   24053272.3204
  -3069094.30548  -2386292.43046  20979314.7584                   20979309.4734
  -8497873.95346  -6618179.21144  24093775.2504                   24093775.1374
 -18191870.49647 -14171750.34844  23409391.4144                   23409389.5554
 -21316205.62548 -16607183.82446  20898426.6484                   20898422.2304
 -16854580.12946 -13127155.32044  24007732.2974                   24007730.5274
 -18853130.68048 -14687634.16046  21609191.5554                   21609188.4924
 -17143199.19547 -13351682.57843  24080312.4774                   24080311.2034
 11  8 20 16 34 30.0000000  0 11G03G06G13G16G23G10G08G19G28G07G11
  -8563561.29747  -6664296.52745  21597543.5554                   21597541.3874
   1533637.90647   1199528.59043  23508086.6174                   23508085.7384
 -17786217.52748 -13846994.85946  20091444.0004   20091440.4064   21151832.04746
  16476667.85942                  24078936.1024                   24078935.1524
  -2946876.53148  -2291057.83646  21002571.9144                   21002567.1644
  -8416677.91046  -6554909.64844  24109226.7194                   24109226.7344
 -18215890.28147 -14190467.04744  23404820.5394                   23404819.7704
 -21272651.36748 -16573245.45746  20906715.1254                   20906710.4614
 -16872175.09046 -13140865.65243  24004383.9064                   24004382.1994
 -18860218.46948 -14693157.09846  21607842.7664                   21607839.8794
 -17175461.43447 -13376821.96943  24074172.5394                   24074171.4804
 11  8 20 16 35  0.0000000  0 11G03G06G13G16G23G10G08G19G28G07G11
  -8448038.98447  -6574279.18045  21619526.5864                   21619524.9224
   1663820.41047   1300969.43044  23532859.7814                   23532858.9344
 -17715692.45748 -13792040.28146  20104864.7344   20104861.3874   21286615.24246
  16581693.66843                  24104585.5634                   24104583.4654
  -2824225.16448  -2195485.38746  21025911.5234                   21025906.6914
  -8335149.70346  -6491381.19144  24124740.2034                   24124741.0314
 -18239979.65647 -14209237.92644  23400236.4304                   23400234.5354
 -21228494.32448 -16538837.37546  20915118.1564                   20915113.1094
 -16889561.50846 -13154413.42644  24001075.8914                   24001073.9924
 -18867244.34448 -14698631.80546  21606506.2194                   21606503.3484
 -17207782.63346 -13402007.27343  24068022.5784                   24068021.2304
 11  8 20 16 35 30.0000000  0 11G03G06G13G16G23G10G08G19G28G07G11
  -8332048.83647  -6483897.30145  21641599.3284                   21641596.9414
   1794308.37547   1402648.29344  23557691.3914                   23557689.8364
 -17644587.96148 -13736634.20746  20118395.4614   20118391.7734   21421328.43046
  16686664.84843                  24130220.3914                   24130218.3754
  -2701139.31348  -2099574.38746  21049333.7034                   21049329.4144
  -8253288.38746  -6427593.20743  24140318.2504                   24140318.1914
 -18264135.09147 -14228060.32744  23395639.9774                   23395637.9734
 -21183730.62948 -16503956.58646  20923636.1644                   20923631.3364
 -16906735.90646 -13167796.02743  23997807.0944                   23997805.6374
 -18874204.05148 -14704054.95346  21605181.2584                   21605178.5164
 -17240157.01647 -13427233.99243  24061861.7814                   24061860.1134
 11  8 20 16 36  0.0000000  0 11G03G06G13G16G23G10G08G19G28G07G11
  -8215603.43847  -6393160.66445  21663757.6954                   21663755.8164
   1925089.52746   1504555.59444  23582577.7424                   23582577.0784
 -17572914.65648 -13680784.89846  20132034.0784   20132030.5904   21555960.19146
  16791572.62142                  24155840.2274                   24155838.2814
  -2577630.86348  -2003334.07446  21072836.5084                   21072831.8914
  -8171106.04746  -6363555.05543  24155957.5234                   24155956.9614
 -18288365.62147 -14246941.21944  23391029.3834                   23391026.7704
 -21138369.80548 -16468610.50046  20932267.8444                   20932263.3714
 -16923708.40246 -13181021.29744  23994577.5634                   23994576.1024
 -18881106.17248 -14709433.21146  21603868.1484                   21603864.7344
 -17272591.59846 -13452507.63343  24055689.3284                   24055687.9844
 11  8 20 16 36 30.0000000  0 11G03G06G13G16G23G10G08G19G28G07G11
  -8098696.64847  -6302064.50845  21686004.6564                   21686002.8484
   2056170.28546   1606696.35944  23607521.6414                   23607520.9844
 -17500663.88748 -13624485.61746  20145783.0554   20145779.4694   21690518.57046
  16896423.25043                  24181446.0554                   24181443.7304
  -2453693.18048  -1906759.29746  21096421.6644                   21096416.6454
  -8088596.53946  -6299261.98843  24171657.9924                   24171657.6804
 -18312662.35947 -14265873.72344  23386405.8444                   23386403.6994
 -21092403.10248 -16432792.29346  20941015.3594                   20941010.9494
 -16940469.92246 -13194082.20743  23991387.2974                   23991385.8674
 -18887940.52348 -14714758.66846  21602567.7424                   21602564.5274
 -17305075.05947 -13477819.36343  24049507.4614                   24049506.6724
 11  8 20 16 37  0.0000000  0 11G03G06G13G16G23G10G08G19G28G07G11
  -7981338.11347  -6210616.33245  21708337.4454                   21708335.1564
   2187540.45346   1709062.64144  23632521.0394                   23632519.6724
 -17427843.76648 -13567742.69946  20159640.5474   20159636.4884   21824994.67246
  17001209.71142                  24207035.7894                   24207033.9614
  -2329336.23048  -1809857.81646  21120085.8594                   21120080.9024
  -8005769.61346  -6234721.57043  24187419.1414                   24187420.0514
 -18337032.18447 -14284863.15644  23381767.7814                   23381765.8954
 -21045837.84048 -16396507.69146  20949876.4534                   20949871.3794
 -16957028.47346 -13206984.95743  23988236.0474                   23988234.8834
 -18894713.63748 -14720036.41446  21601278.5554                   21601275.5354
 -17337611.91447 -13503172.68043  24043316.3834                   24043314.9344
 11  8 20 16 37 30.0000000  0 11G03G06G13G16G23G10G08G19G28G07G11
  -7863531.14847  -6118818.74245  21730755.5004                   21730753.3874
   2319197.05146   1811652.09844  23657573.9384                   23657572.8594
 -17354455.56348 -13510557.11346  20173605.8984   20173602.4144   21959386.56245
  17105930.60242                  24232609.3054                   24232608.4414
  -2204562.07848  -1712631.25446  21143829.4144                   21143824.4104
  -7922628.19946  -6169936.10943  24203241.0004                   24203241.0044
 -18361475.45747 -14303909.85244  23377116.1884                   23377115.1374
 -20998674.44948 -16359757.00046  20958851.0164                   20958846.4654
 -16973384.50446 -13219729.85243  23985124.4694                   23985121.9964
 -18901424.74648 -14725265.84446  21600001.5394                   21599998.5394
 -17370200.54347 -13528566.36343  24037115.5474                   24037113.7854
 11  8 20 16 38  0.0000000  0 11G03G06G13G16G23G10G08G19G28G07G11
  -7745284.88348  -6026678.84845  21753256.6644                   21753254.7704
   2451130.97346   1914457.66844  23682680.5704                   23682679.4184
 -17280505.99248 -13452934.09046  20187677.9304   20187674.0314   22093687.02045
  17210580.14142                  24258165.6804                   24258165.3524
  -2079380.44148  -1615087.16046  21167651.2114                   21167646.2854
  -7839181.39846  -6104912.65643  24219120.2664                   24219119.9304
 -18385997.90647 -14323018.21544  23372449.6094                   23372448.2384
 -20950919.44148 -16322545.32846  20967938.5234                   20967933.6604
 -16989544.53946 -13232322.07043  23982049.1484                   23982046.5474
 -18908079.59848 -14730451.43046  21598735.0314                   21598732.1724
 -17402844.58646 -13554003.22343  24030902.9774                   24030902.3204
